[[{"header":{"parameterUnit":"m.s-1","parameterCategory":1,"la1":30.6,"la2":29.2853,"lo1":-89.7004,"lo2":-87.6739,"dy":0.0162,"dx":0.0183,"nx":112,"ny":82,"refTime":"2026-04-10T00:00:00:Z","depth":0,"parameterNumber":2,"parameterNumberName":"U-component_of_WINDS"},"data":[0.0,0.0,0.0,0.0,0.0,0.0,0.0,0.0,0.0,0.0,0.0,0.0,0.0,0.0,0.0,0.0,0.0,0.0,0.0,0.0,0.0,0.0,0.0,0.0,0.0,0.0,0.0,0.0,0.0,0.0,0.0,0.0,0.0,0.0,0.0,0.0,0.0,0.0,0.0,0.0,0.0,0.0,0.0,0.0,0.0,0.0,0.0,0.0,0.0,0.0,0.0,0.0,0.0,0.0,0.0,0.0,0.0,0.0,0.0,0.0,0.0,0.0,0.0,0.0,0.0,0.0,0.0,0.0,0.0,0.0,0.0,0.0,0.0,0.0,0.0,0.0,0.0,0.0,0.0,0.0,0.0,0.0,0.0,0.0,0.0,0.0,0.0,0.0,0.0,0.0,0.0,0.0055,0.0,0.0,0.0,0.0,0.0,0.0,0.0,0.0,0.0,0.0,0.0,0.0,0.0,0.0,0.0,0.0,0.0,0.0,0.0,0.0,0.0,0.0,0.0,0.0,0.0,0.0,0.0,0.0,0.0,0.0,0.0,0.0,0.0,0.0,0.0,0.0,0.0,0.0,0.0,0.0,0.0,0.0,0.0,0.0,0.0,0.0,0.0,0.0,0.0,0.0,0.0,0.0,0.0,0.0,0.0,0.0,0.0,0.0,0.0,0.0,0.0,0.0,0.0,0.0,0.0,0.0,0.0,0.0,0.0,0.0,0.0,0.0,0.0,0.0,0.0,0.0,0.0,0.0,0.0,0.0,0.0,0.0,0.0,0.0,0.0,0.0,0.0,0.0,0.0,0.0,0.0,0.0,0.0,0.0,0.0,0.0,0.0,0.0,0.0,0.0,0.0,0.0,0.0,0.0,0.0,0.0,0.0,0.0,0.0,0.0,0.0104,0.0,0.0,0.0,0.0,0.0,0.0,0.0,0.0,0.0,0.0,0.0,0.0,0.0,0.0,0.0,0.0,0.0,0.0,0.0,0.0,0.0,0.0,0.0,0.0,0.0,0.0,0.0,0.0,0.0,0.0,0.0,0.0,0.0,0.0,0.0,0.0,0.0,0.0,0.0,0.0,0.0,0.0,0.0,0.0,0.0,0.0,0.0,0.0,0.0,0.0,0.0,0.0,0.0,0.0,0.0,0.0,0.0,0.0,0.0,0.0,0.0,0.0,0.0,0.0,0.0,0.0,0.0,0.0,0.0,0.0,0.0,0.0,0.0,0.0,0.0,0.0,0.0,0.0,0.0,0.0,0.0,0.0,0.0,0.0,0.0,0.0,0.0,0.0,0.0,0.0,0.0,0.0,0.0,0.0,0.0,0.0,0.0,0.0,0.0,0.0,0.0,0.0,0.0,0.0,0.0,0.0,0.0,0.0,0.0,0.0,0.017,0.0,0.0,0.0,0.0,0.0,0.0,0.0,0.0,0.0993,0.0,0.0,0.0,0.0,0.0,0.0,0.0,0.0,0.0,0.0,0.0,0.0,0.0,0.0,0.0,0.0,0.0,0.0,0.0,0.0,0.0,0.0,0.0,0.0,0.0,0.0,0.0,0.0,0.0,0.0,0.0,0.0,0.0,0.0,0.0,0.0,0.0,0.0,0.0,0.0,0.0,0.0,0.0,0.0,0.0,0.0,0.0,0.0,0.0,0.0,0.0,0.0,0.0,0.0,0.0,0.0,0.0,0.0,0.0,0.0,0.0,0.0,0.0,0.0,0.0,0.0,0.0,0.0,0.0,0.0,0.0,0.0,0.0,0.0,0.0,0.0,0.0,0.0,0.0,0.0,0.0,0.0,0.0,0.0,0.0,0.0,0.0,0.0,0.0,0.0,0.0,0.0,0.0,0.0,0.0,0.0,0.0,0.0,0.0,0.0,0.0,0.0,0.0,0.0,0.0,0.0,0.0,0.0,0.0,0.0,0.0,0.1096,0.0,0.0,0.0,0.0,0.0,0.0,0.0,0.0,0.0,0.0,0.0,0.0,0.0,0.0,0.0,0.0,0.0,0.0,0.0,0.0,0.0,0.0,0.0,0.0,0.0,0.0,0.0,0.0,0.0,0.0,0.0,0.0,0.0,0.0,0.0,0.0,0.0,0.0,0.0,0.0,0.0,0.0,0.0,0.0,0.0,0.0,0.0,0.0,0.0,0.0,0.0,0.0,0.0,0.0,0.0,0.0,0.0,0.0,0.0,0.0,0.0,0.0,0.0,0.0,0.0,0.0,0.0,0.0,0.0,0.0,0.0,0.0,0.0,0.0,0.0,0.0,0.0,0.0,0.0,0.0,0.0,0.0,0.0,0.0,0.0,0.0,0.0,0.0,0.0,0.0,0.0,0.0,0.0,0.0,0.0,0.0,0.0,0.0,0.0,0.0,0.0,0.0,0.0,0.0,0.0,0.0,0.0,0.0,0.0,0.0,0.0,0.0609,0.0,0.0,0.0,0.0,0.0,0.0,0.0,0.0,0.0,0.0,0.0,0.0,0.0,0.0,0.0,0.0,0.0,0.0,0.0,0.0,0.0,0.0,0.0,0.0,0.0,0.0,0.0,0.0,0.0,0.0,0.0,0.0,0.0,0.0,0.0,0.0,0.0,0.0,0.0,0.0,0.0,0.0,0.0,0.0,0.0,0.0,0.0,0.0,0.0,0.0,0.0,0.0,0.0,0.0,0.0,0.0,0.0,0.0,0.0,0.0,0.0,0.0,0.0,0.0,0.0,0.0,0.0,0.0,0.0,0.0,0.0,0.0,0.0,0.0,0.0,0.0,0.0,0.0,0.0,0.0,0.0,0.0,0.0,0.0,0.0,0.0,0.0,0.0,0.0,0.0,0.0,0.0,0.0,0.0,0.0,0.0,0.0,0.0,0.0,0.0,0.0,0.0,0.0,0.0,0.0,0.0,0.0,0.0,0.0,0.0199,0.0658,0.0,0.0,0.0,0.0,0.0,0.0,0.0,0.0,0.0,0.0,0.0,0.0,0.0,0.0,0.0,0.0,0.0,0.0,0.0,0.0,0.0,0.0,0.0,0.0,0.0,0.0,0.0,0.0,0.0,0.0,0.0,0.0,0.0,0.0,0.0,0.0,0.0,0.0,0.0,0.0,0.0,0.0,0.0,0.0,0.0,0.0,0.0,0.0,0.0,0.0,0.0,0.0,0.0,0.0,0.0,0.0,0.0,0.0,0.0,0.0,0.0,0.0,0.0,0.0,0.0,0.0,0.0,0.0,0.0,0.0,0.0,0.0,0.0,0.0,0.0,0.0,0.0,0.0,0.0,0.0,0.0,0.0,0.0,0.0,0.0,0.0,0.0,0.0,0.0,0.0,0.0,0.0,0.0,0.0,0.0,0.0,0.0,0.0,0.0,0.0,0.0,0.0,0.0,0.0,0.0,0.0,0.0,0.0,0.0,0.0,0.0318,0.106,0.0,0.0,0.0,0.0,0.0,0.0,0.0,0.0,0.0,0.0,0.0,0.0,0.0,0.0,0.0,0.0,0.0,0.0,0.0,0.0,0.0,0.0,0.0,0.0,0.0,0.0,0.0,0.0,0.0,0.0,0.0,0.0,0.0,0.0,0.0,0.0,0.0,0.0,0.0,0.0,0.0,0.0,0.0,0.0,0.0,0.0,0.0,0.0,0.0,0.0,0.0,0.0,0.0,0.0,0.0,0.0,0.0,0.0,0.0,0.0,0.0,0.0,0.0,0.0,0.0,0.0,0.0,0.0,0.0,0.0,0.0,0.0,0.0,0.0,0.0,0.0,0.0,0.0,0.0,0.0,0.0,0.0,0.0,0.0,0.0,0.0,0.0,0.0,0.0,0.0,0.0,0.0,0.0,0.0,0.0,0.0,0.0,0.0,0.0,0.0,0.0,0.0,0.0,0.0,0.0,0.0,0.0,0.0,0.0,0.0,0.0308,0.0,0.0,0.0,0.0,0.0,0.0,0.0,0.0,0.0,0.0,0.0,0.0,0.0,0.0,0.0,0.0,0.0,0.0,0.0,0.0,0.0,0.0,0.0,0.0,0.0,0.0,0.0,0.0,0.0,0.0,0.0,0.0,0.0,0.0,0.0,0.0,0.0,0.0,0.0,0.0,0.0,0.0,0.0,0.0,0.0,0.0,0.0,0.0,0.0,0.0,0.0,0.0,0.0,0.0,0.0,0.0,0.0,0.0,0.0,0.0,0.0,0.0,0.0,0.0,0.0,0.0,0.0,0.0,0.0,0.0,0.0,0.0,0.0,0.0,0.0,0.0,0.0,0.0,0.0,0.0,0.0,0.0,0.0,0.0,0.0,0.0,0.0,0.0,0.0,0.0,0.0,0.0,0.0,0.0,0.0,0.0,0.0,0.0,0.0,0.0,0.0,0.0,0.0,0.0,0.0,0.0,0.0,0.0,0.0,0.0,0.0,0.0325,0.1061,0.0,0.0,0.0,0.0,0.0,0.0,0.0,0.0,0.0,0.0,0.0,0.0,0.0,0.0,0.0,0.0,0.0,0.0,0.0,0.0,0.0,0.0,0.0,0.0,0.0,0.0,0.0,0.0,0.0,0.0,0.0,0.0,0.0,0.0,0.0,0.0,0.0,0.0,0.0,0.0,0.0,0.0,0.0,0.0,0.0,0.0,0.0,0.0,0.0,0.0,0.0,0.0,0.0,0.0,0.0,0.0,0.0,0.0,0.0,0.0,0.0,0.0,0.0,0.0,0.0,0.0,0.0,0.0,0.0,0.0,0.0,0.0,0.0,0.0,0.0,0.0,0.0,0.0,0.0,0.0,0.0,0.0,0.0,0.0,0.0,0.0,0.0,0.0,0.0,0.0,0.0,0.0,0.0,0.0,0.0,0.0,0.0,0.0,0.0,0.0,0.0,0.0,-0.0467,-0.0597,-0.0534,-0.0048,0.0,0.0,0.0,0.0,0.0316,0.1057,0.0,0.0,0.0,0.0,0.0,0.0,0.0,0.0,0.0,0.0,0.0,0.0,0.0,0.0,0.0,0.0,0.0,0.0,0.0,0.0,0.0,0.0,0.0,0.0,0.0,0.0,0.0,0.0,0.0,0.0,0.0,0.0,0.0,0.0,0.0,0.0,0.0,0.0,0.0,0.0,0.0,0.0,0.0,0.0,0.0,0.0,0.0,0.0,0.0,0.0,0.0,0.0,0.0,0.0,0.0,0.0,0.0,0.0,0.0,0.0,0.0,0.0,0.0,0.0,0.0,0.0,0.0,0.0,0.0,0.0,0.0,0.0,0.0,0.0,0.0,0.0,0.0,0.0,0.0,0.0,0.0,0.0,0.0,0.0,0.0,0.0,0.0,0.0,0.0,0.0,0.0,0.0,0.0,0.0,0.0,0.0,0.0,0.0,0.0,0.0,0.0,0.0,-0.1354,-0.1592,-0.1383,-0.0311,-0.0073,0.0,0.0,0.0,0.0282,0.0949,0.0,0.0,0.0,0.0,0.0,0.0,0.0,0.0,0.0,0.0,0.0,0.0,0.0,0.0,0.0,0.0,0.0,0.0,0.0,0.0,0.0,0.0,0.0,0.0,0.0,0.0,0.0,0.0,0.0,0.0,0.0,0.0,0.0,0.0,0.0,0.0,0.0,0.0,0.0,0.0,0.0,0.0,0.0,0.0,0.0,0.0,0.0,0.0,0.0,0.0,0.0,0.0,0.0,0.0,0.0,0.0,0.0,0.0,0.0,0.0,0.9708,0.0,0.0,0.0,0.0,0.0,0.0,0.0,0.0,0.0,0.0,0.0,0.0,0.0,0.0,0.0,0.0,0.0,0.0,0.0,0.0,0.0,0.0,0.0,0.0,0.0,0.0,0.0,0.0,0.0,0.0,0.0,0.0,0.0,0.0,0.0,0.0,0.0,0.0,0.0,0.0,0.0,-0.2818,-0.2219,-0.1733,-0.1587,-0.0625,0.0,0.0,0.0,0.0067,0.0223,0.0,0.0,0.0,0.0,0.0,0.0,0.0,0.0,0.0,0.0,0.0,0.0,0.0,0.0,0.0,0.0,0.0,0.0,0.0,0.0,0.0,0.0,0.0,0.0,0.0,0.0,0.0,0.0,0.0,0.0,0.0,0.0,0.0,0.0,0.0,0.0,0.0,0.0,0.0,0.0,0.0,0.0,0.0,0.0,0.0,0.0,0.0,0.0,0.0,0.0,0.0,0.0,0.0,0.0,0.0,0.0,0.0,0.0,0.0,0.0,0.0,0.9455,0.0,0.0,0.0,0.0,0.0,0.0,0.0,0.0,0.0,0.0,0.0,0.0,0.0,0.0,0.0,0.0,0.0,0.0,0.0,0.0,0.0,0.0,0.0,0.0,0.0,0.0,0.0,0.0,0.0,0.0,0.0,0.0,0.0,0.0,0.0,0.0,0.0,0.0,0.0,0.0,-0.3882,-0.3778,-0.3287,-0.2133,-0.1385,-0.0703,-0.005,0.0,0.0,0.0,0.0295,0.0,0.0,0.0,0.0,0.0,0.0,0.0,0.0,0.0,0.0,0.0,0.0,0.0,0.0,0.0,0.0,0.0,0.0,0.0,0.0,0.0,0.0,0.0,0.0,0.0,0.0,0.0,0.0,0.0,0.0,0.0,0.0,0.0,0.0,0.0,0.0,0.0,0.0,0.0,0.0,0.0,0.0,0.0,0.0,0.0,0.0,0.0,0.0,0.0,0.0,0.0,0.0,0.0,1.0121,0.9624,0.9177,0.9687,0.9781,0.9519,0.8806,0.8642,0.8834,0.0,0.0,0.0,0.0,0.0,0.0,0.0,0.0,0.0,0.0,0.0,0.0,0.0,0.0,0.0,0.0,0.0,0.0,0.0,0.0,0.0,0.0,0.0,0.0,0.0,-0.078,-0.0443,0.0,0.0,0.0,0.0,0.0,0.0,0.0,0.0,0.0,0.0,0.0,0.0,-0.4976,-0.5453,-0.4994,-0.2909,-0.2289,-0.1561,-0.0454,-0.0124,0.0,0.0,0.0,0.022,0.0,0.0,0.0,0.0,0.0,0.0,0.0,0.0,0.0,0.0,0.0,0.0,0.0,0.0,0.0,0.0,0.0,0.0,0.0,0.0,0.0,0.0,0.0,0.0,0.0,0.0,0.0,0.0,0.0,0.0,0.0,0.0,0.9044,0.9419,0.0,0.0,0.0,0.0,0.0,0.0,0.0,0.0,0.0,0.0,0.0,0.0,0.0,0.9455,0.9647,1.0573,1.096,1.0765,1.1721,1.1473,1.0216,1.058,1.0121,0.8985,0.8881,0.0,0.9957,0.9461,0.0,0.0,0.0,0.0,0.0,0.0,0.0,0.0,0.0,0.0,0.0,0.0,0.0,0.0,0.0,0.0,0.0,0.0,0.0,0.0,0.0,0.0,-0.2244,-0.3596,-0.3898,-0.3849,0.0,-0.1878,-0.0705,-0.1996,0.0,0.0,0.0,0.0,0.0,0.0,0.0,0.0,-0.6692,-0.6206,-0.5704,-0.5488,-0.3394,-0.1937,-0.1762,-0.0669,0.0,0.0,0.0,0.0043,0.0124,0.0753,0.0,0.0,0.0,0.0,0.0,0.0,0.0,0.0,0.0,0.0,0.0,0.0,0.0,0.0,0.0,0.0,0.0,0.0,0.0,0.0,0.0,0.0,0.0,0.0,0.0,0.0,0.0,0.0,0.0,0.9008,0.9967,0.9927,1.0221,1.0052,0.0,0.0,0.0,0.0,0.0,0.0,0.0,0.0,0.0,1.0522,1.041,1.0556,1.1048,1.1071,1.1072,1.0967,1.0847,1.0495,0.9944,1.0096,0.9896,0.9399,0.9318,0.9524,0.9794,0.8995,0.8744,0.8858,0.0,0.0,0.0,0.0,0.8543,0.7289,0.7926,0.7069,0.0,0.0,0.0,0.0,0.0,0.0,0.0,0.0,0.0,0.0,0.0,0.0,0.0,-0.4535,-0.4719,-0.4909,-0.5598,-0.4806,-0.3935,0.0,-0.3482,-0.317,-0.3012,0.0,0.0,0.0,0.0,0.0,-0.7425,-0.7325,-0.6927,-0.624,-0.5124,-0.4062,-0.3193,-0.2595,-0.2252,-0.2257,-0.2255,-0.2254,-0.2255,-0.1223,-0.0482,0.0,0.0,0.0,0.0,0.0,0.0,0.0,0.0,0.0,0.0,0.0,0.0,0.0,0.0,0.0,0.0,0.0,0.0,0.0,0.0,0.0,0.0,0.0,0.0,0.0,0.0,0.0,0.0,0.9233,1.0093,0.9867,1.0288,1.0063,0.0,0.0,0.0,0.0,0.0,0.0,0.955,0.9471,0.9847,1.075,1.0795,1.108,1.1674,1.0606,1.009,1.0134,0.883,0.8271,0.8399,0.8399,0.8446,0.8528,0.8434,0.8382,0.8348,0.8326,0.8546,0.8822,0.8126,0.8229,0.8766,0.883,0.7532,0.5852,0.6606,0.5478,0.368,0.3512,0.0,0.2095,0.1263,0.0,0.0,0.0,0.0,-0.4716,-0.5193,-0.5324,-0.5444,-0.5934,-0.604,-0.629,-0.7189,-0.7282,-0.686,0.0,-0.5201,-0.4885,-0.4629,0.0,0.0,0.0,0.0,-0.7398,-0.7868,-0.8185,-0.7956,-0.6958,-0.6546,-0.5887,-0.4739,-0.4282,-0.4045,-0.4045,-0.4041,-0.4054,-0.4054,-0.3149,-0.2349,-0.1749,0.0,0.0,0.0,0.0,0.0,0.0,0.0,0.0,0.0,0.0,0.0,0.0,0.0,0.0,0.0,0.0,0.0,0.0,0.0,0.0,0.0,0.0,0.0,0.0,0.0,0.0,0.0,0.0,0.0,0.9125,0.9408,0.0,0.0,0.0,0.0,0.9012,0.9463,1.0001,1.0688,1.0116,1.0072,1.0691,0.9914,0.9569,0.9735,0.813,0.7393,0.7557,0.5788,0.5017,0.5149,0.5149,0.5152,0.5156,0.5152,0.508,0.5178,0.798,0.9036,0.8742,0.7056,0.6319,0.6024,0.4641,0.4041,0.3981,0.4265,0.4213,0.4036,0.433,0.2419,-0.0323,-0.1804,-0.342,0.0,0.0,-0.4817,-0.5194,-0.6618,-0.6966,-0.7354,-0.8833,-0.9171,-0.92,-0.9245,-0.9153,-0.8864,0.0,-0.7829,-0.7529,-0.7255,0.0,-0.7054,-0.7233,-0.7438,-0.774,-0.8213,-0.8403,-0.8472,-0.8387,-0.7252,-0.6453,-0.6369,-0.5024,-0.42,-0.42,-0.4196,-0.419,-0.419,-0.4307,-0.4257,-0.4027,-0.2725,0.0,0.0,0.0,0.0,0.0,0.0,0.0,0.0,0.0,0.0,0.0,0.0,0.0,0.0,0.0,0.0,0.0,0.0,0.0,0.0,0.0,0.0,0.0,0.0,0.0,0.0,0.0,0.0,0.9676,1.019,0.0,0.7379,0.7956,0.7612,0.5522,0.6495,0.6995,0.6567,0.6456,0.6517,0.6821,0.6549,0.6451,0.658,0.5984,0.5728,0.578,0.5136,0.4906,0.5018,0.5018,0.5111,0.5217,0.5071,0.5005,0.5036,0.601,0.628,0.5996,0.5373,0.5108,0.4969,0.4441,0.3634,0.2784,0.2875,0.1498,-0.0486,-0.1519,-0.2633,-0.3638,-0.4187,-0.5417,-0.6652,-0.6646,-0.7325,-0.8195,-0.881,-0.8975,-0.9129,-0.9814,-0.9988,-0.9961,-0.9866,-0.9723,-0.9496,-0.9191,-0.873,-0.8296,-0.8029,-0.7977,-0.7957,-0.7797,-0.8011,-0.8296,-0.8655,-0.8662,-0.8628,-0.8628,-0.8194,-0.789,-0.7796,-0.727,-0.6954,-0.6954,-0.6954,-0.6954,-0.6954,-0.6209,-0.5724,-0.5543,-0.42,-0.3137,0.0,0.0,0.0,0.0,0.0,0.0,0.0,0.0,0.0,0.0,0.0,0.0,0.0,0.0,0.0,0.0,0.0,0.0,0.0,0.0,0.0,0.0,0.0,0.0,0.0,0.0,0.7818,0.7752,0.8345,0.7864,0.5545,0.6324,0.6039,0.3763,0.4686,0.5064,0.4405,0.4485,0.4638,0.4747,0.4807,0.4884,0.4955,0.4418,0.4151,0.4158,0.3555,0.3286,0.3379,0.3379,0.3465,0.356,0.3428,0.3379,0.3377,0.3277,0.3129,0.3053,0.3595,0.3833,0.377,0.32,0.2337,0.1363,0.0713,-0.136,-0.3935,-0.5091,-0.5839,-0.626,-0.6228,-0.7296,-0.852,-0.8494,-0.9216,-0.9998,-1.0069,-1.0096,-1.0123,-1.0256,-1.0315,-1.0281,-1.0179,-1.0046,-0.9951,-0.9856,-0.9347,-0.8859,-0.8634,-0.8675,-0.8668,-0.8445,-0.8581,-0.8825,-0.9027,-0.9001,-0.8933,-0.8933,-0.8893,-0.8845,-0.8743,-0.8594,-0.8532,-0.8554,-0.8492,-0.8457,-0.8505,-0.7659,-0.7125,-0.6982,-0.5537,-0.4408,-0.3596,0.0,0.0,0.0,0.0,0.0,0.0,0.0,0.0,0.0,0.0,0.0,0.0,0.0,0.0,0.0,0.0,0.0,0.0,0.0,0.0,0.0,0.0,0.0,0.2885,0.3323,0.3528,0.3358,0.3847,0.4027,0.3594,0.3907,0.4112,0.408,0.4201,0.4336,0.4467,0.447,0.453,0.466,0.483,0.4931,0.4931,0.3404,0.2625,0.2591,0.0842,0.0,0.0,0.0,0.0,0.0,0.0,-0.0035,-0.0105,-0.0105,-0.014,0.0,0.1666,0.2319,0.2118,0.0438,-0.017,-0.0447,-0.2402,-0.4316,-0.5858,-0.5804,-0.6832,-0.8085,-0.7948,-0.9046,-1.0342,-1.0342,-1.0342,-1.0342,-1.0335,-1.0335,-1.0329,-1.0297,-1.0297,-1.0297,-1.0297,-1.0322,-1.0322,-1.0322,-0.9839,-0.939,-0.9255,-0.9221,-0.9214,-0.9214,-0.9214,0.0,-0.939,-0.941,-0.941,-0.941,-0.9274,-0.9214,-0.9207,-0.8784,-0.856,-0.8703,-0.8471,-0.8369,-0.8512,-0.8512,-0.8451,-0.8315,-0.6822,-0.547,-0.4316,0.0,0.0,0.0,0.0,0.0,0.0,0.0,0.0,0.0,0.0,0.0,0.0,0.0,0.0,0.0,0.0,0.0,0.0,0.0,0.0,0.0,0.0,0.2046,0.3117,0.3543,0.3807,0.3946,0.4238,0.3941,0.2696,0.2674,0.2316,0.1237,0.0,-0.0738,-0.0822,-0.0725,-0.0701,-0.0755,0.0656,0.1387,0.1392,0.0979,0.074,0.0747,0.0249,0.0,0.0,0.0,0.0,0.0,0.0,-0.0793,-0.2088,-0.2088,-0.295,-0.4016,-0.2131,-0.1418,-0.1625,-0.3523,-0.4189,-0.4479,-0.6318,-0.732,-0.7971,-0.9251,-0.9949,-1.0317,-1.0278,-1.0576,-1.0955,-1.0955,-1.0955,-1.0927,-1.0759,-1.0732,-1.0704,-1.0622,-1.0602,-1.0602,-1.0602,-1.0514,-1.0465,-1.0465,-1.0215,-0.9951,-0.968,-0.9462,-0.9349,-0.9349,-0.9349,0.0,-0.9403,-0.941,-0.941,-0.941,-0.9376,-0.9301,-0.9221,-0.9098,-0.892,0.0,-0.8635,-0.8608,-0.8648,-0.8648,-0.8628,-0.8587,-0.7743,-0.7097,0.0,0.0,0.0,0.0,0.0,0.0,0.0,0.0,0.0,0.0,0.0,0.0,0.0,0.0,0.0,0.0,0.0,0.0,0.0,0.0,0.0,0.0,-0.086,-0.0974,-0.0273,0.0554,0.0881,0.0356,0.0334,0.0,-0.0906,-0.1021,-0.1421,-0.2297,-0.336,-0.4024,-0.4124,-0.4025,-0.3654,-0.2924,-0.1799,-0.0814,0.0,0.0,0.0,0.0,-0.0877,-0.1286,-0.1333,-0.2219,-0.2624,0.0,-0.1702,-0.1923,-0.2993,-0.2993,-0.3656,0.0,0.0,0.0,0.0,0.0,-0.6316,-0.7164,-0.8228,-0.9114,-0.9959,-1.096,-1.1295,-1.1281,-1.122,-1.12,-1.12,-1.12,-1.12,-1.1179,-1.1056,-1.1036,-1.1016,-1.0928,-1.0907,-1.0907,-1.0907,-1.0785,-1.0683,-1.0683,0.0,0.0,-1.0134,-0.991,-0.9791,-0.9791,-0.9707,-0.9659,-0.9659,-0.9605,-0.9564,-0.9564,-0.951,-0.9442,-0.9383,-0.9199,0.0,0.0,0.0,-0.8615,-0.8615,-0.8615,0.0,0.0,0.0,0.0,0.0,0.0,0.0,0.0,-0.7085,-0.7236,0.0,0.0,0.0,0.0,0.0,0.0,0.0,0.0,0.0,0.0,0.0,0.0,0.0,0.0,0.0,0.0,-0.3887,-0.4899,-0.5331,-0.4182,-0.3752,-0.4971,-0.5298,-0.5422,-0.5433,-0.5532,-0.5617,-0.5617,-0.592,-0.6109,-0.612,0.0,0.0,0.0,0.0,-0.2092,-0.0366,-0.0111,0.0,-0.0037,-0.2105,-0.3096,-0.3172,-0.5315,-0.6292,-0.618,-0.4301,-0.3587,-0.3773,-0.3773,-0.3924,-0.4254,-0.5629,-0.6308,-0.6526,-0.6526,-0.7616,-0.907,-0.907,0.0,0.0,-1.1511,-1.1457,-1.1416,-1.1315,-1.1261,-1.1247,-1.1247,-1.1247,-1.1247,-1.1227,-1.1227,-1.122,-1.12,-1.12,-1.12,-1.12,-1.1063,-1.0941,-1.0941,-1.0751,-1.0561,-1.0548,-1.0399,-1.0315,-1.0315,-1.0161,-1.0042,-1.0042,-0.9927,-0.9839,-0.9839,0.0,0.0,-0.9659,-0.9251,-0.9076,-0.9199,-0.8811,-0.8587,-0.8587,-0.86,-0.8621,-0.8634,-0.8743,-0.8858,-0.9014,-0.93,-0.9517,-0.9652,-0.8308,-0.816,0.0,0.0,0.0,0.0,0.0,0.0,0.0,0.0,0.0,0.0,0.0,0.0,0.0,0.0,0.0,-0.4203,-0.4775,-0.5543,-0.7067,-0.7095,-0.6584,-0.5472,-0.5457,-0.5571,-0.5568,-0.569,-0.5746,-0.5746,-0.713,-0.8024,-0.8142,-0.8042,0.0,-0.7737,-0.4593,-0.2776,-0.2513,-0.0829,0.0,-0.0038,0.0,0.0,-0.3172,-0.5315,-0.6292,-0.6292,-0.5841,-0.6555,-0.8019,-0.8019,-0.896,-1.0243,-0.9026,-0.9494,-1.0884,-1.0884,-1.1113,-1.1447,-1.1447,-1.1676,-1.2009,-1.1982,-1.185,-1.1705,-1.1671,-1.1619,0.0,-1.1531,-1.1531,-1.1504,-1.1382,-1.1348,-1.1314,-1.1227,-1.12,-1.12,-1.12,-1.1172,-1.1159,-1.1159,-1.1111,-1.0995,-1.0846,-1.0534,-1.0315,-1.0315,-1.0256,-1.0236,-1.0236,-1.0209,-1.0195,-1.0195,-1.0168,-1.01,-0.9947,-0.9737,-0.9557,-0.9376,-0.9165,-0.9049,-0.9049,-0.9172,-0.9266,-0.9388,-0.9422,-0.9481,-0.9623,-0.9677,-0.9876,-1.0141,-0.9598,-0.9494,0.0,0.0,0.0,0.0,0.0,0.0,0.0,0.0,0.0,0.0,0.0,-0.2019,-0.2766,0.0,-0.5245,-0.6122,-0.6985,-0.7909,-0.8987,-0.9281,-0.9046,-0.8152,-0.8184,-0.8298,-0.8407,-0.8526,-0.8594,-0.8594,-0.9501,-1.0096,-1.0257,-1.0185,-0.9803,-0.9059,-0.7087,-0.5095,-0.3134,-0.2054,-0.1031,-0.0038,-0.3182,-0.4688,-0.4803,-0.7982,-0.9399,-0.9361,-0.8287,-0.8402,-0.9317,-0.9317,-1.0471,-1.2201,-1.1238,-1.1346,-1.2098,-1.2098,-1.2098,-1.2098,-1.2098,-1.2098,-1.2098,-1.2098,-1.205,-1.1945,-1.1945,-1.1898,-1.1843,-1.1843,-1.1843,-1.1803,-1.1653,-1.1613,-1.1572,-1.1423,-1.1389,-1.1389,-1.1389,-1.137,-1.1308,-1.1308,-1.1247,-1.1172,-1.107,-1.0873,-1.0703,-1.0521,-1.0432,-1.0385,-1.0385,-1.0324,-1.0315,-1.0315,-1.0315,-1.0249,-1.0175,-0.9994,-0.9812,-0.9612,-0.953,-0.949,-0.949,-0.9557,-0.9639,-0.9713,-0.9869,-0.9978,-1.0053,-1.0245,-1.0434,-1.0616,-1.0527,-1.0493,0.0,0.0,0.0,0.0,0.0,0.0,0.0,0.0,-0.1804,-0.1791,-0.3382,-0.4876,-0.5171,-0.6457,-0.7621,-0.8061,-0.9218,-1.0197,-1.05,-1.0643,-1.0698,-1.0725,-1.0887,-1.1043,-1.1234,-1.1348,-1.1436,-1.1436,-1.1572,-1.1671,-1.1786,-1.182,-1.123,-0.9859,-0.9409,-0.7641,-0.4371,-0.3916,-0.2896,-0.1275,-0.51,-0.6917,-0.7033,-1.0779,-1.2501,-1.2424,-1.074,-0.9998,-0.9998,-0.9998,-1.0979,-1.2501,-1.2501,-1.2359,-1.2186,-1.2186,-1.2186,-1.2186,-1.2186,-1.2186,-1.2186,-1.2186,-1.2166,-1.2145,-1.2145,-1.2125,-1.2098,-1.2098,-1.2098,-1.207,-1.1904,-1.1877,-1.185,-1.1735,-1.1681,-1.1624,-1.1624,-1.1545,-1.1436,-1.1436,-1.1335,-1.1274,-1.1247,-1.124,-1.1152,-1.0846,-1.0677,-1.0582,-1.0582,-1.0453,-1.0365,-1.0365,-1.0365,-1.0351,-1.0324,-1.0177,-1.0042,-0.9917,-0.991,-0.9924,-0.9951,-0.992,-0.9947,-1.0008,-1.0283,-1.0426,-1.0485,-1.0812,-1.0988,-1.1049,-1.1199,-1.1192,0.4481,0.325,0.2745,0.3053,0.117,-0.0581,0.0,0.0,-0.4302,-0.4309,-0.4709,-0.5463,-0.6834,-0.7445,-0.8256,-0.9753,-1.0248,-1.05,-1.067,-1.0677,-1.0738,-1.0874,-1.1137,-1.1348,-1.1362,-1.1504,-1.1592,-1.1592,-1.1692,-1.178,-1.1793,-1.1959,-1.2026,-1.1954,-1.0144,-0.9042,-0.8712,-0.6859,-0.5816,-0.5621,-0.7924,-0.9061,-0.9138,-1.1443,-1.2501,-1.2501,-1.2263,-1.2147,-1.2147,-1.2147,-1.2308,-1.2501,-1.2501,-1.2481,-1.2454,-1.2454,-1.2454,-1.2454,-1.2454,-1.2454,-1.2454,-1.2454,-1.2366,-1.2264,-1.2264,-1.2207,-1.2098,-1.2098,-1.2098,-1.2098,-1.2077,-1.207,-1.207,-1.205,-1.1904,-1.1773,-1.1773,-1.1658,-1.1592,-1.1592,-1.1579,-1.1525,-1.1389,-1.1362,-1.1307,-1.1172,-1.0989,-1.0867,-1.0867,-1.0732,-1.067,-1.067,-1.067,-1.0616,-1.048,-1.0453,-1.0378,-1.0236,-1.0229,-1.0283,-1.0412,-1.0419,-1.0541,-1.0786,-1.0826,-1.0901,-1.1097,-1.1152,-1.128,-1.1509,-1.1523,-1.1523,0.3074,0.1631,0.0556,-0.0023,-0.1683,-0.3144,-0.2976,-0.4574,-0.6095,-0.6093,-0.7019,-0.8038,-0.8671,-0.9125,-0.9614,0.0,-1.0602,-1.0718,-1.0691,-1.0867,-1.0934,-1.0792,-1.1077,-1.1329,-1.1382,-1.1531,-1.1584,-1.1584,-1.1712,-1.1834,-1.1959,-1.2145,-1.2264,-1.2406,-1.1555,-1.0566,-0.9415,-0.8555,-0.7501,-0.6336,-0.84,-0.9415,-0.9454,-1.156,-1.2501,-1.2501,-1.2501,-1.2501,-1.2501,-1.2501,-1.2501,-1.2501,-1.2501,-1.2501,-1.2501,-1.2501,-1.2501,-1.2501,-1.2501,-1.2501,-1.2501,-1.2501,-1.2461,-1.2413,-1.2413,-1.2366,-1.2318,-1.2318,-1.2318,-1.2298,-1.2254,-1.2234,-1.2213,-1.2118,-1.205,-1.1965,-1.1965,-1.1918,-1.185,-1.1726,-1.1705,-1.1658,-1.1552,-1.1525,-1.1504,-1.1436,-1.1226,-1.107,-1.107,-1.1016,-1.0975,-1.0975,-1.0975,-1.0989,-1.0921,-1.0914,-1.0893,-1.0832,-1.0825,-1.0853,-1.0914,-1.0914,-1.0975,-1.107,-1.1158,-1.128,-1.143,-1.1511,-1.1667,-1.1877,-1.1877,-1.1925,0.0623,-0.0534,-0.1725,-0.282,-0.4249,-0.5399,-0.5475,-0.6695,-0.78,-0.7778,-0.8878,-0.9852,-0.9852,-1.0215,-1.0493,-1.0493,-1.0718,-1.086,-1.0711,-1.0907,-1.0948,-1.069,-1.0846,-1.107,-1.1192,-1.1416,-1.1572,-1.1613,-1.1789,-1.1945,-1.2091,-1.2244,-1.2393,-1.2501,-1.2501,-1.1798,-1.0275,-1.0275,-0.9493,-0.8011,-0.9532,-1.0275,-1.0308,-1.1798,-1.2501,-1.2501,-1.2501,-1.2501,-1.2501,-1.2501,-1.2501,-1.2501,-1.2501,-1.2501,-1.2501,-1.2501,-1.2501,-1.2501,-1.2501,-1.2501,-1.2501,-1.2501,-1.2501,-1.2501,-1.2501,-1.2501,-1.2501,-1.2501,-1.2501,-1.2481,-1.2372,-1.2345,-1.2318,-1.2247,-1.2193,-1.2166,-1.2166,-1.2132,-1.2064,-1.1918,-1.1898,-1.1864,-1.1762,-1.1708,-1.1681,-1.1681,-1.1457,-1.1308,-1.1268,-1.1227,-1.12,-1.12,-1.12,-1.12,-1.12,-1.12,-1.12,-1.12,-1.12,-1.122,-1.1261,-1.1261,-1.1302,-1.1348,-1.1457,-1.1586,-1.1742,-1.1843,-1.1972,-1.2166,-1.2166,-1.2268,-0.378,-0.3943,-0.4174,-0.4538,-0.5832,-0.7021,-0.7043,-0.8319,-0.9532,-0.9532,-0.9775,-0.9977,-0.9977,-1.0258,-1.0493,-1.0493,-1.0718,-1.086,-1.0711,-1.0691,-1.0677,-1.0521,-1.0507,-1.0575,0.0,-1.1138,-1.1457,-1.157,-1.1891,-1.2091,-1.2098,-1.2338,-1.2494,-1.2501,-1.2501,-1.2463,-1.2424,-1.2424,-1.2385,-1.2308,-1.2385,-1.2424,-1.2424,-1.2463,-1.2501,-1.2501,-1.2501,-1.2501,-1.2501,-1.2501,-1.2501,-1.2501,-1.2501,-1.2501,-1.2501,-1.2501,-1.2501,-1.2501,-1.2501,-1.2501,-1.2501,-1.2501,-1.2501,-1.2501,-1.2501,-1.2501,-1.2501,-1.2501,-1.2501,-1.2501,-1.2494,-1.2494,-1.2494,-1.2488,-1.2386,-1.2284,-1.2284,-1.2207,-1.2098,-1.2091,-1.2091,-1.2091,-1.2084,-1.1925,-1.1786,-1.1786,-1.1665,-1.1552,-1.1402,-1.1288,-1.12,-1.12,-1.12,-1.12,-1.12,-1.12,-1.12,-1.12,-1.12,-1.1261,-1.1382,-1.1382,-1.1518,-1.1766,-1.178,-1.1891,-1.2084,-1.2091,-1.2173,-1.2284,-1.2284,-1.244,-0.4235,-0.5132,-0.6083,-0.6396,-0.7645,-0.8778,-0.8886,-0.9316,-0.9717,-0.9717,-0.9798,-0.9866,-0.9866,-1.0028,-1.0197,-1.0337,-1.065,-1.086,-1.0711,-1.0975,-1.0962,-1.0419,-1.0616,0.0,0.0,0.0,0.0,-1.1457,-1.1873,-1.2098,-1.2098,-1.2338,-1.2501,-1.2501,-1.2501,-1.2501,-1.2501,-1.2501,-1.2501,-1.2501,-1.2501,-1.2501,-1.2501,-1.2501,-1.2501,-1.2501,-1.2501,-1.2501,-1.2501,-1.2501,-1.2501,-1.2501,-1.2501,-1.2501,-1.2501,-1.2501,-1.2501,-1.2501,-1.2501,-1.2501,-1.2501,-1.2501,-1.2501,-1.2501,-1.2501,-1.2501,-1.2501,-1.2501,-1.2501,-1.2501,-1.2501,-1.2501,-1.2501,-1.2501,-1.2467,-1.2433,-1.2433,-1.2393,-1.2325,-1.223,-1.221,-1.2182,-1.2118,-1.2057,-1.1986,-1.1986,-1.1775,-1.1563,-1.1552,-1.1497,-1.1463,-1.1463,-1.1463,-1.1463,-1.1463,-1.1463,-1.1463,-1.1463,-1.1463,-1.1531,-1.1674,-1.1681,-1.1775,-1.1979,-1.1986,-1.2098,-1.221,-1.221,-1.2291,-1.2433,-1.2433,-1.2535,-0.5903,-0.6866,-0.7859,-0.8172,-0.9056,-0.9856,-0.9866,-0.9873,-0.9839,-0.9737,-0.97,-0.9646,-0.9591,-0.9659,-0.9815,-1.0073,-1.0493,-1.0752,-1.0765,-1.1016,-1.1036,-1.05,-1.0643,-1.0698,0.0,0.0,0.0,-1.1382,-1.1846,-1.2098,-1.2098,-1.2338,-1.2501,-1.2501,-1.2501,-1.2501,-1.2501,-1.2501,-1.2501,-1.2501,-1.2501,-1.2501,-1.2501,-1.2501,-1.2501,-1.2501,-1.2501,-1.2501,-1.2501,-1.2501,-1.2501,-1.2501,-1.2501,-1.2501,-1.2501,-1.2501,-1.2501,-1.2501,-1.2501,-1.2501,-1.2501,-1.2501,-1.2501,-1.2501,-1.2501,-1.2501,-1.2501,-1.2501,-1.2501,-1.2501,-1.2501,-1.2501,-1.2501,-1.2501,-1.2501,-1.2501,-1.2501,-1.2501,-1.2474,-1.2386,-1.2366,-1.2332,-1.2275,-1.2213,-1.2166,-1.2111,-1.1934,-1.1755,-1.1665,-1.1617,-1.1584,-1.1584,-1.1584,-1.1604,-1.1651,-1.1658,-1.1685,-1.1775,-1.1775,-1.1816,-1.1911,-1.1911,-1.1986,-1.2179,-1.2179,-1.2254,-1.2366,-1.2366,-1.2413,-1.2501,-1.2501,-1.2583,-0.8669,-0.9076,-0.9483,-0.9774,-1.0059,-1.0197,-0.9924,-0.9877,-0.9759,-0.9413,-0.9316,-0.9213,-0.908,-0.9123,-0.9315,-0.972,-1.0188,-1.0609,-1.0874,-1.0934,-1.0887,0.0,0.0,0.0,0.0,0.0,0.0,-1.1389,0.0,-1.2104,-1.2111,-1.2345,-1.2501,-1.2501,-1.2501,-1.2501,-1.2501,-1.2501,-1.2501,-1.2501,-1.2501,-1.2501,-1.2501,-1.2501,-1.2501,-1.2501,-1.2501,-1.2501,-1.2501,-1.2501,-1.2501,-1.2501,-1.2501,-1.2501,-1.2501,-1.2501,-1.2501,-1.2501,-1.2501,-1.2501,-1.2501,-1.2501,-1.2501,-1.2501,-1.2501,-1.2501,-1.2501,-1.2501,-1.2501,-1.2501,-1.2501,-1.2501,-1.2501,-1.2501,-1.2501,-1.2501,-1.2501,-1.2501,-1.2501,-1.2501,-1.2501,-1.2501,-1.2501,-1.2393,-1.225,-1.2145,-1.2118,-1.2057,-1.1827,-1.1692,-1.164,-1.164,-1.164,-1.1694,-1.1793,-1.1807,-1.1904,-1.2091,-1.2098,-1.2104,-1.2111,-1.2111,-1.2179,-1.2298,-1.2298,-1.2366,-1.2501,-1.2501,-1.2501,-1.2501,-1.2501,-1.2583,-0.9239,-0.9595,-0.9893,-1.0114,-1.0134,-0.975,-0.8483,-0.8144,-0.7701,-0.6366,-0.6711,-0.7199,-0.7061,-0.8106,0.0,-0.9315,-1.0073,0.0,-1.0887,-1.1198,0.0,-1.0901,0.0,-1.109,-1.0874,-1.1158,0.0,0.0,-1.187,-1.2145,-1.2223,-1.2406,-1.2501,-1.2501,-1.2501,-1.2501,-1.2501,-1.2501,-1.2501,-1.2501,-1.2501,-1.2501,-1.2501,-1.2501,-1.2501,-1.2501,-1.2501,-1.2501,-1.2501,-1.2501,-1.2501,-1.2501,-1.2501,-1.2501,-1.2501,-1.2501,-1.2501,-1.2501,-1.2501,-1.2501,-1.2501,-1.2501,-1.2501,-1.2501,-1.2501,-1.2501,-1.2501,-1.2501,-1.2501,-1.2501,-1.2501,-1.2501,-1.2501,-1.2501,-1.2501,-1.2501,-1.2501,-1.2501,-1.2501,-1.2501,-1.2501,-1.2501,-1.2501,-1.2474,-1.2433,-1.2393,-1.2298,-1.2176,-1.202,-1.2009,-1.1989,-1.1989,-1.1989,-1.2002,-1.2036,-1.2006,-1.2057,-1.2098,-1.2098,-1.2152,-1.223,-1.223,-1.2298,-1.2447,-1.2447,-1.2467,-1.2501,-1.2501,-1.2501,-1.2501,-1.2501,-1.2583,-0.9591,-0.9934,-1.0263,-1.0351,-1.031,-0.9923,-0.8731,-0.7952,-0.7113,-0.5858,-0.5974,-0.6241,-0.6112,-0.7363,-0.8554,0.0,0.0,0.0,-1.0982,-1.1321,-1.1423,0.0,-1.1348,0.0,-1.1225,-1.1511,-1.1748,0.0,-1.2043,-1.2166,-1.2284,-1.2427,-1.2501,-1.2501,-1.2501,-1.2501,-1.2501,-1.2501,-1.2501,-1.2501,-1.2501,-1.2501,-1.2501,-1.2501,-1.2501,-1.2501,0.0,-1.2501,-1.2501,-1.2501,-1.2501,-1.2501,-1.2501,-1.2501,-1.2501,-1.2501,-1.2501,-1.2501,-1.2501,-1.2501,-1.2501,-1.2501,-1.2501,-1.2501,-1.2501,-1.2501,-1.2501,-1.2501,-1.2501,-1.2501,-1.2501,-1.2501,-1.2501,-1.2501,-1.2501,-1.2501,-1.2501,-1.2501,-1.2501,-1.2501,-1.3221,-1.3529,-1.2656,-1.2501,-1.2501,-1.2501,-1.2433,-1.2352,-1.2302,-1.2179,-1.2098,-1.2098,-1.2098,-1.2125,-1.2193,-1.22,-1.2227,-1.2288,-1.2295,-1.2291,-1.2379,-1.2386,-1.242,-1.2501,-1.2501,-1.2501,-1.2501,-1.2501,-1.2501,-1.2501,-1.2501,-1.2583,-0.9842,-1.0195,-1.0514,-1.0493,-1.046,-1.0188,-0.9219,-0.809,-0.6906,-0.5849,-0.5523,-0.5441,-0.5471,-0.6632,-0.7877,-0.8737,0.0,-1.0374,-1.1091,-1.1329,-1.1396,-1.1416,-1.1552,-1.1647,-1.1647,-1.1898,-1.2166,-1.2277,-1.2207,-1.2193,-1.2311,-1.2433,-1.2501,-1.2501,-1.2501,-1.2501,-1.2501,-1.2501,-1.2501,-1.2501,-1.2501,-1.2501,-1.2501,-1.2501,-1.2501,-1.2501,0.0,0.0,-1.2501,-1.2501,-1.2501,-1.2501,-1.2501,-1.2501,-1.2501,-1.2501,-1.2501,-1.2501,-1.2501,-1.2501,-1.2501,-1.2501,-1.2501,-1.2501,-1.2501,-1.2501,-1.2501,-1.2501,-1.2501,-1.2501,-1.2501,-1.2501,-1.2501,-1.2501,-1.2501,-1.2501,-1.2501,-1.2501,-1.2501,-1.2501,-1.3907,-1.4552,-1.2804,-1.2501,-1.2501,-1.2501,-1.2501,-1.2501,-1.2501,-1.2315,-1.2159,-1.2159,-1.2159,-1.2213,-1.2305,-1.2318,-1.2372,-1.2494,-1.2501,-1.2501,-1.2501,-1.2501,-1.2501,-1.2501,-1.2501,-1.2501,-1.2501,-1.2501,-1.2515,-1.2528,-1.2528,-1.2617,-1.0161,-1.0432,-1.0649,-1.0521,-1.0342,-0.941,-0.6551,-0.5522,-0.4434,-0.1696,-0.1864,-0.2773,-0.3583,-0.5282,-0.7043,-0.8488,-0.9512,-1.0374,-1.1091,-1.1329,-1.1436,0.0,-1.1671,0.0,0.0,0.0,0.0,0.0,0.0,-1.2311,-1.2461,-1.2488,-1.2501,-1.2501,-1.2501,-1.2501,-1.2501,-1.2501,-1.2501,-1.2501,-1.2501,-1.2501,-1.2501,-1.2501,-1.2501,-1.2501,-1.2501,0.0,-1.2501,-1.2501,-1.2501,-1.2501,-1.2501,-1.2501,-1.2501,-1.2501,-1.2501,-1.2501,-1.2501,-1.2501,-1.2501,-1.2501,-1.2501,-1.2501,-1.2501,-1.2501,-1.2501,-1.2501,-1.2501,-1.2501,-1.2501,-1.2501,-1.2501,-1.2501,-1.2501,-1.2501,-1.2501,-1.2501,-1.2501,-1.2501,-1.2765,-1.2919,-1.2579,-1.2501,-1.2501,-1.2501,-1.2501,-1.2501,-1.2501,-1.2461,-1.2427,-1.2427,-1.2427,-1.2433,-1.2461,-1.2467,-1.2474,-1.2501,-1.2501,-1.2501,-1.2501,-1.2501,-1.2501,-1.2501,-1.2501,-1.2501,-1.2501,-1.2501,-1.2569,-1.2652,-1.2652,-1.2773,-1.0236,-1.0493,-1.0683,-1.0527,-0.9691,-0.8403,-0.6473,-0.4763,-0.3048,-0.1302,-0.1349,-0.185,-0.2333,-0.4341,-0.6277,-0.7294,-0.8602,-0.9788,-1.0723,-1.0948,0.0,-1.1572,-1.1816,0.0,0.0,0.0,0.0,0.0,0.0,-1.2427,-1.2501,-1.2501,-1.2501,-1.2501,-1.2501,-1.2501,-1.2501,-1.2501,-1.2501,-1.2501,-1.2501,-1.2501,-1.2501,-1.2501,-1.2501,-1.2501,-1.2501,0.0,-1.2501,-1.2501,-1.2501,-1.2501,-1.2501,-1.2501,-1.2501,-1.2501,-1.2556,-1.2584,-1.2584,-1.2671,-1.2778,-1.2778,-1.263,-1.2501,-1.2501,-1.2501,-1.2501,-1.2501,-1.2501,-1.2501,-1.2501,-1.2501,-1.2501,-1.2501,-1.2501,-1.2501,-1.2501,-1.3337,-1.376,-1.2695,-1.3337,-1.3714,-1.2695,-1.2501,-1.2501,-1.2501,-1.2501,-1.2501,-1.2501,-1.2501,-1.2501,-1.2501,-1.2501,-1.2501,-1.2501,-1.2501,-1.2501,-1.2501,-1.2501,-1.2501,-1.2501,-1.2501,-1.2501,-1.2501,-1.2501,-1.2542,-1.2584,-1.2584,-1.2698,-1.2854,-1.2854,-1.2969,-1.0229,-1.0446,-1.0595,-1.0473,-0.9091,-0.7505,-0.6662,-0.4375,-0.2247,-0.1556,-0.1327,-0.1336,-0.1603,-0.3392,-0.515,-0.6171,-0.7545,-0.8933,-1.0265,-1.0602,-1.0901,0.0,-1.1864,0.0,0.0,0.0,0.0,0.0,0.0,0.0,-1.2501,-1.2501,-1.2501,-1.2501,-1.2501,-1.2501,-1.2501,-1.2501,-1.2501,-1.2501,-1.2501,-1.2501,-1.2501,-1.2501,-1.2501,-1.2501,-1.2501,0.0,0.0,-1.2501,-1.2501,-1.2501,-1.2501,-1.2501,-1.2508,-1.2535,-1.2623,-1.2693,-1.2766,-1.2861,-1.3003,-1.3003,-1.2773,-1.2549,-1.2549,-1.2528,-1.2501,-1.2501,-1.2501,-1.2501,-1.2501,-1.2501,-1.2501,-1.2501,-1.2501,-1.2501,-1.2501,-1.376,-1.4406,-1.2804,-1.3791,-1.4368,-1.2765,-1.2501,-1.2501,-1.2501,-1.2501,-1.2501,-1.2501,-1.2501,-1.2501,-1.2501,-1.2501,-1.2501,-1.2501,-1.2501,-1.2501,-1.2501,-1.2501,-1.2501,-1.2501,-1.2535,-1.2549,-1.2549,-1.2583,-1.2657,-1.2779,-1.2779,-1.2861,-1.305,-1.305,-1.3146,-1.0202,-1.0329,-1.0317,-1.0335,-0.8879,-0.7015,-0.5448,-0.3602,-0.1828,-0.0441,-0.0154,-0.0477,-0.1577,-0.2079,-0.3247,-0.6027,-0.6824,-0.7854,-1.0009,-1.0541,-1.0894,-1.1355,0.0,0.0,0.0,0.0,0.0,0.0,0.0,0.0,-1.2501,-1.2501,-1.2501,-1.2501,-1.2501,-1.2501,-1.2501,-1.2501,-1.2501,-1.2501,-1.2501,-1.2501,-1.2501,-1.2501,-1.2501,-1.2501,-1.2501,0.0,0.0,-1.2501,-1.2501,-1.2501,-1.2501,-1.2501,-1.2522,-1.2657,-1.2679,-1.2752,-1.2895,-1.2989,-1.3003,-1.3003,-1.2847,-1.2672,-1.2672,-1.261,-1.2501,-1.2501,-1.2501,-1.2501,-1.2501,-1.2501,-1.2501,-1.2501,-1.2501,-1.2501,-1.2501,-1.2656,-1.2733,-1.254,-1.2656,-1.2733,-1.254,-1.2501,-1.2501,-1.2501,-1.2501,-1.2501,-1.2501,-1.2501,-1.2501,-1.2501,-1.2501,-1.2501,-1.2501,-1.2501,-1.2501,-1.2501,-1.2501,-1.2501,-1.2501,-1.2637,-1.2672,-1.2672,-1.2847,-1.2969,-1.2982,-1.2982,-1.3057,-1.3193,-1.3193,-1.3308,-0.9924,-1.0141,-1.0236,-1.0053,-0.7993,-0.5797,-0.4975,-0.2764,-0.0706,-0.0115,0.0,-0.0146,-0.0635,-0.1346,-0.2532,-0.456,-0.5584,-0.6884,-0.9036,-0.9487,-0.9947,-1.088,0.0,0.0,0.0,0.0,0.0,0.0,0.0,0.0,-1.2501,-1.2501,-1.2501,-1.2501,-1.2501,-1.2501,-1.2501,-1.2501,-1.2501,-1.2501,-1.2501,-1.2501,-1.2501,-1.2501,-1.2501,-1.2501,-1.2501,0.0,0.0,-1.2501,-1.2501,-1.2501,-1.2501,-1.2501,-1.2522,-1.2632,-1.2786,-1.2888,-1.3077,-1.3193,-1.3227,-1.3227,-1.3125,-1.2983,-1.2895,-1.2827,-1.2819,-1.2819,-1.2819,-1.2819,-1.2819,-1.2819,-1.2752,-1.2664,-1.2712,-1.2764,-1.2542,-1.2576,-1.261,-1.2522,-1.2501,-1.2501,-1.2501,-1.2501,-1.2501,-1.2501,-1.2501,-1.2501,-1.2501,-1.2501,-1.2501,-1.2501,-1.2501,-1.2501,-1.2501,-1.2501,-1.2542,-1.263,-1.2637,-1.2684,-1.2812,-1.2834,-1.2868,-1.2868,-1.2969,-1.3043,-1.3125,-1.3125,-1.3207,-1.3315,-1.3403,-1.3512,-0.8813,-0.8861,-0.8661,-0.8453,-0.6357,-0.4278,-0.4089,-0.1948,0.0,0.0,0.0,0.0,0.0,-0.0702,-0.1824,-0.3528,-0.4581,-0.6004,-0.8382,-0.8892,-0.9399,0.0,0.0,0.0,0.0,0.0,0.0,0.0,0.0,0.0,0.0,-1.2501,-1.2501,-1.2501,-1.2501,-1.2501,-1.2501,-1.2501,-1.2501,-1.2501,-1.2501,-1.2501,-1.2501,-1.2501,-1.2501,-1.2501,0.0,0.0,0.0,-1.2501,-1.2501,-1.2501,-1.2501,-1.2501,-1.2528,-1.2725,-1.2868,-1.303,-1.3214,-1.3308,-1.3403,-1.3403,-1.3329,-1.322,-1.3159,-1.3071,-1.3003,-1.3003,-1.3003,-1.3003,-1.3003,-1.3003,-1.2975,-1.2827,-1.2881,-1.2941,-1.2684,-1.2725,-1.2766,-1.2657,-1.2637,-1.2637,-1.2637,-1.2637,-1.2637,-1.2637,-1.2637,-1.2637,-1.2637,-1.2637,-1.2637,-1.2637,-1.2637,-1.2617,-1.2576,-1.261,-1.2684,-1.2793,-1.28,-1.2847,-1.2996,-1.3043,-1.3064,-1.3064,-1.3111,-1.3139,-1.3241,-1.3288,-1.3363,-1.3471,-1.3578,-1.3673,-0.668,-0.6069,-0.4976,-0.5115,-0.3836,-0.2516,-0.2514,-0.1225,0.0,0.0,0.0,0.0,0.0,-0.0019,-0.0843,-0.3379,-0.4032,-0.5255,-0.8289,-0.9096,-0.9544,0.0,0.0,0.0,0.0,0.0,0.0,0.0,0.0,0.0,0.0,-1.2501,-1.2501,-1.2501,-1.2501,-1.2501,-1.2501,-1.2501,-1.2501,-1.2501,-1.2501,-1.2501,-1.2501,-1.2501,-1.2501,0.0,0.0,0.0,0.0,-1.2501,-1.2501,-1.2501,-1.2501,-1.2501,-1.2542,-1.2887,-1.3003,-1.3043,-1.3295,-1.3397,-1.3403,-1.3403,-1.3397,-1.3397,-1.3397,-1.3193,-1.3003,-1.3003,-1.3003,-1.3003,-1.3003,-1.3003,-1.3003,-1.3003,-1.3003,-1.3003,-1.2996,-1.2996,-1.2996,-1.2996,-1.2996,-1.2996,-1.2996,-1.2996,-1.2996,-1.2996,-1.2996,-1.2996,-1.2996,-1.2996,-1.2996,-1.2996,-1.2996,-1.2895,-1.2699,-1.2868,-1.2996,-1.3003,-1.3003,-1.3003,-1.3003,-1.3139,-1.3214,-1.3214,-1.3315,-1.3397,-1.3397,-1.3553,-1.3585,-1.3592,-1.3727,-1.3919,-0.5288,-0.5177,-0.4886,-0.4827,-0.3654,-0.2458,-0.2323,-0.1109,0.0,0.0,0.0,0.0,0.0,0.0,-0.0534,-0.2159,-0.3355,-0.4705,-0.6581,0.0,0.0,0.0,0.0,0.0,0.0,0.0,0.0,0.0,0.0,0.0,0.0,-1.2501,-1.2501,-1.2501,-1.2501,-1.2501,-1.2501,-1.2501,-1.2501,-1.2501,-1.2501,-1.2501,-1.2501,-1.2501,0.0,0.0,0.0,0.0,0.0,-1.2501,-1.2501,-1.2501,-1.2501,-1.2562,-1.2684,-1.2928,-1.3064,-1.3173,-1.3336,-1.3403,-1.3403,-1.3403,-1.3403,-1.3403,-1.3403,-1.3336,-1.3261,-1.3261,-1.3261,-1.3261,-1.3261,-1.3261,-1.3234,-1.3173,-1.3227,-1.3207,-1.3043,-1.3077,-1.3118,-1.3023,-1.3003,-1.3003,-1.3003,-1.3003,-1.3003,-1.3003,-1.3003,-1.3003,-1.3003,-1.3003,-1.3003,-1.3003,-1.3091,-1.3084,-1.2901,-1.2975,-1.3043,-1.3139,-1.3146,-1.3193,-1.3254,-1.3302,-1.3329,-1.3329,-1.3478,-1.3559,-1.3559,-1.366,-1.3831,-1.3933,-1.398,-1.4082,-0.3531,-0.338,-0.3025,-0.2955,-0.2237,-0.1526,-0.1397,-0.0653,0.0,0.0,0.0,0.0,0.0,-0.0335,-0.0858,-0.166,-0.2946,-0.4372,-0.5907,0.0,0.0,0.0,0.0,0.0,0.0,0.0,0.0,0.0,0.0,0.0,0.0,-1.2501,-1.2501,-1.2501,-1.2501,-1.2501,-1.2501,-1.2501,-1.2501,-1.2501,-1.2501,-1.2501,-1.2501,-1.2501,0.0,0.0,0.0,0.0,0.0,-1.2501,-1.2501,-1.2501,-1.2501,-1.2596,-1.2713,-1.2941,-1.3091,-1.3234,-1.3349,-1.3403,-1.3403,-1.3403,-1.3403,-1.3403,-1.3403,-1.3403,-1.3403,-1.3403,-1.3403,-1.3403,-1.3403,-1.3403,-1.3376,-1.3281,-1.3336,-1.3349,-1.3207,-1.3241,-1.3234,-1.3186,-1.3166,-1.3166,-1.3166,-1.3166,-1.3166,-1.3166,-1.3166,-1.3166,-1.3166,-1.3166,-1.3166,-1.3166,-1.3248,-1.322,-1.3173,-1.3166,-1.3207,-1.3254,-1.3302,-1.3329,-1.3478,-1.3485,-1.3512,-1.3566,-1.3619,-1.3666,-1.3666,-1.3858,-1.4007,-1.42,-1.42,-1.4238,0.0,-0.0954,0.0,0.0,0.0,0.0,0.0,0.0,0.0,0.0,0.0,0.0,0.0,-0.0875,-0.1615,-0.1668,-0.2846,-0.4329,0.0,-0.6749,0.0,0.0,0.0,0.0,0.0,0.0,0.0,0.0,0.0,0.0,0.0,-1.2501,-1.2501,-1.2501,-1.2501,-1.2501,-1.2501,-1.2501,-1.2501,-1.2501,-1.2501,-1.2501,-1.2501,-1.2501,0.0,0.0,0.0,0.0,0.0,-1.2501,-1.2501,-1.2501,-1.2501,-1.2603,-1.2726,-1.2948,-1.3098,-1.3248,-1.3349,-1.3403,-1.3403,-1.3403,-1.3403,-1.3403,-1.3403,-1.3403,-1.3403,-1.3403,-1.3403,-1.3403,-1.3403,-1.3403,-1.3403,-1.3403,-1.3403,-1.3403,-1.3403,-1.3403,-1.3403,-1.3403,-1.3403,-1.3403,-1.3403,-1.3403,-1.3403,-1.3403,-1.3403,-1.3403,-1.3403,-1.3403,-1.3403,-1.3403,-1.341,-1.3417,-1.3417,-1.341,-1.3403,-1.3417,-1.3417,-1.3485,-1.3599,-1.3605,-1.3666,-1.3795,-1.3808,-1.3822,-1.3829,-1.4021,-1.4163,-1.4319,-1.4319,-1.4394,-0.0394,0.0,0.0,0.0,0.0,0.0,0.0,0.0,0.0,0.0,0.0,0.0,0.0,-0.0877,-0.1346,-0.0541,-0.3245,-0.5303,-0.4974,0.0,0.0,0.0,0.0,0.0,0.0,0.0,0.0,0.0,0.0,0.0,0.0,-1.2501,-1.2501,-1.2501,-1.2501,-1.2501,-1.2501,-1.2501,-1.2501,-1.2501,-1.2501,-1.2501,-1.2501,-1.2501,0.0,0.0,0.0,0.0,-1.2501,-1.2501,-1.2501,-1.2501,-1.2501,-1.2671,-1.2948,-1.2989,-1.3166,-1.3349,-1.339,-1.3403,-1.3403,-1.3403,-1.3403,-1.3403,-1.3403,-1.3403,-1.3403,-1.3403,-1.3403,-1.3403,-1.3403,-1.3403,-1.3403,-1.3403,-1.3403,-1.3403,-1.3403,-1.3403,-1.3403,-1.3403,-1.3403,-1.3403,-1.3403,-1.3403,-1.3403,-1.3403,-1.3403,-1.3403,-1.3403,-1.3403,-1.3403,-1.3403,-1.3505,-1.3531,-1.3531,-1.3464,-1.3451,-1.3566,-1.3531,-1.3599,-1.3741,-1.3747,-1.3761,-1.3795,-1.3953,-1.4075,-1.419,-1.4231,-1.4319,-1.4462,-1.4462,-1.4498,0.0,0.0,0.0,0.0,0.0,0.0,0.0,0.0,0.0,0.0,0.0,0.0,0.0,-0.1378,-0.2164,-0.1101,-0.3735,0.0,0.0,0.0,0.0,0.0,0.0,0.0,0.0,0.0,0.0,0.0,0.0,0.0,0.0,-1.2501,-1.2501,-1.2501,-1.2501,-1.2501,-1.2501,-1.2501,-1.2501,-1.2501,-1.2501,-1.2501,-1.2501,-1.2501,-1.2501,0.0,0.0,0.0,-1.2501,-1.2501,-1.2501,-1.2501,-1.2501,-1.2691,-1.3003,-1.3003,-1.3186,-1.3403,-1.3403,-1.3403,-1.3403,-1.3403,-1.3403,-1.3403,-1.3403,-1.3403,-1.3403,-1.3403,-1.3403,-1.3403,-1.3403,-1.3403,-1.3403,-1.3403,-1.3403,-1.3403,-1.3403,-1.3403,-1.3403,-1.3403,-1.3403,-1.3424,-1.3492,-1.3505,-1.3526,-1.3551,-1.3558,-1.3558,-1.3558,-1.3558,-1.3558,-1.3558,-1.3632,-1.3687,-1.3687,-1.3648,-1.3599,-1.368,-1.3687,-1.3747,-1.3939,-1.3946,-1.398,-1.4048,-1.4136,-1.4251,-1.4394,-1.4394,-1.4475,-1.4572,-1.4572,-1.4699,0.0,-0.015,-0.0306,-0.0247,-0.0244,-0.024,-0.0235,-0.0241,-0.0193,-0.0034,-0.0139,-0.0289,-0.0306,-0.2272,-0.3565,-0.2542,0.0,0.0,0.0,0.0,0.0,0.0,0.0,0.0,0.0,0.0,0.0,0.0,0.0,0.0,0.0,-1.2501,-1.2501,-1.2501,-1.2501,-1.2501,-1.2501,-1.2501,-1.2501,-1.2501,-1.2501,-1.2501,-1.2501,-1.2501,-1.2501,0.0,0.0,0.0,-1.2501,-1.2501,-1.2501,-1.2501,-1.2501,-1.2691,-1.3003,-1.3003,-1.3186,-1.3403,-1.3403,-1.3403,-1.3403,-1.3403,-1.3403,-1.3403,-1.3403,-1.3403,-1.3403,-1.3403,-1.3403,-1.3403,-1.3403,-1.3403,-1.3403,-1.3403,-1.3403,-1.3403,-1.3403,-1.3417,-1.3437,-1.3437,-1.3451,-1.3512,-1.3599,-1.3619,-1.366,-1.3781,-1.3795,-1.3795,-1.3795,-1.3795,-1.3795,-1.3795,-1.3822,-1.3835,-1.3835,-1.3856,-1.3869,-1.3869,-1.3842,-1.3946,-1.4102,-1.4153,-1.4177,-1.4333,-1.4333,-1.4401,-1.455,-1.455,-1.4579,-1.4728,-1.4728,-1.4855,0.0,-0.0835,-0.164,-0.1417,-0.1359,-0.1355,-0.135,-0.1353,-0.1102,-0.018,-0.0808,-0.1556,-0.1675,-0.367,-0.5029,0.0,0.0,0.0,0.0,0.0,0.0,0.0,0.0,0.0,0.0,0.0,0.0,0.0,0.0,0.0,0.0,-1.2501,-1.2501,-1.2501,-1.2501,-1.2501,-1.2501,-1.2501,-1.2501,-1.2501,-1.2501,-1.2501,-1.2501,-1.2501,-1.2501,0.0,0.0,-1.2501,-1.2501,-1.2501,-1.2501,-1.2501,-1.2501,-1.2691,-1.3003,-1.3003,-1.3186,-1.3403,-1.3403,-1.3403,-1.3403,-1.3403,-1.3403,-1.3403,-1.3403,-1.3403,-1.3403,-1.3403,-1.3403,-1.3403,-1.3403,-1.3403,-1.3403,-1.3403,-1.3403,-1.3403,-1.3403,-1.3505,-1.3551,-1.3551,-1.3646,-1.3741,-1.3761,-1.3768,-1.3774,-1.3795,-1.3795,-1.3795,-1.3795,-1.3795,-1.3795,-1.3795,-1.396,-1.4034,-1.4034,-1.4156,-1.4231,-1.4231,-1.4109,-1.4102,-1.4258,-1.4265,-1.4333,-1.4475,-1.4482,-1.4557,-1.466,-1.466,-1.4787,-1.4936,-1.4936,-1.5011,-0.058,-0.1229,-0.2063,-0.3203,-0.32,-0.2902,-0.2902,-0.2905,-0.275,-0.226,-0.2604,-0.3003,-0.3076,-0.4726,-0.6325,-0.7029,0.0,0.0,0.0,0.0,0.0,0.0,0.0,0.0,0.0,0.0,0.0,0.0,0.0,0.0,0.0,0.0,-1.2501,-1.2501,-1.2501,-1.2501,-1.2501,-1.2501,-1.2501,-1.2501,-1.2501,-1.2501,-1.2501,-1.2501,-1.2501,-1.2501,0.0,-1.2501,-1.2501,-1.2501,-1.2501,-1.2508,-1.2589,-1.2766,-1.3023,-1.3139,-1.3281,-1.3403,-1.3403,-1.3403,-1.3403,-1.3403,-1.3403,-1.3403,-1.3403,-1.3403,-1.3403,-1.3403,-1.3403,-1.3403,-1.3403,-1.3403,-1.3424,-1.3505,-1.3526,-1.3546,-1.3578,-1.3653,-1.37,-1.37,-1.3754,-1.3822,-1.3953,-1.3966,-1.3994,-1.4075,-1.4089,-1.4089,-1.4089,-1.4089,-1.4089,-1.4089,-1.415,-1.4197,-1.4197,-1.4333,-1.438,-1.4306,-1.4231,-1.4265,-1.4407,-1.4414,-1.4482,-1.4586,-1.4586,-1.4713,-1.4862,-1.4862,-1.4943,-1.5132,-1.5132,-1.5167,-0.1058,-0.1675,-0.2543,-0.4562,-0.4599,-0.4218,-0.4414,-0.4389,-0.4299,-0.4149,-0.4345,-0.4549,-0.4576,-0.5993,0.0,-0.9292,0.0,0.0,0.0,0.0,0.0,0.0,0.0,0.0,0.0,0.0,0.0,0.0,0.0,0.0,0.0,0.0,-1.2501,-1.2501,-1.2501,-1.2501,-1.2501,-1.2501,-1.2501,-1.2501,-1.2501,-1.2501,-1.2501,-1.2501,-1.2501,-1.2501,-1.2501,-1.2501,-1.2501,-1.2501,-1.2501,-1.2515,-1.2632,-1.2847,-1.3084,-1.3302,-1.3403,-1.3403,-1.3403,-1.3403,-1.3403,-1.3403,-1.3403,-1.3403,-1.3403,-1.3403,-1.341,-1.3444,-1.3451,-1.3451,-1.3451,-1.3451,-1.3492,-1.3599,-1.3639,-1.3666,-1.3774,-1.3829,-1.3849,-1.3849,-1.3883,-1.3987,-1.4102,-1.4166,-1.4163,-1.4285,-1.4299,-1.4299,-1.4299,-1.4299,-1.4312,-1.4346,-1.4346,-1.4367,-1.4401,-1.4502,-1.4516,-1.4407,-1.4401,-1.4448,-1.4563,-1.4563,-1.4638,-1.4794,-1.4748,-1.4869,-1.5064,-1.5064,-1.5126,-1.5181,-1.5221,-1.5296,-0.1066,-0.2352,-0.3687,-0.4678,-0.4772,-0.4861,-0.5662,-0.5572,-0.5131,-0.4579,-0.5351,-0.6163,-0.63,-0.7896,-0.9354,-0.9862,0.0,0.0,0.0,0.0,0.0,0.0,0.0,0.0,0.0,0.0,0.0,0.0,0.0,0.0,0.0,0.0,0.0,-1.2501,-1.2501,-1.2501,-1.2501,-1.2501,-1.2501,-1.2501,-1.2501,-1.2501,-1.2501,-1.2501,-1.2501,-1.2501,-1.2501,-1.2501,-1.2501,-1.2501,-1.2501,-1.2515,-1.2632,-1.2908,-1.322,-1.3342,-1.3403,-1.3403,-1.3403,-1.3403,-1.3403,-1.3403,-1.3403,-1.3403,-1.3403,-1.3403,-1.3431,-1.3531,-1.3572,-1.3572,-1.3572,-1.3572,-1.3605,-1.3747,-1.3781,-1.3788,-1.3795,-1.3953,-1.4098,-1.4098,-1.417,-1.4272,-1.4285,-1.4285,-1.4285,-1.4299,-1.4299,-1.4299,-1.4299,-1.4299,-1.4353,-1.4482,-1.4496,-1.4557,-1.4654,-1.4674,-1.4674,-1.466,-1.466,-1.4667,-1.4674,-1.4681,-1.4794,-1.495,-1.5003,-1.5071,-1.5167,-1.5167,-1.5174,-1.5187,-1.533,-1.5398,-0.1921,-0.3264,-0.4688,-0.5849,-0.6254,-0.6526,-0.711,-0.7359,-0.7447,-0.7422,-0.7796,-0.8119,-0.817,0.0,-0.9673,0.0,0.0,0.0,0.0,0.0,0.0,0.0,0.0,0.0,0.0,0.0,0.0,0.0,0.0,0.0,0.0,0.0,0.0,-1.2501,-1.2501,-1.2501,-1.2501,-1.2501,-1.2501,-1.2501,-1.2501,-1.2501,-1.2501,-1.2501,-1.2501,-1.2501,-1.2501,-1.2501,-1.2501,-1.2501,-1.2501,-1.2528,-1.2779,-1.3051,-1.3322,-1.3376,-1.3403,-1.3403,-1.3403,-1.3403,-1.3403,-1.3403,-1.3403,-1.3403,-1.3403,-1.3464,-1.3511,-1.3572,-1.3653,-1.372,-1.372,-1.372,-1.3754,-1.3946,-1.3987,-1.4014,-1.4109,-1.417,-1.4211,-1.4211,-1.4258,-1.4299,-1.4299,-1.4299,-1.4333,-1.4421,-1.4434,-1.4468,-1.4563,-1.4525,-1.4545,-1.4606,-1.4606,-1.4713,-1.4869,-1.4882,-1.4923,-1.5011,-1.4841,-1.478,-1.4882,-1.4882,-1.495,-1.5099,-1.5106,-1.5126,-1.5181,-1.5276,-1.5323,-1.533,-1.5479,-1.5601,-0.267,-0.3831,-0.5221,-0.6505,-0.7115,-0.7539,-0.8033,-0.8426,-0.8825,-0.9247,-0.9288,-0.9267,-0.9315,-0.9503,0.0,0.0,0.0,0.0,0.0,0.0,0.0,0.0,0.0,0.0,0.0,0.0,0.0,0.0,0.0,0.0,0.0,0.0,0.0,0.0,-1.2501,-1.2501,-1.2501,-1.2501,-1.2501,-1.2501,-1.2501,-1.2501,-1.2501,-1.2501,-1.2501,-1.2501,-1.2501,-1.2501,-1.2501,-1.2501,-1.2556,-1.2671,-1.2921,-1.3139,-1.3403,-1.3403,-1.3403,-1.3403,-1.3403,-1.3403,-1.3403,-1.3403,-1.3403,-1.3403,-1.3403,-1.3505,-1.3599,-1.3639,-1.3754,-1.3883,-1.393,-1.3953,-1.3953,-1.4109,-1.4143,-1.417,-1.4278,-1.4299,-1.4299,-1.4299,-1.4299,-1.4299,-1.4299,-1.434,-1.4401,-1.4496,-1.455,-1.4624,-1.4681,-1.4694,-1.4714,-1.4808,-1.4809,-1.4923,-1.5031,-1.5038,-1.5079,-1.5174,-1.4991,-1.493,-1.5078,-1.5038,-1.5132,-1.5181,-1.5181,-1.5208,-1.5255,-1.5357,-1.5438,-1.5486,-1.5635,-1.5757,-0.3169,-0.3993,-0.5199,-0.6401,-0.7069,-0.76,-0.8349,-0.8608,-0.8893,-0.9496,-0.9496,-0.9435,-0.9585,-0.9704,0.0,0.0,0.0,0.0,0.0,0.0,0.0,0.0,0.0,0.0,0.0,0.0,0.0,0.0,0.0,0.0,0.0,0.0,0.0,0.0,-1.2501,-1.2501,-1.2501,-1.2501,-1.2501,-1.2501,-1.2501,-1.2501,-1.2501,-1.2501,-1.2501,-1.2501,-1.2501,-1.2501,-1.2501,-1.2501,-1.2684,-1.3003,-1.3003,-1.3139,-1.3403,-1.3403,-1.3403,-1.3403,-1.3403,-1.3403,-1.3403,-1.3403,-1.3403,-1.3403,-1.3403,-1.3505,-1.3619,-1.3761,-1.3953,-1.4109,-1.4265,-1.419,-1.4159,-1.4265,-1.4299,-1.4299,-1.4299,-1.4299,-1.4299,-1.4299,-1.4299,-1.4299,-1.4299,-1.4421,-1.4516,-1.4516,-1.4599,-1.4694,-1.4694,-1.4694,-1.4801,-1.5003,-1.5099,-1.5181,-1.5181,-1.5181,-1.5181,-1.5181,-1.5181,-1.5181,-1.5181,-1.5181,-1.5181,-1.5181,-1.5181,-1.5262,-1.5411,-1.5411,-1.5493,-1.5593,-1.5791,-1.5901,-0.3935,-0.4988,-0.6305,-0.6847,-0.7641,-0.8452,-0.9022,-0.9232,-0.951,-1.0107,-1.0114,-0.9992,-0.99,-1.0127,0.0,0.0,0.0,0.0,0.0,0.0,0.0,0.0,0.0,0.0,0.0,0.0,0.0,0.0,0.0,0.0,0.0,0.0,0.0,0.0,-1.2501,-1.2501,-1.2501,-1.2501,-1.2501,-1.2501,-1.2501,-1.2501,-1.2501,-1.2501,-1.2501,-1.2501,-1.2501,-1.2501,-1.2501,-1.2501,-1.2684,-1.3003,-1.3003,-1.3139,-1.3403,-1.3403,-1.3403,-1.3403,-1.3403,-1.3403,-1.3403,-1.3403,-1.3403,-1.3403,-1.3403,-1.358,-1.3741,-1.3788,-1.4027,-1.4245,-1.4285,-1.4265,-1.4245,-1.4292,-1.4299,-1.4299,-1.4299,-1.4299,-1.4299,-1.4299,-1.4299,-1.4333,-1.4434,-1.4482,-1.4584,-1.4801,-1.4875,-1.4936,-1.5038,-1.5052,-1.5072,-1.5113,-1.516,-1.5181,-1.5181,-1.5181,-1.5181,-1.5181,-1.5181,-1.5181,-1.5181,-1.5181,-1.5181,-1.5181,-1.5289,-1.5364,-1.5411,-1.5622,-1.5792,-1.5791,-1.5996,-1.6064,-0.4844,-0.5837,-0.7068,-0.7482,-0.8153,-0.8893,-0.9585,-0.9856,-1.008,-1.0493,-1.0419,-1.027,-1.0197,-1.0371,0.0,0.0,0.0,0.0,0.0,0.0,0.0,0.0,0.0,0.0,0.0,0.0,0.0,0.0,0.0,0.0,0.0,0.0,0.0,0.0,-1.2501,-1.2501,-1.2501,-1.2501,-1.2501,-1.2501,-1.2501,-1.2501,-1.2501,-1.2501,-1.2501,-1.2501,-1.2501,-1.2501,-1.2501,-1.2501,-1.2684,-1.3003,-1.3003,-1.3139,-1.3403,-1.3403,-1.3403,-1.3403,-1.3403,-1.3403,-1.3403,-1.3403,-1.3403,-1.3403,-1.3403,-1.3607,-1.3795,-1.3795,-1.4018,-1.4299,-1.4299,-1.4299,-1.4299,-1.4299,-1.4299,-1.4299,-1.4299,-1.4299,-1.4299,-1.4299,-1.4346,-1.4414,-1.4496,-1.4611,-1.476,-1.4989,-1.5064,-1.5132,-1.5174,-1.5181,-1.5181,-1.5181,-1.5181,-1.5181,-1.5181,-1.5242,-1.5276,-1.5276,-1.533,-1.5364,-1.5364,-1.5303,-1.5303,-1.5364,-1.5452,-1.5527,-1.5588,-1.5813,-1.5935,-1.5996,-1.6042,-1.6083,-0.5793,-0.652,-0.7546,-0.8165,-0.856,-0.9089,-1.0073,-1.0412,-1.0555,-1.0657,-1.0507,-1.0358,-1.0487,-1.0534,0.0,0.0,0.0,0.0,0.0,0.0,0.0,0.0,0.0,0.0,0.0,0.0,0.0,0.0,0.0,0.0,0.0,0.0,0.0,-1.2501,-1.2501,-1.2501,-1.2501,-1.2501,-1.2501,0.0,-1.2501,-1.2501,-1.2501,-1.2501,-1.2501,-1.2501,-1.2501,-1.2501,-1.2501,-1.2501,-1.2684,-1.3003,-1.3003,-1.3139,-1.3403,-1.3403,-1.3403,-1.3403,-1.3403,-1.3403,-1.3403,-1.3403,-1.3403,-1.3403,-1.3417,-1.362,-1.3802,-1.3815,-1.4075,-1.4299,-1.4299,-1.4299,-1.4299,-1.4299,-1.4299,-1.4299,-1.4299,-1.4299,-1.4306,-1.4319,-1.4421,-1.4523,-1.455,-1.4787,-1.5023,-1.5037,-1.5099,-1.5181,-1.5181,-1.5181,-1.5181,-1.5181,-1.5194,-1.5201,-1.5201,-1.5343,-1.5432,-1.5432,-1.5512,-1.5593,-1.5607,-1.5513,-1.5499,-1.5587,-1.56,-1.5723,-1.5901,-1.5915,-1.5996,-1.6083,-1.6083,-1.6083,-0.6257,-0.6852,-0.7566,-0.8281,-0.9103,-0.9852,-1.0344,-1.0561,-1.0677,-1.0677,-1.0637,-1.0636,-1.0663,0.0,0.0,0.0,0.0,0.0,0.0,0.0,0.0,0.0,0.0,0.0,0.0,0.0,0.0,0.0,0.0,0.0,0.0,0.0,0.0,-1.2501,-1.2501,-1.2501,-1.2501,-1.2501,-1.2501,0.0,-1.2501,-1.2501,-1.2501,-1.2501,-1.2501,-1.2501,-1.2501,-1.2501,-1.2501,-1.2501,-1.2684,-1.3003,-1.3003,-1.3139,-1.3403,-1.3403,-1.3403,-1.3403,-1.3403,-1.3403,-1.3403,-1.3403,-1.3403,-1.3424,-1.3546,-1.366,-1.3822,-1.3987,-1.4156,-1.4299,-1.4299,-1.4299,-1.4299,-1.4299,-1.4299,-1.4299,-1.4299,-1.4299,-1.4333,-1.4441,-1.4489,-1.459,-1.4835,-1.4976,-1.5057,-1.512,-1.516,-1.5181,-1.5181,-1.5181,-1.5181,-1.5181,-1.5289,-1.5364,-1.5364,-1.5499,-1.5539,-1.5539,-1.5573,-1.5689,-1.5854,-1.5669,-1.556,-1.5593,-1.575,-1.5874,-1.5901,-1.6024,-1.6049,-1.6083,-1.6083,-1.6083,-0.6743,-0.7308,-0.7902,-0.8798,-0.9598,-1.0215,-1.0439,-1.0609,-1.0684,-1.0684,-1.0684,-1.0684,0.0,0.0,0.0,0.0,0.0,0.0,0.0,0.0,0.0,0.0,0.0,0.0,0.0,0.0,0.0,0.0,0.0,0.0,0.0,-1.2501,-1.2501,-1.2501,-1.2501,-1.2501,-1.2501,-1.2501,-1.2501,-1.2501,-1.2501,-1.2501,-1.2501,-1.2501,-1.2501,-1.2501,-1.2501,-1.2501,-1.2501,-1.2501,-1.2684,-1.3003,-1.3003,-1.3139,-1.3403,-1.3403,-1.3403,-1.3403,-1.3403,-1.3403,-1.3403,-1.3403,-1.3403,-1.3431,-1.3545,-1.3687,-1.3829,-1.4027,-1.4183,-1.4299,-1.4299,-1.4299,-1.4299,-1.4299,-1.4299,-1.4299,-1.4299,-1.4353,-1.4421,-1.4496,-1.4631,-1.478,-1.4989,-1.5025,-1.5099,-1.5174,-1.5181,-1.5181,-1.5181,-1.5181,-1.5221,-1.5316,-1.5398,-1.5466,-1.5465,-1.5655,-1.5744,-1.5744,-1.5811,-1.5886,-1.601,-1.5893,-1.5852,-1.5852,-1.5927,-1.601,-1.601,-1.6092,-1.6083,-1.6083,-1.6083,-1.6123,-0.6906,-0.7617,-0.8331,-0.9361,-0.9951,-1.0349,-1.046,-1.0609,-1.0684,-1.0684,-1.0684,0.0,0.0,0.0,0.0,0.0,0.0,0.0,0.0,0.0,0.0,0.0,0.0,0.0,0.0,0.0,0.0,0.0,0.0,0.0,-1.2461,-1.2488,-1.2501,-1.2501,-1.2501,-1.2501,-1.2501,-1.2501,-1.2501,-1.2501,-1.2501,-1.2501,-1.2501,-1.2501,-1.2501,-1.2501,-1.2501,-1.2501,-1.2501,-1.2501,-1.2684,-1.3003,-1.3003,-1.3139,-1.3403,-1.3403,-1.3403,-1.3403,-1.3403,-1.3403,-1.3403,-1.3403,-1.3417,-1.3464,-1.3578,-1.3727,-1.3869,-1.4068,-1.4204,-1.4299,-1.4299,-1.4299,-1.4299,-1.4299,-1.4319,-1.434,-1.434,-1.4428,-1.4529,-1.4584,-1.4814,-1.5011,-1.5011,-1.5153,-1.5181,-1.5181,-1.5181,-1.5181,-1.5181,-1.5181,-1.5262,-1.5459,-1.5513,-1.5574,-1.5669,-1.5811,-1.5942,-1.5942,-1.6058,-1.6083,-1.6083,-1.6083,-1.6083,-1.6083,-1.6083,-1.6083,-1.6083,-1.6083,-1.6083,-1.6083,-1.6083,-1.6151,-0.6045,-0.7292,-0.8615,-0.9408,-0.9951,-1.0349,-1.046,-1.0609,-1.0684,0.0,0.0,0.0,0.0,0.0,0.0,0.0,0.0,0.0,0.0,0.0,0.0,0.0,0.0,0.0,0.0,0.0,0.0,0.0,0.0,0.0,-1.2318,-1.2433,-1.2501,-1.2501,-1.2501,-1.2501,-1.2501,-1.2501,-1.2501,-1.2501,-1.2501,-1.2501,-1.2501,-1.2501,-1.2501,-1.2501,-1.2501,-1.2501,-1.2501,-1.2501,-1.2684,-1.3003,-1.3003,-1.3139,-1.3403,-1.3403,-1.3403,-1.3403,-1.3403,-1.3403,-1.3403,-1.3403,-1.3492,-1.3585,-1.3727,-1.3919,-1.4075,-1.4224,-1.4285,-1.4299,-1.4299,-1.4299,-1.4299,-1.4299,-1.4394,-1.4482,-1.4482,-1.4496,-1.459,-1.4855,-1.5038,-1.5153,-1.5153,-1.5167,-1.5181,-1.5181,-1.5181,-1.5181,-1.5181,-1.5181,-1.5262,-1.5459,-1.5635,-1.5813,-1.5867,-1.601,-1.6049,-1.6049,-1.6069,-1.6083,-1.6083,-1.6083,-1.6083,-1.6083,-1.6083,-1.6083,-1.6083,-1.6083,-1.6083,-1.6083,-1.6083,-1.609,-0.6498,-0.7617,-0.8668,-0.9313,-0.9754,-1.0059,-1.0177,-1.0426,-1.0595,-1.0595,0.0,0.0,0.0,0.0,0.0,0.0,0.0,0.0,0.0,0.0,0.0,0.0,0.0,0.0,0.0,0.0,0.0,0.0,0.0,-1.2108,-1.2284,-1.2352,-1.242,-1.2501,-1.2501,-1.2501,-1.2501,-1.2501,-1.2501,-1.2501,-1.2501,-1.2501,-1.2501,-1.2501,-1.2501,-1.2501,-1.2501,-1.2501,-1.2501,-1.2501,-1.2684,-1.3003,-1.3003,-1.3139,-1.3403,-1.3403,-1.3403,-1.3403,-1.3403,-1.3403,-1.3403,-1.3403,-1.3505,-1.3612,-1.3754,-1.3946,-1.4146,-1.4258,-1.4299,-1.4299,-1.4299,-1.4299,-1.4299,-1.4299,-1.4407,-1.455,-1.4692,-1.4746,-1.4835,-1.5052,-1.514,-1.5181,-1.5181,-1.5181,-1.5181,-1.5181,-1.5181,-1.5181,-1.5181,-1.5479,-1.5723,-1.5811,-1.59,-1.5961,-1.603,-1.6092,-1.6083,-1.6083,-1.6083,-1.6083,-1.6083,-1.6083,-1.6083,-1.6083,-1.6083,-1.6083,-1.6083,-1.6083,-1.6083,-1.6083,-1.6083,-1.613,-0.6729,-0.76,-0.8262,-0.9002,-0.9462,-0.9778,-0.9927,0.0,-1.0493,0.0,0.0,0.0,0.0,0.0,0.0,0.0,0.0,0.0,0.0,0.0,0.0,0.0,0.0,0.0,0.0,0.0,0.0,0.0,0.0,-1.1945,-1.2216,-1.2271,-1.2352,-1.2494,-1.2501,-1.2501,-1.2501,-1.2501,-1.2501,-1.2501,-1.2501,-1.2501,-1.2501,-1.2501,-1.2501,-1.2501,-1.2501,-1.2501,-1.2501,-1.2501,-1.2684,-1.3003,-1.3003,-1.3139,-1.3403,-1.3403,-1.3403,-1.3403,-1.3403,-1.3403,-1.341,-1.3444,-1.3559,-1.3666,-1.3815,-1.4007,-1.4156,-1.4272,-1.4299,-1.4299,-1.4299,-1.4806,-1.527,-1.527,-1.5906,-1.6197,-1.5138,-1.497,-1.5105,-1.516,-1.5181,-1.5181,-1.5181,-1.5181,-1.5181,-1.5181,-1.5309,-1.5411,-1.5411,-1.5805,-1.6083,-1.6083,-1.6083,-1.6083,-1.6083,-1.6083,-1.6083,-1.6083,-1.6083,-1.6083,-1.6083,-1.6083,-1.6083,-1.6083,-1.6083,-1.6083,-1.6083,-1.6083,-1.6083,-1.6083,-1.6083,-1.6144,-0.6061,-0.6654,-0.7229,-0.8275,-0.9076,-0.9659,-0.9771,0.0,0.0,0.0,0.0,0.0,0.0,0.0,0.0,0.0,0.0,0.0,0.0,0.0,0.0,0.0,0.0,0.0,0.0,0.0,0.0,0.0,0.0,-1.1904,-1.2104,-1.221,-1.2352,-1.2494,-1.2501,-1.2501,-1.2501,-1.2501,-1.2501,-1.2501,-1.2501,-1.2501,-1.2501,-1.2501,-1.2501,-1.2501,-1.2501,-1.2501,-1.2501,-1.2501,-1.2684,-1.3003,-1.3003,-1.3139,-1.3403,-1.3403,-1.3403,-1.3403,-1.3403,-1.3403,-1.3424,-1.3566,-1.3673,-1.3815,-1.4014,-1.4163,-1.4292,-1.4299,-1.4299,-1.4299,-1.4299,-1.6148,-1.8017,-1.8017,-1.9993,-2.0607,-1.6012,-1.5119,-1.5174,-1.5181,-1.5181,-1.5181,-1.5181,-1.5181,-1.5181,-1.5181,-1.5669,-1.6035,-1.6035,-1.6062,-1.6083,-1.6083,-1.6083,-1.6083,-1.6083,-1.6083,-1.6083,-1.6083,-1.6083,-1.6083,-1.6083,-1.6083,-1.6083,-1.6083,-1.6083,-1.6083,-1.6083,-1.6083,-1.6083,-1.6083,-1.6083,-1.6083,-0.5831,-0.6437,-0.7087,-0.7862,-0.8472,-0.8954,-0.9169,-0.9643,0.0,0.0,0.0,0.0,0.0,0.0,0.0,0.0,0.0,0.0,0.0,0.0,0.0,0.0,0.0,0.0,0.0,0.0,0.0,0.0,0.0,0.0,-1.1904,-1.2098,-1.221,-1.2359,-1.2454,-1.2501,-1.2501,-1.2501,-1.2501,-1.2501,-1.2501,-1.2501,-1.2501,-1.2501,-1.2501,-1.2501,-1.2501,-1.2501,-1.2501,-1.2501,-1.2684,-1.3156,-1.4533,-1.4375,-1.3562,-1.4946,-1.4582,-1.3403,-1.3403,-1.3403,-1.3424,-1.358,-1.368,-1.3829,-1.4027,-1.4177,-1.4299,-1.4299,-1.4299,-1.4666,-1.6385,-1.7504,-1.8627,-2.0389,-2.2483,-2.2845,-1.8454,-1.6295,-1.5181,-1.5181,-1.5181,-1.6198,-1.9381,-2.2556,-2.4615,-2.4615,-1.9745,-1.6083,-1.6083,-1.6083,-1.6083,-1.6083,-1.6083,-1.6083,-1.6083,-1.6083,-1.6083,-1.6083,-1.6083,-1.6083,-1.6083,-1.6083,-1.6083,-1.6083,-1.6083,-1.6083,-1.6083,-1.6083,-1.6083,-1.6083,-1.6083,-1.6083,-0.515,-0.584,-0.6685,-0.7088,-0.7662,-0.8294,-0.8872,0.0,0.0,0.0,0.0,0.0,0.0,0.0,0.0,0.0,0.0,0.0,0.0,0.0,0.0,0.0,0.0,0.0,0.0,0.0,0.0,0.0,0.0,0.0,-1.1786,-1.1979,-1.2193,-1.2352,-1.2454,-1.2501,-1.2501,-1.2501,-1.2501,-1.2501,-1.2501,-1.2501,-1.2501,-1.2501,-1.2501,-1.2501,-1.2501,-1.2881,-1.3452,-1.2772,-1.3532,-1.5162,-1.5908,-1.5932,-1.5638,-1.6369,-1.5712,-1.4375,-1.3645,-1.3437,-1.3505,-1.3612,-1.3754,-1.3946,-1.4102,-1.4217,-1.4299,-1.4299,-1.4333,-1.4787,-1.6515,-1.8261,-2.0262,-2.2966,-2.455,-2.466,-2.1948,-1.8778,-1.6198,-1.5368,-1.5235,-1.6332,-1.9538,-2.2984,-2.6469,-2.9985,-2.5083,-2.0663,-1.9724,-1.906,-1.8377,-1.7501,-1.7402,-1.7055,-1.6182,-1.6083,-1.6083,-1.6083,-1.6083,-1.6083,-1.6083,-1.6083,-1.6083,-1.6083,-1.6083,-1.6083,-1.6083,-1.6083,-1.6083,-1.6083,-1.6083,-1.6083,0.0,0.0,0.0,0.0,0.0,0.0,-0.8879,0.0,0.0,0.0,0.0,0.0,0.0,0.0,0.0,0.0,0.0,0.0,0.0,0.0,0.0,0.0,0.0,0.0,0.0,0.0,0.0,0.0,0.0,-1.1644,-1.178,-1.1972,-1.2234,-1.2488,-1.2501,-1.2501,-1.2501,-1.2501,-1.2501,-1.2501,-1.2501,-1.2501,-1.2501,-1.2501,-1.2501,-1.2501,-1.2501,-1.3683,-1.5425,-1.3337,-1.5147,-1.9004,-1.7038,-1.7759,-1.9664,-1.7538,-1.6729,-1.6287,-1.4217,-1.3547,-1.3612,-1.3754,-1.3946,-1.4146,-1.4339,-1.4387,-1.4431,-1.4483,-1.4579,-1.4599,-1.4612,-1.851,-2.3053,-2.5615,-2.6275,-2.6275,-2.6184,-2.2454,-1.8368,-1.5791,-1.5438,-1.5418,-1.5228,-1.5689,-1.9642,-3.015,-3.1183,-2.9819,-2.7003,-2.5082,-2.2994,-2.0363,-2.0077,-1.8953,-1.6424,-1.6133,-1.6083,-1.6083,-1.6083,-1.6083,-1.6083,-1.6083,-1.6083,-1.6083,-1.6083,-1.6083,-1.6083,-1.6083,-1.6083,-1.6083,-1.6083,-1.6083,-0.4098,0.0,0.0,0.0,0.0,0.0,0.0,0.0,0.0,0.0,0.0,0.0,0.0,0.0,0.0,0.0,0.0,0.0,0.0,0.0,0.0,0.0,0.0,0.0,0.0,0.0,0.0,0.0,-1.1584,-1.164,-1.1638,-1.1925,-1.2186,-1.2345,-1.2447,-1.2501,-1.2501,-1.2501,-1.2501,-1.2501,-1.2501,-1.2501,-1.2501,-1.2501,-1.2501,-1.2501,-1.2501,-1.4483,-1.7474,-1.3945,-1.5147,-1.9161,-1.8681,-1.9065,-2.0028,-2.0948,-1.9319,-1.6541,-1.6071,-1.4914,-1.3632,-1.3926,-1.4034,-1.4444,-1.6279,-1.6809,-1.7227,-1.9103,-1.8398,-1.7092,-1.7384,-2.1254,-2.532,-2.6025,-2.7567,-2.8211,-2.5855,-2.4706,-2.2964,-1.8814,-1.6642,-1.5486,-1.5506,-1.5832,-1.9642,-3.015,-3.1577,-3.104,-2.9956,-2.7461,-2.5045,-2.3043,-2.1147,-1.9733,-1.8953,-1.7204,-1.6083,-1.6083,-1.6083,-1.6083,-1.6083,-1.6083,-1.6083,-1.6083,-1.6083,-1.6083,-1.6083,-1.6083,-1.6083,-1.6083,-1.6083,-1.6083,-0.4422,0.0,0.0,0.0,0.0,0.0,0.0,-0.7438,0.0,0.0,0.0,0.0,0.0,0.0,0.0,0.0,0.0,0.0,0.0,0.0,0.0,0.0,0.0,0.0,0.0,0.0,0.0,-1.1613,-1.1584,-1.1611,-1.1665,-1.1932,-1.2173,-1.2284,-1.2427,-1.2501,-1.2501,-1.2501,-1.2501,-1.2501,-1.2501,-1.2501,-1.2501,-1.2501,-1.2501,-1.254,-1.3375,-1.5616,-1.8421,-1.6162,-1.7836,-2.1745,-2.1095,-2.158,-2.2659,-2.298,-2.0971,-1.8083,-1.8252,-1.6331,-1.418,-1.6266,-1.6384,-1.6079,-1.8505,-1.9228,-1.9578,-2.1231,-2.0014,-1.8301,-1.8634,-2.1677,-2.4945,-2.5957,-2.8076,-2.9362,-2.7464,-2.7431,-2.5719,-1.8914,-1.7575,-1.7119,-1.5808,-1.5886,-1.8187,-2.4269,-2.8931,-3.153,-3.1142,-2.9684,-2.7864,-2.5733,-2.3189,-2.1196,-2.0077,-1.7593,-1.6083,-1.6083,-1.6083,-1.6083,-1.6083,-1.6083,-1.6083,-1.6083,-1.6083,-1.6083,-1.6083,-1.6083,-1.6083,-1.6083,-1.6083,-1.6083,-0.489,-0.5541,0.0,0.0,0.0,0.0,-0.7386,-0.7326,0.0,0.0,0.0,0.0,0.0,0.0,0.0,0.0,0.0,0.0,0.0,0.0,0.0,0.0,0.0,0.0,0.0,-1.1382,-1.145,-1.1586,-1.1577,-1.1638,-1.1766,-1.1952,-1.2145,-1.2257,-1.2406,-1.2488,-1.2501,-1.2501,-1.2501,-1.2501,-1.2501,-1.2501,-1.2501,-1.2733,-1.2842,-1.2958,-1.4974,-1.7018,-1.8971,-1.9256,-2.1808,-2.534,-2.3558,-2.4313,-2.6149,-2.4191,-2.2029,-2.0107,-2.0261,-1.7738,-1.5147,-1.9295,-1.9512,-1.8584,-2.0919,-2.163,-2.1702,-2.2037,-2.0856,-1.9439,-1.9338,-2.1129,-2.3529,-2.5684,-2.8076,-2.9913,-2.9913,-2.9913,-2.7418,-1.8936,-1.8684,-1.8986,-1.6146,-1.5906,-1.6083,-1.6083,-2.4996,-3.1341,-3.0421,-3.112,-3.0592,-2.7684,-2.5539,-2.3286,-2.0657,-1.8031,-1.6523,-1.6523,-1.6275,-1.6083,-1.6083,-1.6083,-1.6083,-1.6083,-1.6083,-1.6083,-1.6083,-1.6083,-1.6083,-1.6083,-1.6083,-1.6083,-0.5313,-0.5883,-0.6348,0.0,0.0,0.0,0.0,-0.6007,0.0,0.0,0.0,0.0,0.0,0.0,0.0,0.0,0.0,0.0,0.0,0.0,0.0,0.0,0.0,0.0,0.0,-1.1356,-1.1402,-1.1436,-1.1552,-1.1597,-1.1624,-1.1796,-1.1945,-1.2139,-1.225,-1.2386,-1.2501,-1.2501,-1.2501,-1.2501,-1.2501,-1.2501,-1.254,-1.4176,-1.4897,-1.505,-1.7094,-1.9139,-2.1063,-2.1597,-2.3267,-2.534,-2.3558,-2.4313,-2.6347,-2.5898,-2.3373,-2.0127,-2.0266,-1.8775,-1.7,-1.8087,-1.9374,-2.0962,-2.3298,-2.4175,-2.4427,-2.4896,-2.4868,-2.4286,-2.2316,-2.3656,-2.5639,-2.6093,-2.8076,-2.9913,-2.9913,-2.9913,-2.9605,-2.874,-2.203,-1.641,-1.6046,-1.6042,-1.6083,-1.6083,-2.4996,-3.0124,-2.5876,-2.9038,-2.9911,-2.519,-2.6071,-2.5974,-2.3345,-2.0755,-1.9249,-1.9249,-1.7253,-1.6083,-1.6083,-1.6083,-1.6083,-1.6083,-1.6083,-1.6083,-1.6083,-1.6083,-1.6083,-1.6083,-1.6083,-1.6083,-0.6303,-0.6614,-0.6867,-0.5697,0.0,0.0,0.0,0.0,-0.5162,0.0,0.0,0.0,0.0,0.0,0.0,0.0,0.0,0.0,0.0,0.0,0.0,0.0,0.0,0.0,0.0,-1.1077,-1.1233,-1.1382,-1.1531,-1.1584,-1.1584,-1.1719,-1.1904,-1.2091,-1.221,-1.2359,-1.2501,-1.2501,-1.2997,-1.3984,-1.3984,-1.4552,-1.5578,-1.6599,-1.7056,-1.717,-1.9214,-2.0654,-2.1712,-2.3325,-2.4611,-2.5443,-2.4867,-2.5359,-2.6386,-2.6386,-2.3751,-2.0527,-2.2936,-2.1114,-1.8243,-2.1827,-2.2955,-2.3384,-2.5714,-2.675,-2.686,-2.6015,-2.5985,-2.5912,-2.4671,-2.5264,-2.6502,-2.7747,-2.8989,-2.9967,-3.0167,-3.0287,-3.0608,-3.1503,-2.7318,-2.2558,-1.9273,-1.7253,-1.6083,-1.6083,-2.4996,-2.9816,-2.456,-2.3929,-2.4414,-2.5733,-2.5829,-2.5335,-2.4026,-2.149,-1.9978,-1.9978,-1.7543,-1.6083,-1.6083,-1.6083,-1.6083,-1.6083,-1.6083,-1.6083,-1.6083,-1.6083,-1.6083,-1.6083,-1.6083,-1.6123,0.0,0.0,0.0,0.0,0.0,-0.5665,0.0,0.0,0.0,-0.4591,0.0,0.0,0.0,0.0,0.0,0.0,0.0,0.0,0.0,0.0,0.0,0.0,0.0,0.0,0.0,-1.0718,-1.0934,-1.1321,-1.1409,-1.1484,-1.1572,-1.1671,-1.187,-1.2091,-1.222,-1.2332,-1.2501,-1.2881,-1.3907,-1.5501,-1.5922,-1.698,-1.861,-1.8988,-1.9176,-1.929,-2.1291,-2.2197,-2.2432,-2.4594,-2.5545,-2.5651,-2.6186,-2.6386,-2.64,-2.6453,-2.4125,-2.1525,-2.5351,-2.3396,-2.0053,-2.5714,-2.6546,-2.5738,-2.7761,-2.8657,-2.8662,-2.7058,-2.6753,-2.6921,-2.6921,-2.6921,-2.7431,-2.9407,-2.9913,-2.984,-2.9573,-3.0215,-3.0823,-3.0738,-3.1223,-2.9911,-2.4269,-2.096,-1.9109,-1.9109,-2.6301,-3.015,-2.5963,-2.0862,-2.0036,-2.6361,-2.5625,-2.4657,-2.4657,-2.2702,-2.1294,-2.0755,-1.8278,-1.6616,-1.6133,-1.6083,-1.6083,-1.6083,-1.6083,-1.6083,-1.6083,-1.6083,-1.6083,-1.6083,-1.611,-1.6191,0.0,0.0,0.0,0.0,-0.7046,0.0,0.0,0.0,-0.685,-0.648,0.0,0.0,0.0,0.0,0.0,0.0,0.0,0.0,0.0,0.0,0.0,0.0,0.0,0.0,0.0,0.0,-1.0621,-1.1179,-1.0962,-1.0995,-1.1396,-1.1558,-1.1769,-1.2091,-1.2118,-1.2261,-1.2501,-1.4291,-1.5272,-1.554,-1.736,-1.8383,-1.8648,-2.0466,-2.1253,-2.1365,-2.3376,-2.4449,-2.475,-2.527,-2.5665,-2.5971,-2.6266,-2.6386,-2.6426,-2.668,-2.5326,-2.3536,-2.4257,-2.4275,-2.4038,-2.4861,-2.6333,-2.7934,-2.8691,-2.8948,-2.9064,-2.9343,-2.947,-2.9496,-2.9496,-2.9496,-2.9541,-2.9824,-2.9913,-2.9138,-2.648,-2.8601,-3.0254,-2.7602,-2.9565,-3.1474,-3.0639,-3.0198,-2.9911,-2.9911,-3.0938,-3.1474,-3.089,-2.6253,-2.3345,-2.4269,-2.6168,-2.7336,-2.7336,-2.7095,-2.5926,-2.3588,-2.1,-1.8517,-1.6182,-1.6083,-1.6083,-1.6083,-1.6083,-1.6083,-1.6083,-1.6083,-1.6083,-1.6083,-1.6218,-1.6293,0.0,0.0,0.0,0.0,0.0,0.0,0.0,0.0,-0.5145,0.0,0.0,0.0,0.0,0.0,0.0,0.0,0.0,0.0,0.0,0.0,0.0,0.0,0.0,0.0,0.0,0.0,0.0,0.0,0.0,-1.1869,-1.1302,-1.2374,-1.2646,-1.1955,-1.205,-1.22,-1.2379,-1.4466,-1.6104,-1.7322,-1.9365,-2.0954,-2.2124,-2.2967,-2.3339,-2.3376,-2.4216,-2.481,-2.5104,-2.5398,-2.5692,-2.6024,-2.6319,-2.6386,-2.6426,-2.6707,-2.5514,-2.4045,-2.5654,-2.5578,-2.4904,-2.6291,-2.748,-2.8484,-2.8868,-2.9121,-2.9379,-2.9793,-2.9913,-2.9913,-2.9913,-2.9913,-2.9913,-2.9913,-2.888,-2.7601,-2.6492,-2.7638,-2.8576,-2.747,-2.9673,-3.1711,-3.1711,-3.1711,-3.1711,-3.1711,-3.1711,-3.1711,-3.1711,-2.8008,-2.5577,-2.6119,-2.7143,-2.778,-2.778,-2.778,-2.7336,-2.6216,-2.2263,-1.8813,-1.6232,-1.6083,-1.6083,-1.6083,-1.6083,-1.6083,-1.6083,-1.6083,-1.613,-1.6218,-1.6279,-1.6402,-0.858,0.0,0.0,0.0,0.0,0.0,0.0,0.0,0.0,0.0,0.0,0.0,0.0,0.0,0.0,0.0,0.0,0.0,0.0,0.0,0.0,0.0,0.0,0.0,0.0,0.0,0.0,0.0,0.0,0.0,-1.1818,-1.3607,-1.3974,-1.2511,-1.3273,-1.3499,-1.3143,-1.5826,-1.7929,-1.944,-2.1452,-2.319,-2.4599,-2.4599,-2.4599,-2.4599,-2.4599,-2.4813,-2.5211,-2.5424,-2.5732,-2.6131,-2.6306,-2.644,-2.6547,-2.6841,-2.5998,-2.505,-2.7142,-2.6887,-2.5939,-2.7672,-2.8393,-2.8657,-2.8908,-2.9245,-2.9539,-2.9833,-2.9913,-2.9913,-2.9913,-2.9913,-2.9913,-2.9913,-2.8698,-2.7471,-2.6981,-2.7675,-2.8234,-2.7877,-2.9911,-3.1711,-3.1711,-3.1711,-3.1711,-3.1711,-3.1711,-3.1379,-3.0401,-2.8056,-2.6843,-2.7732,-2.778,-2.778,-2.778,-2.778,-2.7191,-2.5733,-2.1441,-1.808,-1.6182,-1.6083,-1.6083,-1.6083,-1.6083,-1.6083,-1.6083,-1.6123,-1.6218,-1.6368,-1.6368,-1.6503,0.0,0.0,0.0,-0.8236,0.0,0.0,0.0,0.0,-0.3971,0.0,0.0,0.0,0.0,0.0,0.0,0.0,0.0,0.0,0.0,0.0,0.0,0.0,0.0,0.0,0.0,0.0,0.0,0.0,0.0,0.0,-1.3184,-1.518,-1.5662,-1.4156,-1.6456,-1.6904,-1.5215,-1.9324,-2.144,-2.1527,-2.3537,-2.4525,-2.4599,-2.4599,-2.4599,-2.4599,-2.4599,-2.4933,-2.5504,-2.5504,-2.5852,-2.6373,-2.6386,-2.656,-2.6841,-2.7134,-2.7255,-2.7266,-2.7965,-2.8136,-2.8094,-2.8192,-2.8393,-2.8657,-2.8908,-2.9245,-2.9539,-2.9833,-2.9913,-2.9913,-2.9913,-2.9913,-2.9913,-2.9913,-3.0095,-2.9632,-2.74,-2.9093,-3.0444,-2.8212,-2.9911,-3.1711,-3.1711,-3.1711,-3.1711,-3.1711,-3.1711,-3.0496,-2.7083,-2.6554,-2.6843,-2.7732,-2.778,-2.778,-2.778,-2.778,-2.5625,-2.0559,-1.7741,-1.6182,-1.6083,-1.6083,-1.6083,-1.6083,-1.6083,-1.6083,-1.6083,-1.6232,-1.6374,-1.6517,-1.6517,-1.6547,0.0,0.0,-0.9602,-0.8804,0.0,0.0,0.0,0.0,0.0,0.0,0.0,0.0,0.0,0.0,0.0,0.0,0.0,0.0,0.0,0.0,0.0,0.0,0.0,0.0,0.0,0.0,0.0,0.0,-1.1824,0.0,0.0,-1.6181,-1.7311,-1.5965,-1.7197,-1.7607,-1.7015,-2.0069,-2.1601,-2.1639,-2.3648,-2.4599,-2.4562,-2.3227,-2.262,-2.2633,-2.2805,-2.3125,-2.3637,-2.5204,-2.6078,-2.6386,-2.6386,-2.656,-2.6854,-2.7202,-2.7429,-2.7615,-2.8045,-2.8179,-2.8219,-2.8419,-2.8657,-2.8908,-2.9245,-2.9539,-2.9793,-2.9887,-2.9913,-2.9913,-2.9913,-2.9913,-2.9967,-3.0167,-2.9116,-2.7923,-2.7287,-2.8127,-2.8738,-2.796,-2.9911,-3.1141,-2.9434,-2.8644,-2.9027,-3.1379,-2.9768,-2.7816,-2.665,-2.548,-2.5577,-2.7588,-2.6264,-2.5926,-2.7636,-2.6216,-2.3724,-2.0215,-1.915,-1.7882,-1.6182,-1.6083,-1.6083,-1.6083,-1.6083,-1.613,-1.6232,-1.6286,-1.6435,-1.6621,-1.6621,-1.6754,-0.9886,-0.994,0.0,-0.923,-0.868,0.0,-0.7441,0.0,0.0,0.0,0.0,0.0,0.0,0.0,0.0,0.0,0.0,0.0,0.0,0.0,0.0,0.0,0.0,0.0,0.0,0.0,-0.8389,-0.9056,-1.1964,0.0,0.0,0.0,-1.827,-1.7659,-1.8507,-1.9028,-1.915,-2.1501,-2.2657,-2.2657,-2.3264,-2.3537,-2.345,-2.1452,-2.0916,-2.1613,-2.1872,-2.2589,-2.3688,-2.5308,-2.6172,-2.6386,-2.6386,-2.6627,-2.7001,-2.7242,-2.7563,-2.7924,-2.8125,-2.8179,-2.8232,-2.8511,-2.8761,-2.9055,-2.9392,-2.9686,-2.9913,-2.9913,-2.9913,-2.9913,-2.9913,-2.9993,-3.0127,-3.036,-2.9379,-2.846,-2.8644,-2.895,-2.9182,-2.9182,-2.9816,-2.9768,-2.8068,-2.6554,-2.635,-2.8596,-2.6494,-2.4549,-2.421,-2.4016,-2.4172,-2.4948,-2.4366,-2.422,-2.4948,-2.2614,-2.042,-1.8714,-1.8616,-1.784,-1.6182,-1.6083,-1.6083,-1.6083,-1.6137,-1.6212,-1.6307,-1.6415,-1.6513,-1.6702,-1.6757,-1.6883]},{"header":{"parameterUnit":"m.s-1","parameterCategory":1,"la1":30.6,"la2":29.2853,"lo1":-89.7004,"lo2":-87.6739,"dy":0.0162,"dx":0.0183,"nx":112,"ny":82,"refTime":"2026-04-10T00:00:00:Z","depth":0,"parameterNumber":3,"parameterNumberName":"V-component_of_WINDS"},"data":[0.0,0.0,0.0,0.0,0.0,0.0,0.0,0.0,0.0,0.0,0.0,0.0,0.0,0.0,0.0,0.0,0.0,0.0,0.0,0.0,0.0,0.0,0.0,0.0,0.0,0.0,0.0,0.0,0.0,0.0,0.0,0.0,0.0,0.0,0.0,0.0,0.0,0.0,0.0,0.0,0.0,0.0,0.0,0.0,0.0,0.0,0.0,0.0,0.0,0.0,0.0,0.0,0.0,0.0,0.0,0.0,0.0,0.0,0.0,0.0,0.0,0.0,0.0,0.0,0.0,0.0,0.0,0.0,0.0,0.0,0.0,0.0,0.0,0.0,0.0,0.0,0.0,0.0,0.0,0.0,0.0,0.0,0.0,0.0,0.0,0.0,0.0,0.0,0.0,0.0,0.0,3.3867,3.7734,3.9766,3.8867,3.8555,3.6328,3.1406,0.0,0.0,0.0,0.0,0.0,0.0,0.0,0.0,0.0,0.0,0.0,0.0,0.0,0.0,0.0,0.0,0.0,0.0,0.0,0.0,0.0,0.0,0.0,0.0,0.0,0.0,0.0,0.0,0.0,0.0,0.0,0.0,0.0,0.0,0.0,0.0,0.0,0.0,0.0,0.0,0.0,0.0,0.0,0.0,0.0,0.0,0.0,0.0,0.0,0.0,0.0,0.0,0.0,0.0,0.0,0.0,0.0,0.0,0.0,0.0,0.0,0.0,0.0,0.0,0.0,0.0,0.0,0.0,0.0,0.0,0.0,0.0,0.0,0.0,0.0,0.0,0.0,0.0,0.0,0.0,0.0,0.0,0.0,0.0,0.0,0.0,0.0,0.0,0.0,0.0,0.0,0.0,0.0,0.0,0.0,0.0,0.0,0.0,0.0,0.0,0.0,0.0,0.0,0.0,3.1719,3.7226,3.9726,4.0664,3.9766,3.8359,3.5937,3.2226,0.0,0.0,0.0,0.0,0.0,0.0,0.0,0.0,0.0,0.0,0.0,0.0,0.0,0.0,0.0,0.0,0.0,0.0,0.0,0.0,0.0,0.0,0.0,0.0,0.0,0.0,0.0,0.0,0.0,0.0,0.0,0.0,0.0,0.0,0.0,0.0,0.0,0.0,0.0,0.0,0.0,0.0,0.0,0.0,0.0,0.0,0.0,0.0,0.0,0.0,0.0,0.0,0.0,0.0,0.0,0.0,0.0,0.0,0.0,0.0,0.0,0.0,0.0,0.0,0.0,0.0,0.0,0.0,0.0,0.0,0.0,0.0,0.0,0.0,0.0,0.0,0.0,0.0,0.0,0.0,0.0,0.0,0.0,0.0,0.0,0.0,0.0,0.0,0.0,0.0,0.0,0.0,0.0,0.0,0.0,0.0,0.0,0.0,0.0,0.0,0.0,0.0,0.0,3.1093,3.4141,3.8828,4.043,4.0859,3.9961,3.875,3.6328,3.2461,3.0843,0.0,0.0,0.0,0.0,0.0,0.0,0.0,0.0,0.0,0.0,0.0,0.0,0.0,0.0,0.0,0.0,0.0,0.0,0.0,0.0,0.0,0.0,0.0,0.0,0.0,0.0,0.0,0.0,0.0,0.0,0.0,0.0,0.0,0.0,0.0,0.0,0.0,0.0,0.0,0.0,0.0,0.0,0.0,0.0,0.0,0.0,0.0,0.0,0.0,0.0,0.0,0.0,0.0,0.0,0.0,0.0,0.0,0.0,0.0,0.0,0.0,0.0,0.0,0.0,0.0,0.0,0.0,0.0,0.0,0.0,0.0,0.0,0.0,0.0,0.0,0.0,0.0,0.0,0.0,0.0,0.0,0.0,0.0,0.0,0.0,0.0,0.0,0.0,0.0,0.0,0.0,0.0,0.0,0.0,0.0,0.0,0.0,0.0,0.0,0.0,0.0,0.0,3.4531,3.6562,3.9844,4.0781,4.0937,4.0273,3.8828,3.6406,3.2734,2.998,0.0,0.0,0.0,0.0,0.0,0.0,0.0,0.0,0.0,0.0,0.0,0.0,0.0,0.0,0.0,0.0,0.0,0.0,0.0,0.0,0.0,0.0,0.0,0.0,0.0,0.0,0.0,0.0,0.0,0.0,0.0,0.0,0.0,0.0,0.0,0.0,0.0,0.0,0.0,0.0,0.0,0.0,0.0,0.0,0.0,0.0,0.0,0.0,0.0,0.0,0.0,0.0,0.0,0.0,0.0,0.0,0.0,0.0,0.0,0.0,0.0,0.0,0.0,0.0,0.0,0.0,0.0,0.0,0.0,0.0,0.0,0.0,0.0,0.0,0.0,0.0,0.0,0.0,0.0,0.0,0.0,0.0,0.0,0.0,0.0,0.0,0.0,0.0,0.0,0.0,0.0,0.0,0.0,0.0,0.0,0.0,0.0,0.0,0.0,0.0,0.0,0.0,3.5586,3.8125,4.082,4.1172,4.1172,4.1094,3.8086,3.5351,3.3437,2.8626,0.0,0.0,0.0,0.0,0.0,0.0,0.0,0.0,0.0,0.0,0.0,0.0,0.0,0.0,0.0,0.0,0.0,0.0,0.0,0.0,0.0,0.0,0.0,0.0,0.0,0.0,0.0,0.0,0.0,0.0,0.0,0.0,0.0,0.0,0.0,0.0,0.0,0.0,0.0,0.0,0.0,0.0,0.0,0.0,0.0,0.0,0.0,0.0,0.0,0.0,0.0,0.0,0.0,0.0,0.0,0.0,0.0,0.0,0.0,0.0,0.0,0.0,0.0,0.0,0.0,0.0,0.0,0.0,0.0,0.0,0.0,0.0,0.0,0.0,0.0,0.0,0.0,0.0,0.0,0.0,0.0,0.0,0.0,0.0,0.0,0.0,0.0,0.0,0.0,0.0,0.0,0.0,0.0,0.0,0.0,0.0,0.0,0.0,0.0,0.0,0.0,0.0,3.5195,3.7695,0.0,4.1211,4.1211,4.1211,3.8984,3.6406,3.3509,0.0,0.0,0.0,0.0,0.0,0.0,0.0,0.0,0.0,0.0,0.0,0.0,0.0,0.0,0.0,0.0,0.0,0.0,0.0,0.0,0.0,0.0,0.0,0.0,0.0,0.0,0.0,0.0,0.0,0.0,0.0,0.0,0.0,0.0,0.0,0.0,0.0,0.0,0.0,0.0,0.0,0.0,0.0,0.0,0.0,0.0,0.0,0.0,0.0,0.0,0.0,0.0,0.0,0.0,0.0,0.0,0.0,0.0,0.0,0.0,0.0,0.0,0.0,0.0,0.0,0.0,0.0,0.0,0.0,0.0,0.0,0.0,0.0,0.0,0.0,0.0,0.0,0.0,0.0,0.0,0.0,0.0,0.0,0.0,0.0,0.0,0.0,0.0,0.0,0.0,0.0,0.0,0.0,0.0,0.0,0.0,0.0,0.0,0.0,0.0,0.0,0.0,3.2851,3.5898,3.8555,0.0,4.1445,4.1484,4.1211,3.9101,3.6483,3.3499,0.0,0.0,0.0,0.0,0.0,0.0,0.0,0.0,0.0,0.0,0.0,0.0,0.0,0.0,0.0,0.0,0.0,0.0,0.0,0.0,0.0,0.0,0.0,0.0,0.0,0.0,0.0,0.0,0.0,0.0,0.0,0.0,0.0,0.0,0.0,0.0,0.0,0.0,0.0,0.0,0.0,0.0,0.0,0.0,0.0,0.0,0.0,0.0,0.0,0.0,0.0,0.0,0.0,0.0,0.0,0.0,0.0,0.0,0.0,0.0,0.0,0.0,0.0,0.0,0.0,0.0,0.0,0.0,0.0,0.0,0.0,0.0,0.0,0.0,0.0,0.0,0.0,0.0,0.0,0.0,0.0,0.0,0.0,0.0,0.0,0.0,0.0,0.0,0.0,0.0,0.0,0.0,0.0,0.0,0.0,0.0,0.0,0.0,0.0,0.0,0.0,0.0,3.3086,3.7969,4.1211,4.1211,4.1953,4.2109,4.1289,3.8047,3.5272,0.0,0.0,0.0,0.0,0.0,0.0,0.0,0.0,0.0,0.0,0.0,0.0,0.0,0.0,0.0,0.0,0.0,0.0,0.0,0.0,0.0,0.0,0.0,0.0,0.0,0.0,0.0,0.0,0.0,0.0,0.0,0.0,0.0,0.0,0.0,0.0,0.0,0.0,0.0,0.0,0.0,0.0,0.0,0.0,0.0,0.0,0.0,0.0,0.0,0.0,0.0,0.0,0.0,0.0,0.0,0.0,0.0,0.0,0.0,0.0,0.0,0.0,0.0,0.0,0.0,0.0,0.0,0.0,0.0,0.0,0.0,0.0,0.0,0.0,0.0,0.0,0.0,0.0,0.0,0.0,0.0,0.0,0.0,0.0,0.0,0.0,0.0,0.0,0.0,0.0,0.0,0.0,0.0,0.0,0.0,0.0,0.0,0.0,0.0,0.0,0.0,0.0,0.0,3.3906,3.8359,4.1641,4.2851,4.3164,4.2969,4.2109,4.0039,3.7186,3.3538,0.0,0.0,0.0,0.0,0.0,0.0,0.0,0.0,0.0,0.0,0.0,0.0,0.0,0.0,0.0,0.0,0.0,0.0,0.0,0.0,0.0,0.0,0.0,0.0,0.0,0.0,0.0,0.0,0.0,0.0,0.0,0.0,0.0,0.0,0.0,0.0,0.0,0.0,0.0,0.0,0.0,0.0,0.0,0.0,0.0,0.0,0.0,0.0,0.0,0.0,0.0,0.0,0.0,0.0,0.0,0.0,0.0,0.0,0.0,0.0,0.0,0.0,0.0,0.0,0.0,0.0,0.0,0.0,0.0,0.0,0.0,0.0,0.0,0.0,0.0,0.0,0.0,0.0,0.0,0.0,0.0,0.0,0.0,0.0,0.0,0.0,0.0,0.0,0.0,0.0,0.0,0.0,0.0,0.0,0.0,0.0,0.0,0.0,0.0,0.0,0.0,0.0,3.4255,3.9058,4.2536,4.3594,4.4023,4.3867,4.3008,4.1367,3.867,3.4593,0.0,0.0,0.0,0.0,0.0,0.0,0.0,0.0,0.0,0.0,0.0,0.0,0.0,0.0,0.0,0.0,0.0,0.0,0.0,0.0,0.0,0.0,0.0,0.0,0.0,0.0,0.0,0.0,0.0,0.0,0.0,0.0,0.0,0.0,0.0,0.0,0.0,0.0,0.0,0.0,0.0,0.0,0.0,0.0,0.0,0.0,0.0,0.0,0.0,0.0,0.0,0.0,0.0,0.0,0.0,0.0,0.0,0.0,0.0,0.0,0.0,0.0,0.0,0.0,0.0,0.0,0.0,0.0,0.0,0.0,0.0,0.0,0.0,0.0,0.0,0.0,0.0,0.0,0.0,0.0,0.0,0.0,0.0,0.0,0.0,0.0,0.0,0.0,0.0,0.0,0.0,0.0,0.0,0.0,0.0,0.0,0.0,0.0,0.0,0.0,0.0,0.0,3.4466,3.9968,4.3689,4.3905,4.4648,4.4766,4.3906,4.2266,3.9804,3.6237,0.0,0.0,0.0,0.0,0.0,0.0,0.0,0.0,0.0,0.0,0.0,0.0,0.0,0.0,0.0,0.0,0.0,0.0,0.0,0.0,0.0,0.0,0.0,0.0,0.0,0.0,0.0,0.0,0.0,0.0,0.0,0.0,0.0,0.0,0.0,0.0,0.0,0.0,0.0,0.0,0.0,0.0,0.0,0.0,0.0,0.0,0.0,0.0,0.0,0.0,0.0,0.0,0.0,0.0,0.0,0.0,0.0,0.0,0.0,0.0,2.7559,0.0,0.0,0.0,0.0,0.0,0.0,0.0,0.0,0.0,0.0,0.0,0.0,0.0,0.0,0.0,0.0,0.0,0.0,0.0,0.0,0.0,0.0,0.0,0.0,0.0,0.0,0.0,0.0,0.0,0.0,0.0,0.0,0.0,0.0,0.0,0.0,0.0,0.0,0.0,0.0,0.0,3.6062,4.0643,4.4106,4.5441,4.5855,4.5664,4.4805,4.3125,4.0664,3.7226,0.0,0.0,0.0,0.0,0.0,0.0,0.0,0.0,0.0,0.0,0.0,0.0,0.0,0.0,0.0,0.0,0.0,0.0,0.0,0.0,0.0,0.0,0.0,0.0,0.0,0.0,0.0,0.0,0.0,0.0,0.0,0.0,0.0,0.0,0.0,0.0,0.0,0.0,0.0,0.0,0.0,0.0,0.0,0.0,0.0,0.0,0.0,0.0,0.0,0.0,0.0,0.0,0.0,0.0,0.0,0.0,0.0,0.0,0.0,0.0,0.0,3.0686,0.0,0.0,0.0,0.0,0.0,0.0,0.0,0.0,0.0,0.0,0.0,0.0,0.0,0.0,0.0,0.0,0.0,0.0,0.0,0.0,0.0,0.0,0.0,0.0,0.0,0.0,0.0,0.0,0.0,0.0,0.0,0.0,0.0,0.0,0.0,0.0,0.0,0.0,0.0,0.0,3.6552,4.1116,4.4566,4.5966,4.6151,4.6049,4.5664,4.4414,4.2539,3.9922,3.6092,0.0,0.0,0.0,0.0,0.0,0.0,0.0,0.0,0.0,0.0,0.0,0.0,0.0,0.0,0.0,0.0,0.0,0.0,0.0,0.0,0.0,0.0,0.0,0.0,0.0,0.0,0.0,0.0,0.0,0.0,0.0,0.0,0.0,0.0,0.0,0.0,0.0,0.0,0.0,0.0,0.0,0.0,0.0,0.0,0.0,0.0,0.0,0.0,0.0,0.0,0.0,0.0,0.0,3.9223,3.9991,3.9455,4.094,4.164,4.154,3.8818,3.6972,3.568,0.0,0.0,0.0,0.0,0.0,0.0,0.0,0.0,0.0,0.0,0.0,0.0,0.0,0.0,0.0,0.0,0.0,0.0,0.0,0.0,0.0,0.0,0.0,0.0,0.0,4.0852,4.0583,0.0,0.0,0.0,0.0,0.0,0.0,0.0,0.0,0.0,0.0,0.0,0.0,3.7168,4.1597,4.4918,4.5923,4.6076,4.6145,4.6248,4.5508,4.4336,4.2734,3.957,3.6718,0.0,0.0,0.0,0.0,0.0,0.0,0.0,0.0,0.0,0.0,0.0,0.0,0.0,0.0,0.0,0.0,0.0,0.0,0.0,0.0,0.0,0.0,0.0,0.0,0.0,0.0,0.0,0.0,0.0,0.0,0.0,0.0,2.4934,2.5878,0.0,0.0,0.0,0.0,0.0,0.0,0.0,0.0,0.0,0.0,0.0,0.0,0.0,3.6893,3.7812,4.0881,4.2476,4.2485,4.5628,4.722,4.7428,4.8348,4.8925,4.9226,4.8808,0.0,4.003,3.8302,0.0,0.0,0.0,0.0,0.0,0.0,0.0,0.0,0.0,0.0,0.0,0.0,0.0,0.0,0.0,0.0,0.0,0.0,0.0,0.0,0.0,0.0,4.5687,4.4151,4.4556,4.4835,0.0,3.9095,3.4954,3.2634,0.0,0.0,0.0,0.0,0.0,0.0,0.0,0.0,3.9595,4.2637,4.4834,4.5726,4.6008,4.6092,4.6138,4.5425,4.457,4.3594,4.1016,3.9062,3.7968,3.4523,0.0,0.0,0.0,0.0,0.0,0.0,0.0,0.0,0.0,0.0,0.0,0.0,0.0,0.0,0.0,0.0,0.0,0.0,0.0,0.0,0.0,0.0,0.0,0.0,0.0,0.0,0.0,0.0,0.0,2.5527,2.7383,2.7273,2.8081,2.8141,0.0,0.0,0.0,0.0,0.0,0.0,0.0,0.0,0.0,3.9441,4.0802,4.2337,4.4106,4.6674,4.7957,4.7981,5.0089,5.144,5.2067,5.2395,5.2911,5.3477,5.3015,5.1231,4.8274,4.4211,4.1471,3.9647,0.0,0.0,0.0,0.0,3.8637,3.9211,4.1874,4.2383,0.0,0.0,0.0,0.0,0.0,0.0,0.0,0.0,0.0,0.0,0.0,0.0,0.0,4.8774,4.958,4.9837,4.8427,4.5725,4.2317,0.0,3.6789,3.5131,3.1458,0.0,0.0,0.0,0.0,0.0,4.2243,4.4518,4.6005,4.6418,4.6555,4.6424,4.6022,4.5708,4.5335,4.4943,4.3027,4.1697,4.1306,3.7988,3.5348,0.0,0.0,0.0,0.0,0.0,0.0,0.0,0.0,0.0,0.0,0.0,0.0,0.0,0.0,0.0,0.0,0.0,0.0,0.0,0.0,0.0,0.0,0.0,0.0,0.0,0.0,0.0,0.0,2.879,3.0276,2.9651,3.1199,3.1436,0.0,0.0,0.0,0.0,0.0,0.0,3.8843,4.0027,4.2026,4.5104,4.6297,4.7875,4.9943,5.1697,5.2675,5.2905,5.3851,5.473,5.558,5.558,5.5889,5.6429,5.5811,5.5464,5.4837,4.9421,4.6248,4.4605,4.3187,4.2333,4.2145,4.3647,4.4563,4.5406,4.834,4.9031,4.8454,4.7605,0.0,4.4638,4.209,0.0,0.0,0.0,0.0,4.487,4.694,4.8615,5.0213,5.2085,5.3016,5.3145,5.1769,5.0809,4.862,0.0,4.1984,4.033,3.6071,0.0,0.0,0.0,0.0,4.2089,4.4624,4.6274,4.7225,4.7264,4.7323,4.7094,4.6556,4.6326,4.623,4.623,4.5053,4.4385,4.4385,4.1756,3.9461,3.7694,0.0,0.0,0.0,0.0,0.0,0.0,0.0,0.0,0.0,0.0,0.0,0.0,0.0,0.0,0.0,0.0,0.0,0.0,0.0,0.0,0.0,0.0,0.0,0.0,0.0,0.0,0.0,0.0,0.0,3.4356,3.6623,0.0,0.0,0.0,0.0,3.7004,3.8583,4.0583,4.3068,4.505,4.7259,4.9763,5.1754,5.3248,5.4171,5.5225,5.6156,5.6922,5.7169,5.7712,5.8485,5.8485,5.8524,5.8562,5.8524,5.8059,5.7031,5.3194,5.1082,5.0221,4.9421,4.8614,4.7983,4.9039,4.9954,5.0938,5.2718,5.2801,5.2384,5.3889,5.2131,4.9374,4.9342,4.816,0.0,0.0,4.9179,5.075,5.1569,5.2469,5.3166,5.3138,5.32,5.3195,5.3107,5.241,5.0755,0.0,4.5265,4.3533,4.1678,0.0,4.0523,4.1285,4.232,4.3893,4.6428,4.7505,4.8048,4.8023,4.8168,4.8203,4.8174,4.7548,4.7118,4.7118,4.7079,4.7001,4.7001,4.6049,4.472,4.3054,3.8967,0.0,0.0,0.0,0.0,0.0,0.0,0.0,0.0,0.0,0.0,0.0,0.0,0.0,0.0,0.0,0.0,0.0,0.0,0.0,0.0,0.0,0.0,0.0,0.0,0.0,0.0,0.0,0.0,3.7926,4.0213,0.0,3.8637,3.9998,4.1574,4.2849,4.5318,4.7693,4.9882,5.1196,5.2842,5.4811,5.5592,5.6351,5.7201,5.7541,5.8156,5.9014,5.9074,5.9838,6.1201,6.1201,6.1507,6.1968,6.1432,6.1045,6.0611,5.8717,5.6488,5.42,5.3952,5.3664,5.3441,5.3801,5.4527,5.5438,5.602,5.6035,5.574,5.5682,5.4819,5.3705,5.3195,5.2927,5.2746,5.2471,5.317,5.4228,5.5041,5.549,5.586,5.6379,5.6467,5.6313,5.5775,5.4967,5.3857,5.2125,4.951,4.7048,4.5389,4.524,4.5124,4.4359,4.5432,4.7048,4.9086,4.9125,4.8933,4.8933,4.8967,4.878,4.8202,4.7928,4.7778,4.7778,4.7778,4.7778,4.7778,4.7565,4.6406,4.4145,4.2174,3.8779,0.0,0.0,0.0,0.0,0.0,0.0,0.0,0.0,0.0,0.0,0.0,0.0,0.0,0.0,0.0,0.0,0.0,0.0,0.0,0.0,0.0,0.0,0.0,0.0,0.0,0.0,4.1178,4.1827,4.4617,4.5616,4.3397,4.5539,4.7469,4.8487,5.0996,5.3197,5.4823,5.5444,5.6568,5.8283,5.8631,5.9174,6.003,6.0346,6.0796,6.1383,6.1421,6.2061,6.3152,6.3152,6.346,6.3924,6.3423,6.3152,6.3113,6.2531,6.0974,5.8866,5.8248,5.7998,5.8002,5.8037,5.8664,5.9476,5.9449,5.9359,5.9049,5.7823,5.736,5.7158,5.6297,5.6366,5.6589,5.6,5.6202,5.6703,5.7286,5.744,5.7594,5.8165,5.8313,5.8121,5.7544,5.6973,5.6434,5.5895,5.301,5.024,4.8812,4.9043,4.9005,4.7894,4.8663,4.9889,5.1361,5.1048,5.0664,5.0664,5.0433,5.0005,4.9428,4.8582,4.8235,4.8509,4.8005,4.7812,4.8082,4.8184,4.7318,4.5364,4.3713,4.066,3.611,0.0,0.0,0.0,0.0,0.0,0.0,0.0,0.0,0.0,0.0,0.0,0.0,0.0,0.0,0.0,0.0,0.0,0.0,0.0,0.0,0.0,0.0,0.0,3.97,4.3428,4.6115,4.6206,4.993,5.1522,4.9087,5.1806,5.3749,5.3712,5.5309,5.667,5.7561,5.76,5.8379,6.0054,6.0942,6.1796,6.2658,6.362,6.4126,6.4166,6.4291,6.4336,6.4375,6.4375,6.4375,6.4375,6.4375,6.4375,6.4375,6.4375,6.4375,6.418,6.2321,6.1597,6.1604,6.1717,6.2304,6.3006,6.2884,6.2703,6.2264,6.0621,5.9963,5.965,5.888,5.8563,5.8467,5.8467,5.8467,5.8467,5.8429,5.8429,5.839,5.8396,5.8396,5.8396,5.8396,5.8352,5.8352,5.8352,5.5621,5.3082,5.2154,5.1962,5.1923,5.1923,5.1923,0.0,5.3082,5.3197,5.3197,5.3197,5.2428,5.1923,5.1885,4.9659,4.8548,4.9356,4.7889,4.7312,4.812,4.812,4.7774,4.7005,4.3689,4.1201,3.9609,0.0,0.0,0.0,0.0,0.0,0.0,0.0,0.0,0.0,0.0,0.0,0.0,0.0,0.0,0.0,0.0,0.0,0.0,0.0,0.0,0.0,0.0,4.4093,4.4226,4.631,4.8719,5.1215,5.3112,5.4232,5.4269,5.5678,5.6593,5.6705,5.7617,5.8823,6.0307,6.0386,6.1207,6.2925,6.3317,6.3578,6.3813,6.4094,6.4566,6.5191,6.5234,6.5586,6.6172,6.6172,6.6172,6.6172,6.6172,6.6089,6.5982,6.5982,6.591,6.5658,6.4027,6.3382,6.3377,6.3261,6.3377,6.3553,6.3436,6.3328,6.321,6.2601,6.2375,6.2276,6.2045,6.1955,6.1929,6.1929,6.1929,6.1775,6.121,6.1056,6.0902,6.0242,6.0127,6.0127,6.0127,5.9627,5.916,5.916,5.7934,5.6434,5.4895,5.3664,5.2851,5.2851,5.2851,0.0,5.3159,5.3197,5.3197,5.3197,5.3005,5.2582,5.1962,5.1269,5.0428,0.0,4.8971,4.8817,4.9048,4.9048,4.8933,4.8702,4.5359,4.3131,0.0,0.0,0.0,0.0,0.0,0.0,0.0,0.0,0.0,0.0,0.0,0.0,0.0,0.0,0.0,0.0,0.0,0.0,0.0,0.0,0.0,0.0,4.5031,4.8271,4.9999,5.0817,5.2102,5.4374,5.5741,5.6719,5.7297,5.8468,5.9202,5.9291,6.0336,6.1392,6.2403,6.2448,6.3136,6.4543,6.4662,6.4917,6.539,6.5742,6.6172,6.668,6.6986,6.737,6.7877,6.7776,6.7722,0.0,6.783,6.7785,6.7707,6.7707,6.7635,0.0,0.0,0.0,0.0,0.0,6.4849,6.4761,6.4674,6.4594,6.447,6.399,6.3852,6.3775,6.3429,6.3314,6.3314,6.3314,6.3314,6.3198,6.2704,6.2589,6.2474,6.1973,6.1858,6.1858,6.1858,6.1166,6.0589,6.0589,0.0,0.0,5.7473,5.6203,5.5352,5.5352,5.5049,5.478,5.478,5.4472,5.4241,5.4241,5.3933,5.3549,5.3044,5.2005,0.0,0.0,0.0,4.8856,4.8856,4.8856,0.0,0.0,0.0,0.0,0.0,0.0,0.0,0.0,4.3806,4.3385,0.0,0.0,0.0,0.0,0.0,0.0,0.0,0.0,0.0,0.0,0.0,0.0,0.0,0.0,0.0,0.0,4.8712,5.1761,5.5683,5.5859,5.5851,5.6461,5.8001,5.9009,5.9126,6.0568,6.1502,6.1502,6.2925,6.381,6.3926,0.0,0.0,0.0,0.0,6.61,6.7147,6.7969,6.8359,6.8359,6.8913,6.9188,6.9185,6.8975,6.8893,6.8903,6.9085,6.9165,6.9116,6.9116,6.9107,6.8931,6.7304,6.6655,6.6634,6.6634,6.6518,6.6375,6.6375,0.0,0.0,6.5282,6.4974,6.4743,6.3968,6.366,6.3583,6.3583,6.3583,6.3583,6.3468,6.3468,6.3429,6.3314,6.3314,6.3314,6.3314,6.2743,6.2249,6.2249,6.0973,5.9896,5.9819,5.8973,5.8313,5.8313,5.7627,5.7132,5.7132,5.6478,5.5978,5.5978,0.0,0.0,5.478,5.2631,5.1471,5.2005,4.9813,4.8543,4.8543,4.862,4.8735,4.8812,4.9586,5.0399,5.1284,5.2741,5.3972,5.4741,4.6966,4.6278,0.0,0.0,0.0,0.0,0.0,0.0,0.0,0.0,0.0,0.0,0.0,0.0,0.0,0.0,0.0,4.8647,5.2282,5.5348,5.6788,5.8044,5.893,5.9201,6.0104,6.0996,6.1702,6.2672,6.3294,6.3294,6.3507,6.3912,6.4567,6.4619,0.0,6.6937,6.7265,6.7834,6.8743,6.9096,6.9219,6.918,0.0,0.0,6.9185,6.8975,6.8893,6.8893,6.8932,6.8868,6.8713,6.8713,6.8636,6.8536,6.8273,6.8091,6.8001,6.8001,6.8004,6.7949,6.7949,6.7949,6.7891,6.7737,6.7205,6.6596,6.6404,6.5897,0.0,6.5397,6.5397,6.5243,6.4551,6.4359,6.4166,6.3468,6.3314,6.3314,6.3314,6.316,6.3083,6.3083,6.2814,6.2358,6.171,5.9742,5.8313,5.8313,5.8165,5.805,5.805,5.7896,5.7819,5.7819,5.7665,5.728,5.6593,5.5401,5.4203,5.3005,5.1813,5.1159,5.1159,5.1851,5.2549,5.3241,5.3433,5.3939,5.4747,5.5054,5.6011,5.7511,5.4434,5.4016,0.0,0.0,0.0,0.0,0.0,0.0,0.0,0.0,0.0,0.0,0.0,4.1552,4.3662,0.0,5.0431,5.2456,5.4909,5.6953,5.8177,5.9436,6.0302,6.039,6.1134,6.1986,6.2799,6.3689,6.4193,6.4193,6.4539,6.512,6.5925,6.5937,6.6587,6.7953,6.8148,6.8561,6.9187,6.9735,7.0031,7.0039,7.024,7.0352,7.0344,7.0054,6.9918,6.9923,7.0019,7.0005,6.9889,6.9889,6.9805,6.9642,6.9725,6.9193,6.8391,6.8391,6.8391,6.8391,6.8391,6.8391,6.8391,6.8391,6.8122,6.7744,6.7744,6.7475,6.7167,6.7167,6.7167,6.6936,6.609,6.5859,6.5628,6.4782,6.4589,6.4589,6.4589,6.4275,6.3929,6.3929,6.3583,6.316,6.2781,6.1666,6.0506,5.9665,5.9165,5.8896,5.8896,5.855,5.8313,5.8313,5.8313,5.8127,5.7703,5.6863,5.5824,5.4511,5.4049,5.3818,5.3818,5.4203,5.4664,5.5088,5.5972,5.6588,5.7011,5.8286,5.9363,6.0204,5.9704,5.9511,0.0,0.0,0.0,0.0,0.0,0.0,0.0,0.0,3.8434,4.1016,4.358,4.6149,4.8946,5.1432,5.3799,5.6025,5.6994,5.8017,5.955,6.0358,6.0864,6.1018,6.1941,6.2826,6.3506,6.4359,6.4859,6.4859,6.5628,6.6404,6.7058,6.725,6.7787,6.8789,6.8852,6.9071,6.9589,7.0321,7.0761,7.0848,7.1263,7.1424,7.1412,7.1062,7.0898,7.0912,7.1068,7.1137,7.1137,7.1137,7.1071,7.0898,7.0898,7.009,6.8891,6.8891,6.8891,6.8891,6.8891,6.8891,6.8891,6.8891,6.8776,6.866,6.866,6.8545,6.8391,6.8391,6.8391,6.8237,6.7513,6.7359,6.7205,6.6551,6.6244,6.6134,6.6134,6.5474,6.4859,6.4859,6.4282,6.3737,6.3583,6.3545,6.3045,6.1512,6.055,6.0012,6.0012,5.9281,5.8781,5.8781,5.8781,5.8704,5.855,5.7901,5.7132,5.6242,5.6203,5.628,5.6434,5.6439,5.6593,5.694,5.8319,5.9127,5.9275,6.132,6.2518,6.2864,6.3512,6.3474,3.4475,3.4142,3.5127,3.8002,3.8302,3.9449,0.0,0.0,4.5461,4.8049,5.0641,5.2529,5.2802,5.4927,5.6943,5.7895,5.8682,5.955,6.0512,6.0748,6.1095,6.1864,6.3364,6.4359,6.4436,6.5243,6.5743,6.5743,6.6519,6.7019,6.7096,6.7821,6.8642,6.9566,6.9695,7.0162,7.0951,7.1233,7.1404,7.142,7.1279,7.1223,7.1213,7.0998,7.0898,7.0898,7.09,7.092,7.092,7.092,7.0932,7.0898,7.0898,7.0783,7.0629,7.0629,7.0629,7.0629,7.0629,7.0629,7.0629,7.0629,7.0129,6.9552,6.9552,6.9007,6.8391,6.8391,6.8391,6.8391,6.8276,6.8237,6.8237,6.8122,6.7513,6.6981,6.6981,6.6327,6.5743,6.5743,6.5667,6.5359,6.4589,6.4436,6.4128,6.316,6.232,6.1826,6.1826,6.1056,6.0512,6.0512,6.0512,6.0204,5.9435,5.9281,5.8858,5.805,5.8011,5.8319,5.905,5.9088,5.9781,6.1364,6.1595,6.2018,6.2737,6.3045,6.3974,6.548,6.5557,6.5557,4.0469,4.0397,4.0777,4.2266,4.3444,4.4968,4.7798,4.8613,4.9194,5.0768,5.3093,5.4804,5.4747,5.6811,5.8631,0.0,6.0127,6.0979,6.0825,6.1627,6.2012,6.1402,6.282,6.4045,6.4551,6.5397,6.5904,6.5904,6.6635,6.7327,6.7821,6.866,6.9552,7.036,7.0465,7.0699,7.1216,7.1285,7.1365,7.1517,7.1304,7.1216,7.1211,7.0979,7.0898,7.0898,7.0898,7.0898,7.0898,7.0898,7.0898,7.0898,7.0898,7.0898,7.0898,7.0898,7.0898,7.0898,7.0898,7.0898,7.0898,7.0898,7.0667,7.0398,7.0398,7.0129,6.986,6.986,6.986,6.9744,6.9276,6.9161,6.9045,6.8507,6.8122,6.7859,6.7859,6.759,6.7205,6.6712,6.6596,6.6327,6.5513,6.5359,6.5243,6.4859,6.3666,6.2781,6.2781,6.2474,6.2243,6.2243,6.2243,6.2121,6.1737,6.1698,6.1583,6.1237,6.1198,6.1352,6.1698,6.1698,6.2044,6.2781,6.3281,6.3974,6.482,6.5282,6.6167,6.7359,6.7359,6.7628,4.3941,4.4528,4.5162,4.5694,4.7662,4.955,4.9739,5.085,5.1996,5.2631,5.4516,5.6055,5.6055,5.7934,5.9511,5.9511,6.0979,6.1787,6.0941,6.1858,6.2089,6.0627,6.1512,6.2583,6.3474,6.4743,6.5628,6.5859,6.6859,6.7744,6.8353,6.9436,7.0283,7.0898,7.0898,7.0979,7.1137,7.1137,7.1206,7.1348,7.1201,7.1137,7.1092,7.0979,7.0898,7.0898,7.0898,7.0898,7.0898,7.0898,7.0898,7.0898,7.0898,7.0898,7.0898,7.0898,7.0898,7.0898,7.0898,7.0898,7.0898,7.0898,7.0898,7.0898,7.0898,7.0898,7.0898,7.0898,7.0898,7.0783,7.0167,7.0014,6.986,6.9237,6.893,6.8776,6.8776,6.8584,6.8199,6.759,6.7475,6.7282,6.6705,6.6397,6.6244,6.6244,6.4974,6.3929,6.3698,6.3468,6.3314,6.3314,6.3314,6.3314,6.3314,6.3314,6.3314,6.3314,6.3314,6.3429,6.366,6.366,6.3891,6.4359,6.4974,6.5705,6.659,6.7167,6.7898,6.8776,6.8776,6.9353,4.241,4.3964,4.6257,4.795,5.0209,5.2225,5.305,5.3853,5.4406,5.4406,5.5791,5.6945,5.6945,5.8363,5.9511,5.9511,6.0979,6.1787,6.0941,6.0825,6.055,5.9665,5.9588,5.9973,0.0,6.3166,6.4974,6.5827,6.7436,6.8353,6.8391,6.9975,7.086,7.0898,7.0898,7.0905,7.0912,7.0912,7.0919,7.0932,7.0919,7.0912,7.0912,7.0905,7.0898,7.0898,7.0898,7.0898,7.0898,7.0898,7.0898,7.0898,7.0898,7.0898,7.0898,7.0898,7.0898,7.0898,7.0898,7.0898,7.0898,7.0898,7.0898,7.0898,7.0898,7.0898,7.0898,7.0898,7.0898,7.0898,7.086,7.086,7.086,7.0821,7.0244,6.9667,6.9667,6.9007,6.8391,6.8353,6.8353,6.8353,6.8314,6.7628,6.7058,6.7058,6.6365,6.5513,6.4666,6.3814,6.3314,6.3314,6.3314,6.3314,6.3314,6.3314,6.3314,6.3314,6.3314,6.366,6.4551,6.4551,6.532,6.6942,6.7019,6.7436,6.8314,6.8353,6.8814,6.9667,6.9667,7.0552,4.582,4.734,4.8881,5.1164,5.273,5.3899,5.4752,5.5117,5.5285,5.5285,5.5747,5.6132,5.6132,5.7055,5.8017,5.8627,6.0594,6.1787,6.0941,6.2243,6.2166,5.9088,6.0204,0.0,0.0,0.0,0.0,6.4974,6.7122,6.8391,6.8391,6.9975,7.0898,7.0898,7.0898,7.0898,7.0898,7.0898,7.0898,7.0898,7.0898,7.0898,7.0898,7.0898,7.0898,7.0898,7.0898,7.0898,7.0898,7.0898,7.0898,7.0898,7.0898,7.0898,7.0898,7.0898,7.0898,7.0898,7.0898,7.0898,7.0898,7.0898,7.0898,7.0898,7.0898,7.0898,7.0898,7.0898,7.0898,7.0898,7.0898,7.0898,7.0898,7.0898,7.0706,7.0514,7.0514,7.0283,6.9898,6.936,6.9244,6.909,6.8507,6.816,6.7975,6.7975,6.6782,6.5788,6.5513,6.5205,6.5013,6.5013,6.5013,6.5013,6.5013,6.5013,6.5013,6.5013,6.5013,6.5397,6.6205,6.6244,6.6782,6.7936,6.7975,6.8391,6.9244,6.9244,6.9706,7.0514,7.0514,7.1091,4.8076,4.9842,5.1434,5.3678,5.5041,5.5895,5.6132,5.617,5.5978,5.5401,5.5011,5.4703,5.4395,5.478,5.5665,5.7126,5.9511,6.1172,6.1248,6.2672,6.2589,5.955,6.0358,6.0864,0.0,0.0,0.0,6.4551,6.6968,6.8391,6.8391,6.9975,7.0898,7.0898,7.0898,7.0898,7.0898,7.0898,7.0898,7.0898,7.0898,7.0898,7.0898,7.0898,7.0898,7.0898,7.0898,7.0898,7.0898,7.0898,7.0898,7.0898,7.0898,7.0898,7.0898,7.0898,7.0898,7.0898,7.0898,7.0898,7.0898,7.0898,7.0898,7.0898,7.0898,7.0898,7.0898,7.0898,7.0898,7.0898,7.0898,7.0898,7.0898,7.0898,7.0898,7.0898,7.0898,7.0898,7.0744,7.0244,7.0129,6.9937,6.9391,6.9045,6.8776,6.8468,6.7468,6.6667,6.6365,6.6096,6.5904,6.5904,6.5904,6.6019,6.6288,6.6327,6.6481,6.6782,6.6782,6.7013,6.7552,6.7552,6.7975,6.8853,6.8853,6.9276,7.0129,7.0129,7.0398,7.0898,7.0898,7.136,4.9163,5.1471,5.378,5.5434,5.7049,5.8017,5.7192,5.6923,5.6428,5.4783,5.369,5.2756,5.1828,5.1741,5.2659,5.5126,5.778,6.0165,6.1864,6.221,6.1941,0.0,0.0,0.0,0.0,0.0,0.0,6.4589,0.0,6.843,6.8468,7.0014,7.0898,7.0898,7.0898,7.0898,7.0898,7.0898,7.0898,7.0898,7.0898,7.0898,7.0898,7.0898,7.0898,7.0898,7.0898,7.0898,7.0898,7.0898,7.0898,7.0898,7.0898,7.0898,7.0898,7.0898,7.0898,7.0898,7.0898,7.0898,7.0898,7.0898,7.0898,7.0898,7.0898,7.0898,7.0898,7.0898,7.0898,7.0898,7.0898,7.0898,7.0898,7.0898,7.0898,7.0898,7.0898,7.0898,7.0898,7.0898,7.0898,7.0898,7.0898,7.0283,6.9475,6.866,6.8507,6.816,6.7289,6.6519,6.6013,6.6013,6.6013,6.632,6.7096,6.7173,6.7513,6.8353,6.8391,6.843,6.8468,6.8468,6.8853,6.9744,6.9744,7.0129,7.0898,7.0898,7.0898,7.0898,7.0898,7.136,5.2395,5.4593,5.6285,5.7357,5.7473,5.7301,5.7187,5.617,5.501,5.404,5.2069,5.0032,4.8512,4.9774,0.0,5.2659,5.7126,0.0,6.1941,6.3711,0.0,6.2018,0.0,6.2897,6.1864,6.3281,0.0,0.0,6.7321,6.866,6.9321,7.036,7.0898,7.0898,7.0898,7.0898,7.0898,7.0898,7.0898,7.0898,7.0898,7.0898,7.0898,7.0898,7.0898,7.0898,7.0898,7.0898,7.0898,7.0898,7.0898,7.0898,7.0898,7.0898,7.0898,7.0898,7.0898,7.0898,7.0898,7.0898,7.0898,7.0898,7.0898,7.0898,7.0898,7.0898,7.0898,7.0898,7.0898,7.0898,7.0898,7.0898,7.0898,7.0898,7.0898,7.0898,7.0898,7.0898,7.0898,7.0898,7.0898,7.0898,7.0898,7.0744,7.0514,7.0283,6.9744,6.9052,6.8167,6.7891,6.7776,6.7776,6.7776,6.7853,6.8045,6.809,6.816,6.8391,6.8391,6.8699,6.936,6.936,6.9744,7.0591,7.0591,7.0706,7.0898,7.0898,7.0898,7.0898,7.0898,7.136,5.4395,5.6516,5.8204,5.8704,5.8473,5.7747,5.6319,5.5054,5.3356,5.0678,4.8658,4.6812,4.5095,4.6491,4.8668,0.0,0.0,0.0,6.2281,6.4205,6.4782,0.0,6.4359,0.0,6.3865,6.5282,6.6628,0.0,6.8084,6.8776,6.9667,7.0475,7.0898,7.0898,7.0898,7.0898,7.0898,7.0898,7.0898,7.0898,7.0898,7.0898,7.0898,7.0898,7.0898,7.0898,0.0,7.0898,7.0898,7.0898,7.0898,7.0898,7.0898,7.0898,7.0898,7.0898,7.0898,7.0898,7.0898,7.0898,7.0898,7.0898,7.0898,7.0898,7.0898,7.0898,7.0898,7.0898,7.0898,7.0898,7.0898,7.0898,7.0898,7.0898,7.0898,7.0898,7.0898,7.0898,7.0898,7.0898,7.0688,7.063,7.0871,7.0898,7.0898,7.0898,7.0514,7.0052,6.9545,6.8853,6.8391,6.8391,6.8391,6.8545,6.893,6.8968,6.9122,6.9468,6.9507,6.9706,7.0206,7.0244,7.0437,7.0898,7.0898,7.0898,7.0898,7.0898,7.0898,7.0898,7.0898,7.136,5.5818,5.7819,5.9627,5.9511,5.9319,5.8336,5.5093,5.3533,5.1374,4.6587,4.4778,4.3528,4.191,4.3086,4.5693,4.9865,0.0,5.8462,6.2698,6.4045,6.4628,6.4743,6.5513,6.6051,6.6051,6.7475,6.8776,6.9629,6.9007,6.893,6.9821,7.0514,7.0898,7.0898,7.0898,7.0898,7.0898,7.0898,7.0898,7.0898,7.0898,7.0898,7.0898,7.0898,7.0898,7.0898,0.0,0.0,7.0898,7.0898,7.0898,7.0898,7.0898,7.0898,7.0898,7.0898,7.0898,7.0898,7.0898,7.0898,7.0898,7.0898,7.0898,7.0898,7.0898,7.0898,7.0898,7.0898,7.0898,7.0898,7.0898,7.0898,7.0898,7.0898,7.0898,7.0898,7.0898,7.0898,7.0898,7.0898,7.0517,7.0346,7.0805,7.0898,7.0898,7.0898,7.0898,7.0898,7.0898,6.9622,6.8737,6.8737,6.8737,6.9045,6.9783,6.986,7.0167,7.086,7.0898,7.0898,7.0898,7.0898,7.0898,7.0898,7.0898,7.0898,7.0898,7.0898,7.0975,7.1052,7.1052,7.1552,5.7627,5.9165,6.0396,5.9665,5.8467,5.6804,5.4333,5.1462,4.8548,4.5711,4.3241,4.1274,4.0192,4.2446,4.5592,4.9076,5.3774,5.8462,6.2698,6.4045,6.4859,0.0,6.6404,0.0,0.0,0.0,0.0,0.0,0.0,6.9821,7.0667,7.0821,7.0898,7.0898,7.0898,7.0898,7.0898,7.0898,7.0898,7.0898,7.0898,7.0898,7.0898,7.0898,7.0898,7.0898,7.0898,0.0,7.0898,7.0898,7.0898,7.0898,7.0898,7.0898,7.0898,7.0898,7.0898,7.0898,7.0898,7.0898,7.0898,7.0898,7.0898,7.0898,7.0898,7.0898,7.0898,7.0898,7.0898,7.0898,7.0898,7.0898,7.0898,7.0898,7.0898,7.0898,7.0898,7.0898,7.0898,7.0898,7.0812,7.0784,7.0885,7.0898,7.0898,7.0898,7.0898,7.0898,7.0898,7.0667,7.0475,7.0475,7.0475,7.0514,7.0667,7.0706,7.0744,7.0898,7.0898,7.0898,7.0898,7.0898,7.0898,7.0898,7.0898,7.0898,7.0898,7.0898,7.1283,7.1982,7.1982,7.2437,5.805,5.9511,6.0589,5.9704,5.8301,5.6014,5.1784,4.8634,4.5366,4.1151,3.9235,3.808,3.7153,4.0039,4.3455,4.6383,5.0721,5.5511,6.0621,6.2089,0.0,6.5628,6.7013,0.0,0.0,0.0,0.0,0.0,0.0,7.0475,7.0898,7.0898,7.0898,7.0898,7.0898,7.0898,7.0898,7.0898,7.0898,7.0898,7.0898,7.0898,7.0898,7.0898,7.0898,7.0898,7.0898,0.0,7.0898,7.0898,7.0898,7.0898,7.0898,7.0898,7.0898,7.0898,7.1206,7.1598,7.1598,7.186,7.2238,7.2238,7.1629,7.0898,7.0898,7.0898,7.0898,7.0898,7.0898,7.0898,7.0898,7.0898,7.0898,7.0898,7.0898,7.0898,7.0898,7.0666,7.0585,7.0864,7.0666,7.0554,7.0864,7.0898,7.0898,7.0898,7.0898,7.0898,7.0898,7.0898,7.0898,7.0898,7.0898,7.0898,7.0898,7.0898,7.0898,7.0898,7.0898,7.0898,7.0898,7.0898,7.0898,7.0898,7.0898,7.1129,7.1598,7.1598,7.2014,7.2899,7.2899,7.3315,5.8011,5.9242,6.0089,5.9396,5.7805,5.4919,4.9357,4.5964,4.244,3.7038,3.5757,3.5483,3.4963,3.7817,4.1203,4.4259,4.7807,5.2329,5.8401,6.0127,6.2018,0.0,6.7282,0.0,0.0,0.0,0.0,0.0,0.0,0.0,7.0898,7.0898,7.0898,7.0898,7.0898,7.0898,7.0898,7.0898,7.0898,7.0898,7.0898,7.0898,7.0898,7.0898,7.0898,7.0898,7.0898,0.0,0.0,7.0898,7.0898,7.0898,7.0898,7.0898,7.0937,7.1091,7.1591,7.2213,7.2399,7.2937,7.3507,7.3507,7.2437,7.1168,7.1168,7.1052,7.0898,7.0898,7.0898,7.0898,7.0898,7.0898,7.0898,7.0898,7.0898,7.0898,7.0898,7.0585,7.0416,7.0805,7.0539,7.0424,7.0812,7.0898,7.0898,7.0898,7.0898,7.0898,7.0898,7.0898,7.0898,7.0898,7.0898,7.0898,7.0898,7.0898,7.0898,7.0898,7.0898,7.0898,7.0898,7.1091,7.1168,7.1168,7.136,7.1783,7.2476,7.2476,7.2937,7.3776,7.3776,7.4315,5.7857,5.839,5.8511,5.8429,5.6059,5.262,4.8287,4.4228,4.0349,3.6716,3.5351,3.4997,3.5668,3.7325,4.0142,4.4831,4.7244,5.0842,5.7495,5.9781,6.1781,6.4397,0.0,0.0,0.0,0.0,0.0,0.0,0.0,0.0,7.0898,7.0898,7.0898,7.0898,7.0898,7.0898,7.0898,7.0898,7.0898,7.0898,7.0898,7.0898,7.0898,7.0898,7.0898,7.0898,7.0898,0.0,0.0,7.0898,7.0898,7.0898,7.0898,7.0898,7.1014,7.1783,7.2136,7.2322,7.3129,7.343,7.3507,7.3507,7.286,7.2098,7.2098,7.1514,7.0898,7.0898,7.0898,7.0898,7.0898,7.0898,7.0898,7.0898,7.0898,7.0898,7.0898,7.0871,7.0857,7.0891,7.0871,7.0857,7.0891,7.0898,7.0898,7.0898,7.0898,7.0898,7.0898,7.0898,7.0898,7.0898,7.0898,7.0898,7.0898,7.0898,7.0898,7.0898,7.0898,7.0898,7.0898,7.1668,7.2098,7.2098,7.286,7.3315,7.3392,7.3392,7.3815,7.4584,7.4584,7.5476,5.628,5.7511,5.805,5.7011,5.5127,5.214,4.6846,4.288,3.9212,3.5234,3.3789,3.3437,3.4252,3.5756,3.8002,4.1429,4.2959,4.5893,5.2073,5.3977,5.6593,6.1704,0.0,0.0,0.0,0.0,0.0,0.0,0.0,0.0,7.0898,7.0898,7.0898,7.0898,7.0898,7.0898,7.0898,7.0898,7.0898,7.0898,7.0898,7.0898,7.0898,7.0898,7.0898,7.0898,7.0898,0.0,0.0,7.0898,7.0898,7.0898,7.0898,7.0898,7.1014,7.1867,7.2514,7.3091,7.393,7.4584,7.5014,7.5014,7.4437,7.363,7.3129,7.2745,7.2469,7.2469,7.2469,7.2469,7.2469,7.2469,7.2322,7.1822,7.2091,7.2161,7.1129,7.1321,7.1514,7.1014,7.0898,7.0898,7.0898,7.0898,7.0898,7.0898,7.0898,7.0898,7.0898,7.0898,7.0898,7.0898,7.0898,7.0898,7.0898,7.0898,7.1129,7.1629,7.1668,7.1937,7.243,7.2783,7.2976,7.2976,7.3315,7.3738,7.4199,7.4199,7.4661,7.5515,7.6015,7.663,5.4487,5.5943,5.6686,5.573,5.3963,5.1149,4.5873,4.1986,3.8359,3.4258,3.2969,3.2734,3.3281,3.4798,3.6712,3.9099,4.0405,4.306,4.8619,5.0592,5.3477,0.0,0.0,0.0,0.0,0.0,0.0,0.0,0.0,0.0,0.0,7.0898,7.0898,7.0898,7.0898,7.0898,7.0898,7.0898,7.0898,7.0898,7.0898,7.0898,7.0898,7.0898,7.0898,7.0898,0.0,0.0,0.0,7.0898,7.0898,7.0898,7.0898,7.0898,7.1052,7.2168,7.2976,7.3661,7.47,7.5476,7.6015,7.6015,7.5592,7.4976,7.4392,7.3892,7.3507,7.3507,7.3507,7.3507,7.3507,7.3507,7.3353,7.2745,7.3053,7.3161,7.1937,7.2168,7.2399,7.1783,7.1668,7.1668,7.1668,7.1668,7.1668,7.1668,7.1668,7.1668,7.1668,7.1668,7.1668,7.1668,7.1668,7.1552,7.1321,7.1514,7.1937,7.2552,7.2591,7.286,7.3469,7.3738,7.3853,7.3853,7.4123,7.4514,7.5091,7.5361,7.5784,7.6399,7.7253,7.7792,5.2743,5.3524,5.3833,5.4683,5.2399,4.9037,4.5595,4.1583,3.7617,3.4101,3.3398,3.3398,3.3398,3.4805,3.6787,3.9112,4.0935,4.3787,4.8714,5.1587,5.4126,0.0,0.0,0.0,0.0,0.0,0.0,0.0,0.0,0.0,0.0,7.0898,7.0898,7.0898,7.0898,7.0898,7.0898,7.0898,7.0898,7.0898,7.0898,7.0898,7.0898,7.0898,7.0898,0.0,0.0,0.0,0.0,7.0898,7.0898,7.0898,7.0898,7.0898,7.1129,7.2853,7.3507,7.3738,7.5399,7.5976,7.6015,7.6015,7.5976,7.5976,7.5976,7.4822,7.3507,7.3507,7.3507,7.3507,7.3507,7.3507,7.3507,7.3507,7.3507,7.3507,7.3469,7.3469,7.3469,7.3469,7.3469,7.3469,7.3469,7.3469,7.3469,7.3469,7.3469,7.3469,7.3469,7.3469,7.3469,7.3469,7.3469,7.3129,7.2252,7.2976,7.3469,7.3507,7.3507,7.3507,7.3507,7.4276,7.47,7.47,7.5515,7.5976,7.5976,7.6861,7.7292,7.733,7.8099,7.8938,4.8777,5.0045,5.0742,4.9845,4.8456,4.6419,4.2984,3.9867,3.6875,3.3984,3.2969,3.2734,3.3281,3.4336,3.6285,3.9942,4.0917,4.275,4.72,0.0,0.0,0.0,0.0,0.0,0.0,0.0,0.0,0.0,0.0,0.0,0.0,7.0898,7.0898,7.0898,7.0898,7.0898,7.0898,7.0898,7.0898,7.0898,7.0898,7.0898,7.0898,7.0898,0.0,0.0,0.0,0.0,0.0,7.0898,7.0898,7.0898,7.0898,7.1245,7.1937,7.3084,7.3853,7.4469,7.563,7.6015,7.6015,7.6015,7.6015,7.6015,7.6015,7.563,7.5207,7.5207,7.5207,7.5207,7.5207,7.5207,7.5053,7.4469,7.4776,7.4899,7.3738,7.393,7.4161,7.3623,7.3507,7.3507,7.3507,7.3507,7.3507,7.3507,7.3507,7.3507,7.3507,7.3507,7.3507,7.3507,7.4007,7.3969,7.3168,7.3353,7.3738,7.4276,7.4315,7.4584,7.5168,7.5438,7.5592,7.5592,7.6438,7.6899,7.6899,7.7715,7.8438,7.9015,7.9285,7.9862,4.5175,4.687,4.7756,4.7056,4.6039,4.4388,4.1304,3.8627,3.6055,3.3476,3.2539,3.2461,3.3242,3.41,3.5732,3.8988,4.0244,4.2039,4.5635,0.0,0.0,0.0,0.0,0.0,0.0,0.0,0.0,0.0,0.0,0.0,0.0,7.0898,7.0898,7.0898,7.0898,7.0898,7.0898,7.0898,7.0898,7.0898,7.0898,7.0898,7.0898,7.0898,0.0,0.0,0.0,0.0,0.0,7.0898,7.0898,7.0898,7.0898,7.1437,7.2329,7.3161,7.4007,7.4815,7.5707,7.6015,7.6015,7.6015,7.6015,7.6015,7.6015,7.6015,7.6015,7.6015,7.6015,7.6015,7.6015,7.6015,7.5861,7.5322,7.563,7.5707,7.4661,7.4853,7.5053,7.4546,7.443,7.443,7.443,7.443,7.443,7.443,7.443,7.443,7.443,7.443,7.443,7.443,7.4892,7.4976,7.4469,7.443,7.4661,7.5168,7.52,7.5592,7.6438,7.6476,7.663,7.6938,7.7484,7.7753,7.7753,7.8592,7.9438,8.0277,8.0277,8.0746,0.0,4.37,4.4648,4.5469,4.4414,4.2539,4.0156,3.7656,0.0,3.2695,3.2187,3.2461,3.3398,3.4129,3.5236,3.7267,3.9468,4.1847,0.0,4.8596,0.0,0.0,0.0,0.0,0.0,0.0,0.0,0.0,0.0,0.0,0.0,7.0898,7.0898,7.0898,7.0898,7.0898,7.0898,7.0898,7.0898,7.0898,7.0898,7.0898,7.0898,7.0898,0.0,0.0,0.0,0.0,0.0,7.0898,7.0898,7.0898,7.0898,7.1475,7.2406,7.3199,7.4046,7.4892,7.5707,7.6015,7.6015,7.6015,7.6015,7.6015,7.6015,7.6015,7.6015,7.6015,7.6015,7.6015,7.6015,7.6015,7.6015,7.6015,7.6015,7.6015,7.6015,7.6015,7.6015,7.6015,7.6015,7.6015,7.6015,7.6015,7.6015,7.6015,7.6015,7.6015,7.6015,7.6015,7.6015,7.6015,7.6053,7.6092,7.6092,7.6053,7.6015,7.6092,7.6092,7.6476,7.7369,7.7407,7.7753,7.8484,7.8561,7.8638,7.8677,7.9515,8.0323,8.1208,8.1208,8.1631,3.6131,0.0,3.9141,3.9375,3.8594,3.7656,0.0,3.5391,3.3672,3.2461,3.2187,3.2851,3.5,3.495,3.6264,4.1324,4.2415,4.3781,4.7082,0.0,0.0,0.0,0.0,0.0,0.0,0.0,0.0,0.0,0.0,0.0,0.0,7.0898,7.0898,7.0898,7.0898,7.0898,7.0898,7.0898,7.0898,7.0898,7.0898,7.0898,7.0898,7.0898,0.0,0.0,0.0,0.0,7.0898,7.0898,7.0898,7.0898,7.0898,7.186,7.3199,7.343,7.443,7.5707,7.5938,7.6015,7.6015,7.6015,7.6015,7.6015,7.6015,7.6015,7.6015,7.6015,7.6015,7.6015,7.6015,7.6015,7.6015,7.6015,7.6015,7.6015,7.6015,7.6015,7.6015,7.6015,7.6015,7.6015,7.6015,7.6015,7.6015,7.6015,7.6015,7.6015,7.6015,7.6015,7.6015,7.6015,7.6592,7.6984,7.6984,7.6361,7.6284,7.6938,7.6984,7.7369,7.8176,7.8215,7.8292,7.8484,7.9131,7.9823,8.0477,8.0708,8.1208,8.2016,8.2016,8.2485,3.2695,3.5078,3.7383,3.7812,3.7226,3.6484,3.6094,3.4375,3.2617,3.1797,3.1914,3.2851,3.5,3.5559,3.7046,4.1196,4.2963,0.0,0.0,0.0,0.0,0.0,0.0,0.0,0.0,0.0,0.0,0.0,0.0,0.0,0.0,7.0898,7.0898,7.0898,7.0898,7.0898,7.0898,7.0898,7.0898,7.0898,7.0898,7.0898,7.0898,7.0898,7.0898,0.0,0.0,0.0,7.0898,7.0898,7.0898,7.0898,7.0898,7.1975,7.3507,7.3507,7.4546,7.6015,7.6015,7.6015,7.6015,7.6015,7.6015,7.6015,7.6015,7.6015,7.6015,7.6015,7.6015,7.6015,7.6015,7.6015,7.6015,7.6015,7.6015,7.6015,7.6015,7.6015,7.6015,7.6015,7.6015,7.613,7.6515,7.6592,7.6707,7.7099,7.7138,7.7138,7.7138,7.7138,7.7138,7.7138,7.7561,7.7869,7.7869,7.74,7.7369,7.783,7.7869,7.8215,7.9054,7.9092,7.9285,7.9669,8.0169,8.0823,8.1631,8.1631,8.2093,8.2909,8.2909,8.3362,3.1367,3.4296,3.7342,3.7694,3.7343,3.6679,3.5937,3.4023,3.2148,3.1445,3.1953,3.3163,3.5116,3.6492,3.8115,4.0467,0.0,0.0,0.0,0.0,0.0,0.0,0.0,0.0,0.0,0.0,0.0,0.0,0.0,0.0,0.0,7.0898,7.0898,7.0898,7.0898,7.0898,7.0898,7.0898,7.0898,7.0898,7.0898,7.0898,7.0898,7.0898,7.0898,0.0,0.0,0.0,7.0898,7.0898,7.0898,7.0898,7.0898,7.1975,7.3507,7.3507,7.4546,7.6015,7.6015,7.6015,7.6015,7.6015,7.6015,7.6015,7.6015,7.6015,7.6015,7.6015,7.6015,7.6015,7.6015,7.6015,7.6015,7.6015,7.6015,7.6015,7.6015,7.6092,7.6207,7.6207,7.6284,7.663,7.7369,7.7484,7.7715,7.8407,7.8484,7.8484,7.8484,7.8484,7.8484,7.8484,7.8638,7.8715,7.8715,7.883,7.8907,7.8907,7.8754,7.9092,7.9977,8.0008,8.04,8.1285,8.1285,8.167,8.2516,8.2516,8.2947,8.3793,8.3793,8.4247,3.3516,3.5576,3.6643,3.4619,3.4583,3.4974,3.4857,3.3957,3.3107,3.3046,3.3662,3.52,3.8362,3.9007,4.0588,0.0,0.0,0.0,0.0,0.0,0.0,0.0,0.0,0.0,0.0,0.0,0.0,0.0,0.0,0.0,0.0,7.0898,7.0898,7.0898,7.0898,7.0898,7.0898,7.0898,7.0898,7.0898,7.0898,7.0898,7.0898,7.0898,7.0898,0.0,0.0,7.0898,7.0898,7.0898,7.0898,7.0898,7.0898,7.1975,7.3507,7.3507,7.4546,7.6015,7.6015,7.6015,7.6015,7.6015,7.6015,7.6015,7.6015,7.6015,7.6015,7.6015,7.6015,7.6015,7.6015,7.6015,7.6015,7.6015,7.6015,7.6015,7.6015,7.6592,7.7099,7.7099,7.7638,7.8176,7.8292,7.833,7.8369,7.8484,7.8484,7.8484,7.8484,7.8484,7.8484,7.8484,7.9169,7.9592,7.9592,8.0285,8.0708,8.0708,8.0015,7.9977,8.0862,8.09,8.1285,8.2093,8.2131,8.2554,8.3409,8.3409,8.3862,8.4709,8.4709,8.5132,3.2221,3.4118,3.5643,3.5284,3.6579,3.7936,3.7936,3.6917,3.595,3.5984,3.6665,3.7889,3.9921,4.1686,4.4474,4.9622,0.0,0.0,0.0,0.0,0.0,0.0,0.0,0.0,0.0,0.0,0.0,0.0,0.0,0.0,0.0,0.0,7.0898,7.0898,7.0898,7.0898,7.0898,7.0898,7.0898,7.0898,7.0898,7.0898,7.0898,7.0898,7.0898,7.0898,0.0,7.0898,7.0898,7.0898,7.0898,7.0937,7.1398,7.2399,7.3623,7.4514,7.5322,7.6015,7.6015,7.6015,7.6015,7.6015,7.6015,7.6015,7.6015,7.6015,7.6015,7.6015,7.6015,7.6015,7.6015,7.6015,7.613,7.6592,7.6707,7.6823,7.7253,7.7676,7.7946,7.7946,7.8253,7.8638,7.9131,7.9208,7.9361,7.9823,7.99,7.99,7.99,7.99,7.99,7.99,8.0246,8.0516,8.0516,8.1285,8.1554,8.1131,8.0708,8.09,8.1708,8.1747,8.2131,8.2986,8.2986,8.3439,8.4286,8.4286,8.4747,8.5547,8.5547,8.6017,3.1779,3.3356,3.526,3.6985,3.8673,4.013,4.1131,3.9876,3.8668,3.9273,4.0078,4.092,4.1781,4.4954,0.0,5.3377,0.0,0.0,0.0,0.0,0.0,0.0,0.0,0.0,0.0,0.0,0.0,0.0,0.0,0.0,0.0,0.0,7.0898,7.0898,7.0898,7.0898,7.0898,7.0898,7.0898,7.0898,7.0898,7.0898,7.0898,7.0898,7.0898,7.0898,7.0898,7.0898,7.0898,7.0898,7.0898,7.0975,7.1867,7.286,7.3969,7.5438,7.6015,7.6015,7.6015,7.6015,7.6015,7.6015,7.6015,7.6015,7.6015,7.6015,7.6053,7.6245,7.6284,7.6284,7.6284,7.6284,7.6515,7.7369,7.7599,7.7753,7.8369,7.8677,7.8792,7.8792,7.8984,7.9323,7.9977,8.0085,8.0323,8.1016,8.1093,8.1093,8.1093,8.1093,8.117,8.1362,8.1362,8.1477,8.167,8.2247,8.2324,8.1708,8.167,8.1939,8.2593,8.2593,8.3016,8.3901,8.3909,8.4324,8.5162,8.5162,8.5508,8.6094,8.6324,8.6748,3.4906,3.5586,3.6219,3.8624,3.8179,3.8208,4.2121,4.1108,3.9985,4.2449,4.3579,4.4379,4.5188,4.9333,5.3564,5.6291,0.0,0.0,0.0,0.0,0.0,0.0,0.0,0.0,0.0,0.0,0.0,0.0,0.0,0.0,0.0,0.0,0.0,7.0898,7.0898,7.0898,7.0898,7.0898,7.0898,7.0898,7.0898,7.0898,7.0898,7.0898,7.0898,7.0898,7.0898,7.0898,7.0898,7.0898,7.0898,7.0975,7.1867,7.3206,7.4738,7.5668,7.6015,7.6015,7.6015,7.6015,7.6015,7.6015,7.6015,7.6015,7.6015,7.6015,7.6169,7.6984,7.7215,7.7215,7.7215,7.7215,7.7407,7.8215,7.8407,7.8446,7.8484,7.9131,7.97,7.97,8.0362,8.0939,8.1016,8.1016,8.1016,8.1093,8.1093,8.1093,8.1093,8.1093,8.14,8.2131,8.2208,8.2554,8.337,8.3486,8.3486,8.3409,8.3409,8.3447,8.3486,8.3524,8.3901,8.4786,8.4816,8.5201,8.6017,8.6017,8.6055,8.6132,8.694,8.7325,3.3187,3.4494,3.6221,3.8701,3.9627,4.077,4.396,4.5186,4.62,4.8221,4.8874,4.9178,4.9486,0.0,5.4857,0.0,0.0,0.0,0.0,0.0,0.0,0.0,0.0,0.0,0.0,0.0,0.0,0.0,0.0,0.0,0.0,0.0,0.0,7.0898,7.0898,7.0898,7.0898,7.0898,7.0898,7.0898,7.0898,7.0898,7.0898,7.0898,7.0898,7.0898,7.0898,7.0898,7.0898,7.0898,7.0898,7.1052,7.2476,7.4014,7.5553,7.5861,7.6015,7.6015,7.6015,7.6015,7.6015,7.6015,7.6015,7.6015,7.6015,7.6361,7.6868,7.7215,7.7676,7.8061,7.8061,7.8061,7.8253,7.9092,7.9323,7.9477,8.0015,8.0362,8.0592,8.0592,8.0862,8.1093,8.1093,8.1093,8.1285,8.1785,8.1862,8.2054,8.2593,8.2639,8.2755,8.3101,8.3101,8.3439,8.4324,8.4401,8.4632,8.5132,8.417,8.3824,8.4401,8.4401,8.4786,8.5632,8.567,8.5786,8.6094,8.6632,8.6901,8.694,8.7786,8.8479,3.2782,3.4121,3.6148,3.8358,4.0354,4.262,4.5706,4.7937,5.0048,5.2274,5.2505,5.239,5.2659,5.3895,0.0,0.0,0.0,0.0,0.0,0.0,0.0,0.0,0.0,0.0,0.0,0.0,0.0,0.0,0.0,0.0,0.0,0.0,0.0,0.0,7.0898,7.0898,7.0898,7.0898,7.0898,7.0898,7.0898,7.0898,7.0898,7.0898,7.0898,7.0898,7.0898,7.0898,7.0898,7.0898,7.1206,7.186,7.3046,7.4514,7.6015,7.6015,7.6015,7.6015,7.6015,7.6015,7.6015,7.6015,7.6015,7.6015,7.6015,7.6592,7.7369,7.7599,7.8253,7.8984,7.9254,7.9131,7.9131,8.0015,8.0208,8.0362,8.0977,8.1093,8.1093,8.1093,8.1093,8.1093,8.1093,8.1323,8.167,8.2208,8.2516,8.2939,8.3524,8.3601,8.3717,8.3978,8.4255,8.4632,8.5247,8.5286,8.5517,8.6055,8.5016,8.467,8.5239,8.5286,8.5547,8.6094,8.6094,8.6247,8.6517,8.7094,8.7555,8.7825,8.8671,8.9363,3.4699,3.5047,3.5994,3.7623,3.9965,4.2966,4.7197,4.8817,5.0433,5.3857,5.3857,5.351,5.4357,5.5208,0.0,0.0,0.0,0.0,0.0,0.0,0.0,0.0,0.0,0.0,0.0,0.0,0.0,0.0,0.0,0.0,0.0,0.0,0.0,0.0,7.0898,7.0898,7.0898,7.0898,7.0898,7.0898,7.0898,7.0898,7.0898,7.0898,7.0898,7.0898,7.0898,7.0898,7.0898,7.0898,7.1937,7.3507,7.3507,7.4514,7.6015,7.6015,7.6015,7.6015,7.6015,7.6015,7.6015,7.6015,7.6015,7.6015,7.6015,7.6592,7.7484,7.8292,7.9131,8.0015,8.09,8.0477,8.0046,8.09,8.1093,8.1093,8.1093,8.1093,8.1093,8.1093,8.1093,8.1093,8.1093,8.1785,8.2324,8.2324,8.3062,8.3601,8.3601,8.3601,8.3939,8.4816,8.5632,8.6094,8.6094,8.6094,8.6094,8.6094,8.6094,8.6094,8.6094,8.6094,8.6094,8.6094,8.6094,8.6555,8.7401,8.7401,8.7863,8.8718,8.9556,8.9893,3.3716,3.5353,3.7679,3.933,4.3474,4.7932,5.1005,5.2356,5.3933,5.7319,5.7357,5.6665,5.6324,5.7434,0.0,0.0,0.0,0.0,0.0,0.0,0.0,0.0,0.0,0.0,0.0,0.0,0.0,0.0,0.0,0.0,0.0,0.0,0.0,0.0,7.0898,7.0898,7.0898,7.0898,7.0898,7.0898,7.0898,7.0898,7.0898,7.0898,7.0898,7.0898,7.0898,7.0898,7.0898,7.0898,7.1937,7.3507,7.3507,7.4514,7.6015,7.6015,7.6015,7.6015,7.6015,7.6015,7.6015,7.6015,7.6015,7.6015,7.6015,7.7015,7.8176,7.8446,7.9554,8.0785,8.1016,8.09,8.0785,8.1054,8.1093,8.1093,8.1093,8.1093,8.1093,8.1093,8.1093,8.1285,8.1862,8.2131,8.2708,8.3939,8.4362,8.4709,8.5286,8.5363,8.5478,8.5709,8.5978,8.6094,8.6094,8.6094,8.6094,8.6094,8.6094,8.6094,8.6094,8.6094,8.6094,8.6094,8.6709,8.7132,8.7401,8.8594,8.9278,8.9556,9.0432,9.0816,3.5452,3.7517,4.0085,4.2431,4.624,5.0433,5.4357,5.5895,5.7165,5.9511,5.9088,5.8242,5.8017,5.8819,0.0,0.0,0.0,0.0,0.0,0.0,0.0,0.0,0.0,0.0,0.0,0.0,0.0,0.0,0.0,0.0,0.0,0.0,0.0,0.0,7.0898,7.0898,7.0898,7.0898,7.0898,7.0898,7.0898,7.0898,7.0898,7.0898,7.0898,7.0898,7.0898,7.0898,7.0898,7.0898,7.1937,7.3507,7.3507,7.4514,7.6015,7.6015,7.6015,7.6015,7.6015,7.6015,7.6015,7.6015,7.6015,7.6015,7.6015,7.7169,7.8484,7.8484,7.9754,8.1093,8.1093,8.1093,8.1093,8.1093,8.1093,8.1093,8.1093,8.1093,8.1093,8.1093,8.1362,8.1747,8.2208,8.2862,8.3708,8.4739,8.5162,8.5547,8.6055,8.6094,8.6094,8.6094,8.6094,8.6094,8.6094,8.644,8.6632,8.6632,8.694,8.7132,8.7132,8.6786,8.6786,8.7132,8.7632,8.8055,8.8402,8.9393,9.0086,9.0432,9.0979,9.121,3.8473,4.0454,4.2658,4.6158,4.8548,5.1548,5.7126,5.905,5.9858,6.0633,5.9588,5.8742,5.9473,5.9742,0.0,0.0,0.0,0.0,0.0,0.0,0.0,0.0,0.0,0.0,0.0,0.0,0.0,0.0,0.0,0.0,0.0,0.0,0.0,7.0898,7.0898,7.0898,7.0898,7.0898,7.0898,0.0,7.0898,7.0898,7.0898,7.0898,7.0898,7.0898,7.0898,7.0898,7.0898,7.0898,7.1937,7.3507,7.3507,7.4514,7.6015,7.6015,7.6015,7.6015,7.6015,7.6015,7.6015,7.6015,7.6015,7.6015,7.6092,7.7246,7.8523,7.86,7.9823,8.1093,8.1093,8.1093,8.1093,8.1093,8.1093,8.1093,8.1093,8.1093,8.1131,8.1208,8.1785,8.2362,8.2516,8.3862,8.4931,8.5008,8.5632,8.6094,8.6094,8.6094,8.6094,8.6094,8.617,8.6209,8.6209,8.7017,8.7517,8.7517,8.8256,8.8718,8.8795,8.7979,8.7902,8.8679,8.8756,8.9171,8.9893,8.997,9.0432,9.121,9.121,9.121,3.6776,3.9488,4.2773,4.6812,5.1625,5.6055,5.8665,5.9896,6.055,6.0748,6.0517,6.0319,6.0473,0.0,0.0,0.0,0.0,0.0,0.0,0.0,0.0,0.0,0.0,0.0,0.0,0.0,0.0,0.0,0.0,0.0,0.0,0.0,0.0,7.0898,7.0898,7.0898,7.0898,7.0898,7.0898,0.0,7.0898,7.0898,7.0898,7.0898,7.0898,7.0898,7.0898,7.0898,7.0898,7.0898,7.1937,7.3507,7.3507,7.4514,7.6015,7.6015,7.6015,7.6015,7.6015,7.6015,7.6015,7.6015,7.6015,7.613,7.6823,7.7715,7.8638,7.9323,8.0285,8.1093,8.1093,8.1093,8.1093,8.1093,8.1093,8.1093,8.1093,8.1093,8.1285,8.19,8.217,8.2747,8.4132,8.4662,8.5124,8.5747,8.5978,8.6094,8.6094,8.6094,8.6094,8.6094,8.6709,8.7132,8.7132,8.7902,8.841,8.841,8.8603,8.8979,8.9624,8.8863,8.8526,8.8718,8.9325,8.9739,8.9893,9.0586,9.1018,9.121,9.121,9.121,3.8119,4.1312,4.4816,4.9894,5.4434,5.7934,5.9204,6.0165,6.0787,6.0787,6.0787,6.0787,0.0,0.0,0.0,0.0,0.0,0.0,0.0,0.0,0.0,0.0,0.0,0.0,0.0,0.0,0.0,0.0,0.0,0.0,0.0,7.0898,7.0898,7.0898,7.0898,7.0898,7.0898,7.0898,7.0898,7.0898,7.0898,7.0898,7.0898,7.0898,7.0898,7.0898,7.0898,7.0898,7.0898,7.0898,7.1937,7.3507,7.3507,7.4514,7.6015,7.6015,7.6015,7.6015,7.6015,7.6015,7.6015,7.6015,7.6015,7.6169,7.7061,7.7869,7.8677,7.9554,8.0439,8.1093,8.1093,8.1093,8.1093,8.1093,8.1093,8.1093,8.1093,8.14,8.1785,8.2208,8.2978,8.3824,8.4739,8.5209,8.5632,8.6055,8.6094,8.6094,8.6094,8.6094,8.6324,8.6863,8.7325,8.7709,8.7987,8.8786,8.9286,8.9286,8.9671,9.0094,9.0509,9.0133,8.9902,8.9902,9.0325,9.0509,9.0509,9.097,9.121,9.121,9.121,9.1441,3.9042,4.3201,4.7398,5.3087,5.6434,5.8506,5.9319,6.0165,6.0787,6.0787,6.0787,0.0,0.0,0.0,0.0,0.0,0.0,0.0,0.0,0.0,0.0,0.0,0.0,0.0,0.0,0.0,0.0,0.0,0.0,0.0,7.0667,7.0821,7.0898,7.0898,7.0898,7.0898,7.0898,7.0898,7.0898,7.0898,7.0898,7.0898,7.0898,7.0898,7.0898,7.0898,7.0898,7.0898,7.0898,7.0898,7.1937,7.3507,7.3507,7.4514,7.6015,7.6015,7.6015,7.6015,7.6015,7.6015,7.6015,7.6015,7.6092,7.6361,7.7253,7.8099,7.8907,7.9785,8.0554,8.1093,8.1093,8.1093,8.1093,8.1093,8.1208,8.1323,8.1323,8.1823,8.2401,8.2708,8.4016,8.5132,8.5132,8.5662,8.6094,8.6094,8.6094,8.6094,8.6094,8.6094,8.6555,8.7671,8.7979,8.8325,8.8863,8.9671,9.0124,9.0124,9.0778,9.121,9.121,9.121,9.121,9.121,9.121,9.121,9.121,9.121,9.121,9.121,9.121,9.1595,3.4395,4.1354,4.8856,5.3356,5.6434,5.8506,5.9319,6.0165,6.0787,0.0,0.0,0.0,0.0,0.0,0.0,0.0,0.0,0.0,0.0,0.0,0.0,0.0,0.0,0.0,0.0,0.0,0.0,0.0,0.0,0.0,6.986,7.0514,7.0898,7.0898,7.0898,7.0898,7.0898,7.0898,7.0898,7.0898,7.0898,7.0898,7.0898,7.0898,7.0898,7.0898,7.0898,7.0898,7.0898,7.0898,7.1937,7.3507,7.3507,7.4514,7.6015,7.6015,7.6015,7.6015,7.6015,7.6015,7.6015,7.6015,7.6515,7.7292,7.8099,7.8938,7.9823,8.0669,8.1016,8.1093,8.1093,8.1093,8.1093,8.1093,8.1631,8.2131,8.2131,8.2208,8.2747,8.4247,8.5286,8.594,8.594,8.6017,8.6094,8.6094,8.6094,8.6094,8.6094,8.6094,8.6555,8.7671,8.8671,8.9393,8.9701,9.0509,9.1018,9.1018,9.1133,9.121,9.121,9.121,9.121,9.121,9.121,9.121,9.121,9.121,9.121,9.121,9.121,9.1248,3.6853,4.3201,4.9005,5.2818,5.5318,5.7049,5.7901,5.9127,6.0089,6.0089,0.0,0.0,0.0,0.0,0.0,0.0,0.0,0.0,0.0,0.0,0.0,0.0,0.0,0.0,0.0,0.0,0.0,0.0,0.0,6.8667,6.9667,7.0052,7.0437,7.0898,7.0898,7.0898,7.0898,7.0898,7.0898,7.0898,7.0898,7.0898,7.0898,7.0898,7.0898,7.0898,7.0898,7.0898,7.0898,7.0898,7.1937,7.3507,7.3507,7.4514,7.6015,7.6015,7.6015,7.6015,7.6015,7.6015,7.6015,7.6015,7.6592,7.7445,7.8253,7.9092,7.9969,8.0862,8.1093,8.1093,8.1093,8.1093,8.1093,8.1093,8.1708,8.2516,8.3324,8.3632,8.4132,8.5363,8.5863,8.6094,8.6094,8.6094,8.6094,8.6094,8.6094,8.6094,8.6094,8.7786,8.9171,8.9671,9.0171,9.0517,9.0624,9.097,9.121,9.121,9.121,9.121,9.121,9.121,9.121,9.121,9.121,9.121,9.121,9.121,9.121,9.121,9.121,9.1479,3.8042,4.2966,4.6855,5.089,5.3664,5.5631,5.6478,0.0,5.9511,0.0,0.0,0.0,0.0,0.0,0.0,0.0,0.0,0.0,0.0,0.0,0.0,0.0,0.0,0.0,0.0,0.0,0.0,0.0,0.0,6.7744,6.9283,6.959,7.0052,7.086,7.0898,7.0898,7.0898,7.0898,7.0898,7.0898,7.0898,7.0898,7.0898,7.0898,7.0898,7.0898,7.0898,7.0898,7.0898,7.0898,7.1937,7.3507,7.3507,7.4514,7.6015,7.6015,7.6015,7.6015,7.6015,7.6015,7.6053,7.6245,7.6899,7.7753,7.86,7.9438,8.0285,8.0939,8.1093,8.1093,8.1093,8.1121,8.1154,8.1154,8.1828,8.2845,8.4236,8.4901,8.5393,8.5978,8.6094,8.6094,8.6094,8.6094,8.6094,8.6094,8.6824,8.7401,8.7401,8.9633,9.121,9.121,9.121,9.121,9.121,9.121,9.121,9.121,9.121,9.121,9.121,9.121,9.121,9.121,9.121,9.121,9.121,9.121,9.121,9.121,9.121,9.1556,3.4154,3.7738,4.1127,4.6932,5.1471,5.478,5.5593,0.0,0.0,0.0,0.0,0.0,0.0,0.0,0.0,0.0,0.0,0.0,0.0,0.0,0.0,0.0,0.0,0.0,0.0,0.0,0.0,0.0,0.0,6.7513,6.843,6.9244,7.0052,7.086,7.0898,7.0898,7.0898,7.0898,7.0898,7.0898,7.0898,7.0898,7.0898,7.0898,7.0898,7.0898,7.0898,7.0898,7.0898,7.0898,7.1937,7.3507,7.3507,7.4514,7.6015,7.6015,7.6015,7.6015,7.6015,7.6015,7.613,7.6938,7.7792,7.86,7.9477,8.0323,8.1054,8.1093,8.1093,8.1093,8.1093,8.1183,8.1269,8.1269,8.2092,8.3229,8.4591,8.547,8.6055,8.6094,8.6094,8.6094,8.6094,8.6094,8.6094,8.6094,8.8863,9.0941,9.0941,9.1095,9.121,9.121,9.121,9.121,9.121,9.121,9.121,9.121,9.121,9.121,9.121,9.121,9.121,9.121,9.121,9.121,9.121,9.121,9.121,9.121,9.121,9.121,3.2965,3.6507,4.0319,4.4586,4.8048,5.0779,5.2169,5.4862,0.0,0.0,0.0,0.0,0.0,0.0,0.0,0.0,0.0,0.0,0.0,0.0,0.0,0.0,0.0,0.0,0.0,0.0,0.0,0.0,0.0,0.0,6.7513,6.8391,6.9244,7.009,7.0629,7.0898,7.0898,7.0898,7.0898,7.0898,7.0898,7.0898,7.0898,7.0898,7.0898,7.0898,7.0898,7.0898,7.0898,7.0898,7.1937,7.344,7.3061,7.4167,7.5947,7.5567,7.5678,7.6015,7.6015,7.6015,7.613,7.7015,7.783,7.8677,7.9554,8.04,8.1093,8.1093,8.1093,8.1106,8.1215,8.1261,8.1492,8.2156,8.2823,8.3615,8.4772,8.5572,8.6094,8.6094,8.6094,8.5828,8.5006,8.4179,8.36,8.36,8.7927,9.121,9.121,9.121,9.121,9.121,9.121,9.121,9.121,9.121,9.121,9.121,9.121,9.121,9.121,9.121,9.121,9.121,9.121,9.121,9.121,9.121,9.121,9.121,9.121,9.121,3.1298,3.4549,3.8526,4.2499,4.4739,4.6889,5.0317,0.0,0.0,0.0,0.0,0.0,0.0,0.0,0.0,0.0,0.0,0.0,0.0,0.0,0.0,0.0,0.0,0.0,0.0,0.0,0.0,0.0,0.0,0.0,6.7058,6.7936,6.893,7.0052,7.0629,7.0898,7.0898,7.0898,7.0898,7.0898,7.0898,7.0898,7.0898,7.0898,7.0898,7.0898,7.0898,7.0791,7.0645,7.085,7.1703,7.2893,7.2694,7.3768,7.5387,7.5192,7.5332,7.5718,7.5932,7.6207,7.6592,7.7445,7.8253,7.9092,7.9977,8.0631,8.1093,8.1093,8.1285,8.1521,8.1627,8.1735,8.2027,8.2812,8.3212,8.3586,8.4299,8.5141,8.5828,8.606,8.6401,8.628,8.505,8.5034,8.4916,8.3946,8.6759,8.928,9.0132,9.0395,9.0576,9.0829,9.0848,9.0914,9.1192,9.121,9.121,9.121,9.121,9.121,9.121,9.121,9.121,9.121,9.121,9.121,9.121,9.121,9.121,9.121,9.121,9.121,0.0,0.0,0.0,0.0,0.0,0.0,5.0038,0.0,0.0,0.0,0.0,0.0,0.0,0.0,0.0,0.0,0.0,0.0,0.0,0.0,0.0,0.0,0.0,0.0,0.0,0.0,0.0,0.0,0.0,6.625,6.7019,6.7898,6.9161,7.0821,7.0898,7.0898,7.0898,7.0898,7.0898,7.0898,7.0898,7.0898,7.0898,7.0898,7.0898,7.0898,7.0898,7.06,7.012,7.0666,7.1259,7.1865,7.2357,7.3269,7.4358,7.4848,7.5073,7.521,7.5787,7.6584,7.7445,7.8253,7.9092,7.9969,8.0808,8.1077,8.1069,8.11,8.1638,8.2269,8.2346,8.264,8.295,8.3135,8.3175,8.3175,8.3204,8.4166,8.527,8.5984,8.7,8.744,8.6363,8.8979,9.023,8.7407,8.5673,8.5537,8.798,8.875,8.9314,8.999,9.0095,9.0378,9.1109,9.1201,9.121,9.121,9.121,9.121,9.121,9.121,9.121,9.121,9.121,9.121,9.121,9.121,9.121,9.121,9.121,9.121,3.0231,0.0,0.0,0.0,0.0,0.0,0.0,0.0,0.0,0.0,0.0,0.0,0.0,0.0,0.0,0.0,0.0,0.0,0.0,0.0,0.0,0.0,0.0,0.0,0.0,0.0,0.0,0.0,6.5904,6.6013,6.6211,6.7628,6.8891,7.0014,7.0591,7.0898,7.0898,7.0898,7.0898,7.0898,7.0898,7.0898,7.0898,7.0898,7.0898,7.0898,7.0898,7.04,6.9598,7.0509,7.1259,7.1824,7.191,7.29,7.426,7.3966,7.4367,7.5194,7.6015,7.6728,7.7561,7.8977,7.9592,7.9876,8.024,8.037,8.0401,8.0539,8.1103,8.1947,8.3123,8.3308,8.3144,8.3172,8.2838,8.2662,8.3266,8.3573,8.423,8.5973,8.7136,8.7825,8.794,8.9787,9.023,8.7407,8.6611,8.6306,8.6234,8.7593,8.8801,8.9301,8.9809,9.0171,9.0378,9.0886,9.121,9.121,9.121,9.121,9.121,9.121,9.121,9.121,9.121,9.121,9.121,9.121,9.121,9.121,9.121,9.121,3.1843,0.0,0.0,0.0,0.0,0.0,0.0,4.232,0.0,0.0,0.0,0.0,0.0,0.0,0.0,0.0,0.0,0.0,0.0,0.0,0.0,0.0,0.0,0.0,0.0,0.0,0.0,6.5859,6.5904,6.6058,6.6365,6.7667,6.8814,6.9667,7.0475,7.0898,7.0898,7.0898,7.0898,7.0898,7.0898,7.0898,7.0898,7.0898,7.0898,7.0891,7.0659,7.0078,6.9353,7.0355,7.0876,7.1125,7.1646,7.2562,7.3541,7.3442,7.4203,7.5321,7.5842,7.7038,7.8416,7.8847,7.9421,7.9922,7.9756,7.9706,7.9821,8.0287,8.1404,8.2766,8.4053,8.4006,8.3543,8.3275,8.2708,8.2343,8.2831,8.2883,8.3634,8.6431,8.7112,8.7561,8.8521,9.0094,9.0654,8.9016,8.7736,8.6628,8.5563,8.6823,8.8039,8.8645,8.9263,8.9798,9.0095,9.0772,9.121,9.121,9.121,9.121,9.121,9.121,9.121,9.121,9.121,9.121,9.121,9.121,9.121,9.121,9.121,9.121,3.3986,3.5231,0.0,0.0,0.0,0.0,4.2844,4.2221,0.0,0.0,0.0,0.0,0.0,0.0,0.0,0.0,0.0,0.0,0.0,0.0,0.0,0.0,0.0,0.0,0.0,6.4551,6.4936,6.5705,6.5865,6.6211,6.6942,6.7782,6.866,6.9513,7.036,7.0821,7.0898,7.0898,7.0898,7.0898,7.0898,7.0898,7.0898,7.0857,7.0798,7.0777,7.0258,6.9711,6.9286,7.0179,7.037,7.0216,7.1574,7.227,7.2582,7.3093,7.4221,7.5534,7.5614,7.7408,7.9547,7.8483,7.8993,7.9898,7.9279,7.9168,7.9432,8.0313,8.2119,8.3991,8.4815,8.4548,8.3952,8.3359,8.2708,8.2186,8.2186,8.2186,8.3299,8.6986,8.72,8.7215,8.8738,9.021,9.121,9.121,8.8815,8.6696,8.5905,8.6527,8.7295,8.8137,8.8701,8.9238,8.9923,9.0646,9.1091,9.1091,9.1136,9.121,9.121,9.121,9.121,9.121,9.121,9.121,9.121,9.121,9.121,9.121,9.121,9.121,3.7358,3.7945,3.8583,0.0,0.0,0.0,0.0,3.753,0.0,0.0,0.0,0.0,0.0,0.0,0.0,0.0,0.0,0.0,0.0,0.0,0.0,0.0,0.0,0.0,0.0,6.4199,6.4666,6.4859,6.5513,6.5981,6.6134,6.6898,6.7744,6.8622,6.9475,7.0244,7.0898,7.0898,7.0898,7.0898,7.0898,7.0898,7.0891,7.0463,7.0274,7.0241,6.9692,6.9158,6.876,7.0231,7.056,7.0216,7.1574,7.227,7.251,7.263,7.385,7.5609,7.63,7.7645,7.9132,7.9531,7.955,7.9267,7.8653,7.8919,7.9741,8.1272,8.2465,8.3492,8.4202,8.3876,8.3373,8.3232,8.2708,8.2186,8.2186,8.2186,8.3169,8.6523,8.7745,8.8809,9.0423,9.0979,9.121,9.121,8.8815,8.7333,8.8237,8.7577,8.7489,8.876,8.8546,8.8575,8.9263,8.9901,9.0315,9.0315,9.0876,9.121,9.121,9.121,9.121,9.121,9.121,9.121,9.121,9.121,9.121,9.121,9.121,9.121,3.9658,3.9925,4.0357,3.9592,0.0,0.0,0.0,0.0,3.8562,0.0,0.0,0.0,0.0,0.0,0.0,0.0,0.0,0.0,0.0,0.0,0.0,0.0,0.0,0.0,0.0,6.282,6.3705,6.4551,6.5397,6.5904,6.5904,6.6673,6.7513,6.8353,6.9244,7.009,7.0898,7.0898,7.0769,7.0501,7.0501,7.0346,7.0086,6.9811,6.9701,6.9673,6.9137,6.8762,6.8599,6.9964,7.0351,7.0262,7.1709,7.2365,7.2496,7.2496,7.4058,7.6108,7.5907,7.7447,7.9416,7.8871,7.8754,7.8628,7.7979,7.8662,7.9985,8.1577,8.257,8.3289,8.3624,8.3447,8.3103,8.2778,8.2434,8.2333,8.2884,8.3214,8.4095,8.6554,8.7474,8.8418,9.019,9.0876,9.121,9.121,8.8815,8.7521,8.8937,8.9109,8.8977,8.8645,8.8617,8.8719,8.9082,8.9728,9.0116,9.0116,9.0781,9.121,9.121,9.121,9.121,9.121,9.121,9.121,9.121,9.121,9.121,9.121,9.121,9.1441,0.0,0.0,0.0,0.0,0.0,3.9834,0.0,0.0,0.0,4.2566,0.0,0.0,0.0,0.0,0.0,0.0,0.0,0.0,0.0,0.0,0.0,0.0,0.0,0.0,0.0,6.0979,6.221,6.4205,6.4705,6.5128,6.5628,6.6404,6.7321,6.8353,6.9084,6.9937,7.0898,7.0791,7.0517,7.0103,7.0009,6.972,6.9302,6.92,6.9148,6.9116,6.8567,6.8443,6.8655,6.9694,7.0183,7.0477,7.1945,7.2496,7.2532,7.2679,7.4389,7.6482,7.563,7.7278,7.9502,7.7979,7.7782,7.8053,7.7855,7.8736,8.0105,8.1608,8.2489,8.3009,8.3009,8.3009,8.2883,8.2327,8.2186,8.2545,8.3802,8.4445,8.5264,8.6953,8.7112,8.7489,8.9016,8.9893,9.0385,9.0385,8.8437,8.7407,8.8537,8.9916,9.0144,8.846,8.8636,8.891,8.891,8.9389,8.9775,8.9901,9.0596,9.1035,9.1201,9.121,9.121,9.121,9.121,9.121,9.121,9.121,9.121,9.121,9.1364,9.1825,0.0,0.0,0.0,0.0,4.4484,0.0,0.0,0.0,4.0796,3.9115,0.0,0.0,0.0,0.0,0.0,0.0,0.0,0.0,0.0,0.0,0.0,0.0,0.0,0.0,0.0,0.0,6.0044,6.3198,6.2166,6.2358,6.4628,6.5551,6.6744,6.8353,6.8507,6.9314,7.0898,7.044,7.0154,7.0095,6.9626,6.9363,6.9292,6.8818,6.8579,6.8544,6.8009,6.8212,6.8934,6.9784,7.0513,7.1233,7.2165,7.2496,7.2606,7.3303,7.4608,7.6091,7.6643,7.758,7.8471,7.8255,7.7854,7.7668,7.9097,7.9669,8.0126,8.1728,8.2222,8.2295,8.2295,8.2295,8.2279,8.2219,8.2186,8.2713,8.4626,8.517,8.5881,8.7876,8.7565,8.7064,8.7278,8.739,8.7489,8.7489,8.7214,8.7064,8.7231,8.8452,8.9263,8.9016,8.8518,8.8205,8.8205,8.8279,8.8589,8.9199,8.9844,9.0508,9.1192,9.121,9.121,9.121,9.121,9.121,9.121,9.121,9.121,9.121,9.1979,9.2402,0.0,0.0,0.0,0.0,0.0,0.0,0.0,0.0,3.9746,0.0,0.0,0.0,0.0,0.0,0.0,0.0,0.0,0.0,0.0,0.0,0.0,0.0,0.0,0.0,0.0,0.0,0.0,0.0,0.0,6.0885,6.3692,6.4408,6.5629,6.7583,6.8122,6.8968,7.0206,7.0125,6.9927,6.9636,6.9095,6.8671,6.8344,6.8148,6.8021,6.8009,6.7797,6.8164,6.8972,6.9779,7.0587,7.138,7.2188,7.2496,7.2606,7.3377,7.4626,7.5973,7.6393,7.7283,7.8241,7.7869,7.7871,7.8259,7.9449,8.0147,8.0718,8.1856,8.2186,8.2186,8.2186,8.2186,8.2186,8.2186,8.2845,8.3855,8.5154,8.5856,8.666,8.7959,8.757,8.6978,8.6978,8.6978,8.6978,8.6978,8.6978,8.6978,8.6978,8.7994,8.8649,8.8532,8.8264,8.8107,8.8107,8.8107,8.8205,8.8503,8.9499,9.0447,9.1183,9.121,9.121,9.121,9.121,9.121,9.121,9.121,9.1479,9.1979,9.2326,9.3018,4.8505,0.0,0.0,0.0,0.0,0.0,0.0,0.0,0.0,0.0,0.0,0.0,0.0,0.0,0.0,0.0,0.0,0.0,0.0,0.0,0.0,0.0,0.0,0.0,0.0,0.0,0.0,0.0,0.0,0.0,6.2247,6.3,6.436,6.6489,6.7496,6.8447,6.9431,6.959,6.9482,6.9074,6.8558,6.8072,6.77,6.77,6.77,6.77,6.77,6.8288,6.9265,6.9853,7.0697,7.1674,7.2275,7.2642,7.2936,7.3744,7.4707,7.5689,7.6251,7.7127,7.7946,7.7472,7.7876,7.8736,7.9559,8.0351,8.1158,8.1966,8.2186,8.2186,8.2186,8.2186,8.2186,8.2186,8.3197,8.4391,8.541,8.6132,8.6895,8.7912,8.7489,8.6978,8.6978,8.6978,8.6978,8.6978,8.6978,8.7098,8.7361,8.7978,8.8315,8.8122,8.8107,8.8107,8.8107,8.8107,8.8249,8.8645,8.974,9.0636,9.1192,9.121,9.121,9.121,9.121,9.121,9.121,9.1441,9.1979,9.2826,9.2826,9.3595,0.0,0.0,0.0,4.686,0.0,0.0,0.0,0.0,4.4001,0.0,0.0,0.0,0.0,0.0,0.0,0.0,0.0,0.0,0.0,0.0,0.0,0.0,0.0,0.0,0.0,0.0,0.0,0.0,0.0,0.0,5.9934,6.1313,6.2964,6.5199,6.6309,6.7485,6.8807,6.8661,6.8521,6.8535,6.7994,6.7727,6.77,6.77,6.77,6.77,6.77,6.8618,7.0073,7.0073,7.1027,7.2459,7.2496,7.2973,7.3744,7.4551,7.4882,7.5168,7.6702,7.7304,7.732,7.7326,7.7876,7.8736,7.9559,8.0351,8.1158,8.1966,8.2186,8.2186,8.2186,8.2186,8.2186,8.2186,8.2827,8.3823,8.5276,8.5704,8.627,8.7805,8.7489,8.6978,8.6978,8.6978,8.6978,8.6978,8.6978,8.7328,8.8242,8.8403,8.8315,8.8122,8.8107,8.8107,8.8107,8.8107,8.8636,8.9946,9.0743,9.1192,9.121,9.121,9.121,9.121,9.121,9.121,9.121,9.2056,9.2864,9.3672,9.3672,9.4143,0.0,0.0,5.4631,5.0091,0.0,0.0,0.0,0.0,0.0,0.0,0.0,0.0,0.0,0.0,0.0,0.0,0.0,0.0,0.0,0.0,0.0,0.0,0.0,0.0,0.0,0.0,0.0,0.0,5.1993,0.0,0.0,6.0126,6.1638,6.3734,6.5757,6.7023,6.7457,6.8161,6.8511,6.8499,6.7956,6.77,6.7714,6.806,6.8223,6.826,6.8779,6.9619,7.0643,7.0804,7.1527,7.2496,7.2496,7.2973,7.378,7.461,7.5234,7.5873,7.6922,7.7289,7.7399,7.7949,7.8736,7.9559,8.0351,8.1158,8.1856,8.2113,8.2186,8.2186,8.2186,8.2186,8.2333,8.2884,8.3962,8.5148,8.6214,8.6889,8.747,8.8009,8.7489,8.7183,8.7651,8.783,8.7704,8.7098,8.7538,8.8054,8.8374,8.8677,8.8649,8.8167,8.8489,8.8589,8.8152,8.8503,8.9123,9.0024,9.0336,9.0675,9.1192,9.121,9.121,9.121,9.121,9.1479,9.2056,9.2364,9.321,9.4566,9.4566,9.5018,5.6247,5.6555,0.0,5.2515,5.1183,0.0,4.5845,0.0,0.0,0.0,0.0,0.0,0.0,0.0,0.0,0.0,0.0,0.0,0.0,0.0,0.0,0.0,0.0,0.0,0.0,0.0,4.7428,5.1197,4.9834,0.0,0.0,0.0,6.0464,6.2352,6.5076,6.6633,6.6923,6.7805,6.821,6.821,6.8047,6.7994,6.7983,6.8558,6.8682,6.8548,6.9368,7.0041,7.0667,7.1098,7.1784,7.2496,7.2496,7.3156,7.4184,7.472,7.5601,7.6592,7.7142,7.7289,7.7436,7.8332,7.9155,7.9963,8.0755,8.1562,8.2186,8.2186,8.2186,8.2186,8.2186,8.2406,8.2774,8.3271,8.4573,8.5834,8.6391,8.7153,8.7694,8.7694,8.7521,8.7538,8.8015,8.8403,8.8423,8.7845,8.838,8.8899,8.8992,8.9045,8.9043,8.8829,8.899,8.903,8.8829,8.9451,9.0017,9.0467,9.0488,9.0723,9.1192,9.121,9.121,9.121,9.1518,9.1941,9.2479,9.3095,9.395,9.5027,9.5335,9.5749]}]]